[[{"header":{"parameterUnit":"m.s-1","parameterCategory":1,"la1":31.0,"la2":29.5877,"lo1":-88.7671,"lo2":-86.6584,"dy":0.0162,"dx":0.0185,"nx":115,"ny":88,"refTime":"2024-09-13T06:00:00:Z","depth":0,"parameterNumber":2,"parameterNumberName":"U-component_of_WINDS"},"data":[0.0,0.0,0.0,0.0,0.0,0.0,0.0,0.0,0.0,0.0,0.0,0.0,0.0,0.0,0.0,0.0,0.0,0.0,0.0,0.0,0.0,0.0,0.0,0.0,0.0,0.0,0.0,0.0,0.0,0.0,0.0,0.0,0.0,0.0,0.0,0.0,0.0,0.0,0.0,0.0,0.0,0.0,0.0,0.0,0.0,0.0,0.0,0.0,0.0,0.0,0.0,0.0,0.0,0.0,0.0,0.0,0.0,0.0,0.0,0.0,0.0,0.0,0.0,0.0,0.0,0.0,0.0,0.0,0.0,0.0,0.0,0.0,0.0,0.0,0.0,0.0,0.0,0.0,0.0,0.0,0.0,0.0,0.0,0.0,0.0,0.0,0.0,0.0,0.0,0.0,0.0,0.0,0.0,0.0,0.0,0.0,0.0,0.0,0.0,0.0,0.0,0.0,0.0,0.0,0.0,0.0,0.0,0.0,0.0,0.0,0.0,0.0,0.0,0.0,0.0,0.0,0.0,0.0,0.0,0.0,0.0,0.0,0.0,0.0,0.0,0.0,0.0,0.0,0.0,0.0,0.0,0.0,0.0,0.0,0.0,0.0,0.0,0.0,0.0,0.0,0.0,0.0,0.0,0.0,0.0,0.0,0.0,0.0,0.0,0.0,0.0,0.0,0.0,0.0,0.0,0.0,0.0,0.0,0.0,0.0,0.0,0.0,0.0,0.0,0.0,0.0,0.0,0.0,0.0,0.0,0.0,0.0,0.0,0.0,0.0,0.0,0.0,0.0,0.0,0.0,0.0,0.0,0.0,0.0,0.0,0.0,0.0,0.0,0.0,0.0,0.0,0.0,0.0,0.0,0.0,0.0,0.0,0.0,0.0,0.0,0.0,0.0,0.0,0.0,0.0,0.0,0.0,0.0,0.0,0.0,0.0,0.0,0.0,0.0,0.0,0.0,0.0,0.0,0.0,0.0,0.0,0.0,0.0,0.0,0.0,0.0,0.0,0.0,0.0,0.0,0.0,0.0,0.0,0.0,0.0,0.0,0.0,0.0,0.0,0.0,0.0,0.0,0.0,0.0,0.0,0.0,0.0,0.0,0.0,0.0,0.0,0.0,0.0,0.0,0.0,0.0,0.0,0.0,0.0,0.0,0.0,0.0,0.0,0.0,0.0,0.0,0.0,0.0,0.0,0.0,0.0,0.0,0.0,0.0,0.0,0.0,0.0,0.0,0.0,0.0,0.0,0.0,0.0,0.0,0.0,0.0,0.0,0.0,0.0,0.0,0.0,0.0,0.0,0.0,0.0,0.0,0.0,0.0,0.0,0.0,0.0,0.0,0.0,0.0,0.0,0.0,0.0,0.0,0.0,0.0,0.0,0.0,0.0,0.0,0.0,0.0,0.0,0.0,0.0,0.0,0.0,0.0,0.0,0.0,0.0,0.0,0.0,0.0,0.0,0.0,0.0,0.0,0.0,0.0,0.0,0.0,0.0,0.0,0.0,0.0,0.0,0.0,0.0,0.0,0.0,0.0,0.0,0.0,0.0,0.0,0.0,0.0,0.0,0.0,0.0,0.0,0.0,0.0,0.0,0.0,0.0,0.0,0.0,0.0,0.0,0.0,0.0,0.0,0.0,0.0,0.0,0.0,0.0,0.0,0.0,0.0,0.0,0.0,0.0,0.0,0.0,0.0,0.0,0.0,0.0,0.0,0.0,0.0,0.0,0.0,0.0,0.0,0.0,0.0,0.0,0.0,0.0,0.0,0.0,0.0,0.0,0.0,0.0,0.0,0.0,0.0,0.0,0.0,0.0,0.0,0.0,0.0,0.0,0.0,0.0,0.0,0.0,0.0,0.0,0.0,0.0,0.0,0.0,0.0,0.0,0.0,0.0,0.0,0.0,0.0,0.0,0.0,0.0,0.0,0.0,0.0,0.0,0.0,0.0,0.0,0.0,0.0,0.0,0.0,0.0,0.0,0.0,0.0,0.0,0.0,0.0,0.0,0.0,0.0,0.0,0.0,0.0,0.0,0.0,0.0,0.0,0.0,0.0,0.0,0.0,0.0,0.0,0.0,0.0,0.0,0.0,0.0,0.0,0.0,0.0,0.0,0.0,0.0,0.0,0.0,0.0,0.0,0.0,0.0,0.0,0.0,0.0,0.0,0.0,0.0,0.0,0.0,0.0,0.0,0.0,0.0,0.0,0.0,0.0,0.0,0.0,0.0,0.0,0.0,0.0,0.0,0.0,0.0,0.0,0.0,0.0,0.0,0.0,0.0,0.0,0.0,0.0,0.0,0.0,0.0,0.0,0.0,0.0,0.0,0.0,0.0,0.0,0.0,0.0,0.0,0.0,0.0,0.0,0.0,0.0,0.0,0.0,0.0,0.0,0.0,0.0,0.0,0.0,0.0,0.0,0.0,0.0,0.0,0.0,0.0,0.0,0.0,0.0,0.0,0.0,0.0,0.0,0.0,0.0,0.0,0.0,0.0,0.0,0.0,0.0,0.0,0.0,0.0,0.0,0.0,0.0,0.0,0.0,0.0,0.0,0.0,0.0,0.0,0.0,0.0,0.0,0.0,0.0,0.0,0.0,0.0,0.0,0.0,0.0,0.0,0.0,0.0,0.0,0.0,0.0,0.0,0.0,0.0,0.0,0.0,0.0,0.0,0.0,0.0,0.0,0.0,0.0,0.0,0.0,0.0,0.0,0.0,0.0,0.0,0.0,0.0,0.0,0.0,0.0,0.0,0.0,0.0,0.0,0.0,0.0,0.0,0.0,0.0,0.0,0.0,0.0,0.0,0.0,0.0,0.0,0.0,0.0,0.0,0.0,0.0,0.0,0.0,0.0,0.0,0.0,0.0,0.0,0.0,0.0,0.0,0.0,0.0,0.0,0.0,0.0,0.0,0.0,0.0,0.0,0.0,0.0,0.0,0.0,0.0,0.0,0.0,0.0,0.0,0.0,0.0,0.0,0.0,0.0,0.0,0.0,0.0,0.0,0.0,0.0,0.0,0.0,0.0,0.0,0.0,0.0,0.0,0.0,0.0,0.0,0.0,0.0,0.0,0.0,0.0,0.0,0.0,0.0,0.0,0.0,0.0,0.0,0.0,0.0,0.0,0.0,0.0,0.0,0.0,0.0,0.0,0.0,0.0,0.0,0.0,0.0,0.0,0.0,0.0,0.0,0.0,0.0,0.0,0.0,0.0,0.0,0.0,0.0,0.0,0.0,0.0,0.0,0.0,0.0,0.0,0.0,0.0,0.0,0.0,0.0,0.0,0.0,0.0,0.0,0.0,0.0,0.0,0.0,0.0,0.0,0.0,0.0,0.0,0.0,0.0,0.0,0.0,0.0,0.0,0.0,0.0,0.0,0.0,0.0,0.0,0.0,0.0,0.0,0.0,0.0,0.0,0.0,0.0,0.0,0.0,0.0,0.0,0.0,0.0,0.0,0.0,0.0,0.0,0.0,0.0,0.0,0.0,0.0,0.0,0.0,0.0,0.0,0.0,0.0,0.0,0.0,0.0,0.0,0.0,0.0,0.0,0.0,0.0,0.0,0.0,0.0,0.0,0.0,0.0,0.0,0.0,0.0,0.0,0.0,0.0,0.0,0.0,0.0,0.0,0.0,0.0,0.0,0.0,0.0,0.0,0.0,0.0,0.0,0.0,0.0,0.0,0.0,0.0,0.0,0.0,0.0,0.0,0.0,0.0,0.0,0.0,0.0,0.0,0.0,0.0,0.0,0.0,0.0,0.0,0.0,0.0,0.0,0.0,0.0,0.0,0.0,0.0,0.0,0.0,0.0,0.0,0.0,0.0,0.0,0.0,0.0,0.0,0.0,0.0,0.0,0.0,0.0,0.0,0.0,0.0,0.0,0.0,0.0,0.0,0.0,0.0,0.0,0.0,0.0,0.0,0.0,0.0,0.0,0.0,0.0,0.0,0.0,0.0,0.0,0.0,0.0,0.0,0.0,0.0,0.0,0.0,0.0,0.0,0.0,0.0,0.0,0.0,0.0,0.0,0.0,0.0,0.0,0.0,0.0,0.0,0.0,0.0,0.0,0.0,0.0,0.0,0.0,0.0,0.0,0.0,0.0,0.0,0.0,0.0,0.0,0.0,0.0,0.0,0.0,0.0,0.0,0.0,0.0,0.0,0.0,0.0,0.0,0.0,0.0,0.0,0.0,0.0,0.0,0.0,0.0,0.0,0.0,0.0,0.0,0.0,0.0,0.0,0.0,0.0,0.0,0.0,0.0,0.0,0.0,0.0,0.0,0.0,2.4487,0.0,0.0,0.0,0.0,0.0,0.0,0.0,0.0,0.0,0.0,0.0,0.0,0.0,0.0,0.0,0.0,0.0,0.0,0.0,0.0,0.0,0.0,0.0,0.0,0.0,0.0,0.0,0.0,0.0,0.0,0.0,0.0,0.0,0.0,0.0,0.0,0.0,0.0,0.0,0.0,0.0,0.0,0.0,0.0,0.0,0.0,0.0,0.0,0.0,0.0,0.0,0.0,0.0,0.0,0.0,0.0,0.0,0.0,0.0,0.0,0.0,0.0,0.0,0.0,0.0,0.0,0.0,0.0,0.0,0.0,0.0,0.0,0.0,0.0,0.0,0.0,0.0,0.0,0.0,0.0,0.0,0.0,0.0,0.0,0.0,0.0,0.0,0.0,0.0,0.0,0.0,0.0,0.0,0.0,0.0,0.0,0.0,0.0,0.0,0.0,0.0,0.0,0.0,0.0,0.0,0.0,0.0,0.0,0.0,0.0,2.5964,2.5349,2.561,2.5318,2.4333,0.0,0.0,0.0,0.0,0.0,0.0,0.0,0.0,0.0,0.0,0.0,0.0,0.0,0.0,0.0,0.0,0.0,0.0,0.0,0.0,0.0,0.0,0.0,0.0,0.0,0.0,0.0,0.0,0.0,0.0,0.0,0.0,0.0,0.0,0.0,0.0,0.0,0.0,0.0,0.0,0.0,0.0,0.0,0.0,0.0,0.0,0.0,0.0,0.0,0.0,0.0,0.0,0.0,0.0,0.0,0.0,0.0,0.0,0.0,0.0,0.0,0.0,0.0,0.0,0.0,0.0,0.0,0.0,0.0,0.0,0.0,0.0,0.0,0.0,0.0,0.0,0.0,0.0,0.0,0.0,0.0,0.0,0.0,0.0,0.0,0.0,0.0,0.0,0.0,0.0,0.0,0.0,0.0,0.0,0.0,0.0,0.0,0.0,0.0,0.0,0.0,0.0,0.0,0.0,0.0,0.0,0.0,0.0,0.0,0.0,0.0,0.0,2.5472,2.5087,2.4102,0.0,0.0,0.0,0.0,0.0,0.0,0.0,0.0,0.0,0.0,0.0,0.0,0.0,0.0,0.0,0.0,0.0,0.0,0.0,0.0,0.0,0.0,0.0,0.0,0.0,0.0,0.0,0.0,0.0,0.0,0.0,0.0,0.0,0.0,0.0,0.0,0.0,0.0,0.0,0.0,0.0,0.0,0.0,0.0,0.0,0.0,0.0,0.0,0.0,0.0,0.0,0.0,0.0,0.0,0.0,0.0,0.0,0.0,0.0,0.0,0.0,0.0,0.0,0.0,0.0,0.0,0.0,0.0,0.0,0.0,0.0,0.0,0.0,0.0,0.0,0.0,0.0,0.0,0.0,0.0,0.0,0.0,0.0,0.0,0.0,0.0,0.0,0.0,0.0,0.0,0.0,0.0,0.0,0.0,0.0,0.0,0.0,0.0,0.0,0.0,0.0,0.0,0.0,0.0,0.0,0.0,0.0,0.0,0.0,0.0,2.5318,2.5318,2.5918,0.0,2.3579,0.0,0.0,0.0,0.0,0.0,0.0,0.0,0.0,0.0,0.0,0.0,0.0,0.0,0.0,0.0,0.0,0.0,0.0,0.0,0.0,0.0,0.0,0.0,0.0,0.0,0.0,0.0,0.0,0.0,0.0,0.0,0.0,0.0,0.0,0.0,0.0,0.0,0.0,0.0,0.0,0.0,0.0,0.0,0.0,0.0,0.0,0.0,0.0,0.0,0.0,0.0,0.0,0.0,0.0,0.0,0.0,0.0,0.0,0.0,0.0,0.0,0.0,0.0,0.0,0.0,0.0,0.0,0.0,0.0,0.0,0.0,0.0,0.0,0.0,0.0,0.0,0.0,0.0,0.0,0.0,0.0,0.0,0.0,0.0,0.0,0.0,0.0,0.0,0.0,0.0,0.0,0.0,0.0,0.0,0.0,0.0,0.0,0.0,0.0,0.0,0.0,0.0,0.0,0.0,0.0,0.0,0.0,0.0,0.0,0.0,2.5318,2.5318,2.4825,2.3979,0.0,0.0,0.0,0.0,0.0,0.0,0.0,0.0,0.0,0.0,0.0,0.0,0.0,0.0,0.0,0.0,0.0,0.0,0.0,0.0,0.0,0.0,0.0,0.0,0.0,0.0,0.0,0.0,0.0,0.0,0.0,0.0,0.0,0.0,0.0,0.0,0.0,0.0,0.0,0.0,0.0,0.0,0.0,0.0,0.0,0.0,0.0,0.0,0.0,0.0,0.0,0.0,0.0,0.0,0.0,0.0,0.0,0.0,0.0,0.0,0.0,0.0,0.0,0.0,0.0,0.0,0.0,0.0,0.0,0.0,0.0,0.0,0.0,0.0,0.0,0.0,0.0,0.0,0.0,0.0,0.0,0.0,0.0,0.0,0.0,0.0,0.0,0.0,0.0,0.0,0.0,0.0,0.0,0.0,0.0,0.0,0.0,0.0,0.0,0.0,0.0,0.0,0.0,0.0,0.0,0.0,0.0,0.0,0.0,0.0,2.5056,2.5318,2.5287,2.4564,2.3486,2.2055,0.0,0.0,0.0,0.0,0.0,0.0,0.0,0.0,0.0,0.0,0.0,0.0,0.0,0.0,0.0,0.0,0.0,0.0,0.0,0.0,0.0,0.0,0.0,0.0,0.0,0.0,0.0,0.0,0.0,0.0,0.0,0.0,0.0,0.0,0.0,0.0,0.0,0.0,0.0,0.0,0.0,0.0,0.0,0.0,0.0,0.0,0.0,0.0,0.0,0.0,0.0,0.0,0.0,0.0,0.0,0.0,0.0,0.0,0.0,0.0,0.0,0.0,0.0,0.0,0.0,0.0,0.0,0.0,0.0,0.0,0.0,0.0,0.0,0.0,0.0,0.0,0.0,0.0,0.0,0.0,0.0,0.0,0.0,0.0,0.0,0.0,0.0,0.0,0.0,0.0,0.0,0.0,0.0,0.0,0.0,0.0,0.0,0.0,0.0,0.0,0.0,0.0,0.0,0.0,0.0,0.0,0.0,0.0,0.0,2.5287,2.5318,2.5349,2.5903,2.4702,0.0,0.0,0.0,0.0,0.0,0.0,0.0,0.0,0.0,0.0,0.0,0.0,0.0,0.0,0.0,0.0,0.0,0.0,0.0,0.0,0.0,0.0,0.0,0.0,0.0,0.0,0.0,0.0,0.0,0.0,0.0,0.0,0.0,0.0,0.0,0.0,0.0,0.0,0.0,0.0,0.0,0.0,0.0,0.0,0.0,0.0,0.0,0.0,0.0,0.0,0.0,0.0,0.0,0.0,0.0,0.0,0.0,0.0,0.0,0.0,0.0,0.0,0.0,0.0,0.0,0.0,0.0,0.0,0.0,0.0,0.0,0.0,0.0,0.0,0.0,0.0,0.0,0.0,0.0,0.0,0.0,0.0,0.0,0.0,0.0,0.0,0.0,0.0,0.0,0.0,0.0,0.0,0.0,0.0,0.0,0.0,0.0,0.0,0.0,0.0,0.0,0.0,0.0,0.0,0.0,0.0,0.0,0.0,0.0,2.3994,2.4872,2.5749,2.6549,2.4795,2.3179,0.0,0.0,0.0,0.0,0.0,0.0,0.0,0.0,0.0,0.0,0.0,0.0,0.0,0.0,0.0,0.0,0.0,0.0,0.0,0.0,0.0,0.0,0.0,0.0,0.0,0.0,0.0,0.0,0.0,0.0,0.0,0.0,0.0,0.0,0.0,0.0,0.0,0.0,0.0,0.0,0.0,0.0,0.0,0.0,0.0,0.0,0.0,0.0,0.0,0.0,0.0,0.0,0.0,0.0,0.0,0.0,0.0,0.0,0.0,0.0,0.0,0.0,0.0,0.0,0.0,0.0,0.0,0.0,0.0,0.0,0.0,0.0,0.0,0.0,0.0,0.0,0.0,0.0,0.0,0.0,0.0,0.0,0.0,0.0,0.0,0.0,0.0,0.0,0.0,0.0,0.0,0.0,0.0,0.0,0.0,0.0,0.0,0.0,0.0,0.0,0.0,0.0,0.0,0.0,0.0,0.0,0.0,0.0,0.0,2.3594,0.0,2.5603,0.0,2.384,2.2101,0.0,0.0,0.0,0.0,0.0,0.0,0.0,0.0,0.0,0.0,0.0,0.0,0.0,0.0,0.0,0.0,0.0,0.0,0.0,0.0,0.0,0.0,0.0,0.0,0.0,0.0,0.0,0.0,0.0,0.0,0.0,0.0,0.0,0.0,0.0,0.0,0.0,0.0,0.0,0.0,0.0,0.0,0.0,0.0,0.0,0.0,0.0,0.0,0.0,0.0,0.0,0.0,0.0,0.0,0.0,0.0,0.0,0.0,0.0,0.0,0.0,0.0,0.0,0.0,0.0,0.0,0.0,0.0,0.0,0.0,0.0,0.0,0.0,0.0,0.0,0.0,0.0,0.0,0.0,0.0,0.0,0.0,0.0,0.0,0.0,0.0,0.0,0.0,0.0,0.0,0.0,0.0,0.0,0.0,0.0,0.0,0.0,0.0,0.0,0.0,0.0,0.0,0.0,0.0,0.0,0.0,0.0,0.0,2.2286,2.4153,2.5032,2.4851,2.3456,2.3317,2.1664,0.0,0.0,0.0,0.0,0.0,0.0,0.0,0.0,0.0,0.0,0.0,0.0,0.0,0.0,0.0,0.0,0.0,0.0,0.0,0.0,0.0,0.0,0.0,0.0,0.0,0.0,0.0,0.0,0.0,0.0,0.0,0.0,0.0,0.0,0.0,0.0,0.0,0.0,0.0,0.0,0.0,0.0,0.0,0.0,0.0,0.0,0.0,0.0,0.0,0.0,0.0,0.0,0.0,0.0,0.0,0.0,0.0,0.0,0.0,0.0,0.0,0.0,0.0,0.0,0.0,0.0,0.0,0.0,0.0,0.0,0.0,0.0,0.0,0.0,0.0,0.0,0.0,0.0,0.0,0.0,0.0,0.0,0.0,0.0,0.0,0.0,0.0,0.0,0.0,0.0,0.0,0.0,0.0,0.0,0.0,0.0,0.0,0.0,0.0,0.0,0.0,0.0,0.0,0.0,0.0,0.0,0.0,0.0,0.0,2.2932,2.4059,2.49,2.5333,2.3132,2.1855,0.0,0.0,0.0,0.0,0.0,0.0,0.0,0.0,0.0,0.0,0.0,0.0,0.0,0.0,0.0,0.0,0.0,0.0,0.0,0.0,0.0,0.0,0.0,0.0,0.0,0.0,0.0,0.0,0.0,0.0,0.0,0.0,0.0,0.0,0.0,0.0,0.0,0.0,0.0,0.0,0.0,0.0,0.0,0.0,0.0,0.0,0.0,0.0,0.0,0.0,0.0,0.0,0.0,0.0,0.0,0.0,0.0,0.0,0.0,0.0,0.0,0.0,0.0,0.0,0.0,0.0,0.0,0.0,0.0,0.0,0.0,0.0,0.0,0.0,0.0,0.0,0.0,0.0,0.0,0.0,0.0,0.0,0.0,0.0,0.0,0.0,0.0,0.0,0.0,0.0,0.0,0.0,0.0,0.0,0.0,0.0,0.0,0.0,0.0,0.0,0.0,0.0,0.0,0.0,0.0,0.0,0.0,0.0,0.0,2.2717,2.3799,2.4628,2.5226,2.2671,2.1563,2.2048,0.0,0.0,0.0,0.0,0.0,0.0,0.0,0.0,0.0,0.0,0.0,0.0,0.0,0.0,0.0,0.0,0.0,0.0,0.0,0.0,0.0,0.0,0.0,0.0,0.0,0.0,0.0,0.0,0.0,0.0,0.0,0.0,0.0,0.0,0.0,0.0,0.0,0.0,0.0,0.0,0.0,0.0,0.0,0.0,0.0,0.0,0.0,0.0,0.0,0.0,0.0,0.0,0.0,0.0,0.0,0.0,0.0,0.0,0.0,0.0,0.0,0.0,0.0,0.0,0.0,0.0,0.0,0.0,0.0,0.0,0.0,0.0,0.0,0.0,0.0,0.0,0.0,0.0,0.0,0.0,0.0,0.0,0.0,0.0,0.0,0.0,0.0,0.0,0.0,0.0,0.0,0.0,0.0,0.0,0.0,0.0,0.0,0.0,0.0,0.0,0.0,0.0,0.0,0.0,0.0,0.0,0.0,0.0,2.324,2.4066,2.4187,2.3486,2.2139,2.1106,0.0,0.0,0.0,0.0,0.0,0.0,0.0,0.0,0.0,0.0,0.0,0.0,0.0,0.0,0.0,0.0,0.0,0.0,0.0,0.0,0.0,0.0,0.0,0.0,0.0,0.0,0.0,0.0,0.0,0.0,0.0,0.0,0.0,0.0,0.0,0.0,0.0,0.0,0.0,0.0,0.0,0.0,0.0,0.0,0.0,0.0,0.0,0.0,0.0,0.0,0.0,0.0,0.0,0.0,0.0,0.0,0.0,0.0,0.0,0.0,0.0,0.0,0.0,0.0,0.0,0.0,0.0,0.0,0.0,0.0,0.0,0.0,0.0,0.0,0.0,0.0,0.0,0.0,0.0,0.0,0.0,0.0,0.0,0.0,0.0,0.0,0.0,0.0,0.0,0.0,0.0,0.0,0.0,0.0,0.0,0.0,0.0,0.0,0.0,0.0,0.0,0.0,0.0,0.0,0.0,0.0,0.0,0.0,0.0,2.2594,2.3749,2.4499,2.4733,2.3266,2.2535,0.0,0.0,0.0,0.0,0.0,0.0,0.0,0.0,0.0,0.0,0.0,0.0,0.0,0.0,0.0,0.0,0.0,0.0,0.0,0.0,0.0,0.0,0.0,0.0,0.0,0.0,0.0,0.0,0.0,0.0,0.0,0.0,0.0,0.0,0.0,0.0,0.0,0.0,0.0,0.0,0.0,0.0,0.0,0.0,0.0,0.0,0.0,0.0,0.0,0.0,0.0,0.0,0.0,0.0,0.0,0.0,0.0,0.0,0.0,0.0,0.0,0.0,0.0,0.0,0.0,0.0,0.0,0.0,0.0,0.0,0.0,0.0,0.0,0.0,0.0,0.0,0.0,0.0,0.0,0.0,0.0,0.0,0.0,0.0,0.0,0.0,0.0,0.0,0.0,0.0,0.0,0.0,0.0,0.0,0.0,0.0,0.0,0.0,0.0,0.0,0.0,0.0,0.0,0.0,0.0,0.0,0.0,0.0,2.2546,2.2717,2.3471,2.4071,2.4471,2.3514,2.313,0.0,0.0,0.0,0.0,0.0,0.0,0.0,0.0,0.0,0.0,0.0,0.0,0.0,0.0,0.0,0.0,0.0,0.0,0.0,0.0,0.0,0.0,0.0,0.0,0.0,0.0,0.0,0.0,0.0,0.0,0.0,0.0,0.0,0.0,0.0,0.0,0.0,0.0,0.0,0.0,0.0,0.0,0.0,0.0,0.0,0.0,0.0,0.0,0.0,0.0,0.0,0.0,0.0,0.0,0.0,0.0,0.0,0.0,0.0,0.0,0.0,0.0,0.0,0.0,0.0,0.0,0.0,0.0,0.0,0.0,0.0,0.0,0.0,0.0,0.0,0.0,0.0,0.0,0.0,0.0,0.0,0.0,0.0,0.0,0.0,0.0,0.0,0.0,0.0,0.0,0.0,0.0,0.0,0.0,0.0,0.0,0.0,0.0,0.0,0.0,0.0,0.0,0.0,0.0,0.0,0.0,0.0,0.0,2.2778,2.3115,2.3194,2.3218,2.3218,2.3218,2.3134,0.0,0.0,0.0,0.0,0.0,0.0,0.0,0.0,0.0,0.0,0.0,0.0,0.0,0.0,0.0,0.0,0.0,0.0,0.0,0.0,0.0,0.0,0.0,0.0,0.0,0.0,0.0,0.0,0.0,0.0,0.0,0.0,0.0,0.0,0.0,0.0,0.0,0.0,0.0,0.0,0.0,0.0,0.0,0.0,0.0,0.0,0.0,0.0,0.0,0.0,0.0,0.0,0.0,0.0,0.0,0.0,0.0,0.0,0.0,0.0,0.0,0.0,0.0,0.0,0.0,0.0,0.0,0.0,0.0,0.0,0.0,0.0,0.0,0.0,0.0,0.0,0.0,0.0,0.0,0.0,0.0,0.0,0.0,0.0,0.0,0.0,0.0,0.0,0.0,0.0,0.0,0.0,0.0,0.0,0.0,0.0,0.0,0.0,0.0,0.0,0.0,0.0,0.0,0.0,0.0,0.0,0.0,0.0,2.1884,2.1964,2.2347,2.2654,2.2901,2.2901,2.2991,0.0,0.0,0.0,0.0,0.0,0.0,0.0,0.0,0.0,0.0,0.0,0.0,0.0,0.0,0.0,0.0,0.0,0.0,0.0,0.0,0.0,0.0,0.0,0.0,0.0,0.0,0.0,0.0,0.0,0.0,0.0,0.0,0.0,0.0,0.0,0.0,0.0,0.0,0.0,0.0,0.0,0.0,0.0,0.0,0.0,0.0,0.0,0.0,3.0065,0.0,0.0,0.0,0.0,0.0,0.0,0.0,0.0,0.0,0.0,0.0,0.0,0.0,0.0,0.0,0.0,0.0,0.0,0.0,0.0,0.0,0.0,0.0,0.0,0.0,0.0,0.0,0.0,0.0,0.0,0.0,0.0,0.0,0.0,0.0,0.0,0.0,0.0,0.0,0.0,0.0,0.0,0.0,0.0,0.0,0.0,0.0,0.0,0.0,0.0,0.0,0.0,0.0,0.0,0.0,0.0,0.0,0.0,0.0,2.2014,2.1925,2.2037,2.216,2.2319,2.2464,2.2742,0.0,0.0,0.0,0.0,0.0,0.0,0.0,0.0,0.0,0.0,0.0,0.0,0.0,0.0,0.0,0.0,0.0,0.0,0.0,0.0,0.0,0.0,0.0,0.0,0.0,0.0,0.0,0.0,0.0,0.0,0.0,0.0,0.0,0.0,0.0,0.0,0.0,0.0,0.0,0.0,0.0,0.0,0.0,0.0,0.0,0.0,0.0,0.0,0.0,0.0,0.0,0.0,0.0,0.0,0.0,0.0,0.0,0.0,0.0,0.0,0.0,0.0,0.0,0.0,0.0,0.0,0.0,0.0,0.0,0.0,0.0,0.0,0.0,0.0,0.0,0.0,0.0,0.0,0.0,0.0,0.0,0.0,0.0,0.0,0.0,0.0,0.0,0.0,0.0,0.0,0.0,0.0,0.0,0.0,0.0,0.0,0.0,0.0,0.0,0.0,0.0,0.0,0.0,0.0,0.0,0.0,0.0,2.1857,2.2219,2.2095,2.1771,2.1629,2.1732,2.2115,2.2394,2.2559,0.0,0.0,0.0,0.0,0.0,0.0,0.0,0.0,0.0,0.0,0.0,0.0,0.0,0.0,0.0,0.0,0.0,0.0,0.0,0.0,0.0,0.0,0.0,0.0,0.0,0.0,0.0,0.0,0.0,0.0,0.0,0.0,0.0,0.0,0.0,0.0,0.0,0.0,2.8227,2.918,0.0,0.0,0.0,0.0,0.0,0.0,0.0,0.0,3.0606,0.0,0.0,0.0,0.0,0.0,0.0,0.0,0.0,0.0,0.0,0.0,0.0,0.0,0.0,0.0,0.0,0.0,0.0,0.0,0.0,0.0,0.0,0.0,0.0,0.0,0.0,0.0,0.0,0.0,0.0,0.0,0.0,0.0,0.0,0.0,0.0,0.0,0.0,0.0,0.0,0.0,0.0,0.0,0.0,0.0,0.0,0.0,0.0,0.0,0.0,0.0,0.0,0.0,0.0,0.0,0.0,2.058,2.0828,2.0991,2.1123,2.0749,2.0834,2.1359,2.2037,2.211,2.1524,0.0,0.0,0.0,0.0,0.0,0.0,0.0,0.0,0.0,0.0,0.0,0.0,0.0,0.0,0.0,0.0,0.0,0.0,0.0,0.0,0.0,0.0,0.0,0.0,0.0,0.0,0.0,0.0,0.0,0.0,0.0,0.0,0.0,0.0,0.0,0.0,0.0,0.0,0.0,2.907,2.9582,0.0,0.0,0.0,0.0,0.0,0.0,0.0,0.0,2.9763,0.0,0.0,0.0,0.0,0.0,0.0,0.0,0.0,0.0,0.0,0.0,0.0,0.0,0.0,0.0,0.0,0.0,0.0,0.0,0.0,0.0,0.0,0.0,0.0,0.0,0.0,0.0,0.0,0.0,0.0,0.0,0.0,0.0,0.0,0.0,0.0,0.0,0.0,0.0,0.0,0.0,0.0,0.0,0.0,0.0,0.0,0.0,0.0,0.0,0.0,0.0,0.0,0.0,0.0,0.0,2.0415,2.0637,2.0925,2.123,2.0788,2.0555,2.0542,2.1175,2.1147,0.0,0.0,0.0,0.0,0.0,0.0,0.0,0.0,0.0,0.0,0.0,0.0,0.0,0.0,0.0,0.0,0.0,0.0,0.0,0.0,0.0,0.0,0.0,0.0,0.0,0.0,0.0,0.0,0.0,0.0,0.0,0.0,0.0,0.0,0.0,0.0,0.0,0.0,0.0,0.0,2.7704,2.7908,2.8978,0.0,0.0,0.0,0.0,0.0,0.0,2.8241,2.9207,0.0,0.0,0.0,0.0,0.0,0.0,0.0,0.0,0.0,0.0,0.0,0.0,0.0,0.0,0.0,0.0,0.0,0.0,0.0,0.0,0.0,0.0,0.0,0.0,0.0,0.0,0.0,0.0,0.0,0.0,0.0,0.0,0.0,0.0,0.0,0.0,0.0,0.0,0.0,0.0,0.0,0.0,0.0,0.0,0.0,0.0,0.0,0.0,0.0,0.0,0.0,0.0,0.0,0.0,0.0,2.0556,2.0779,2.1101,2.1535,2.1003,2.0397,1.9814,2.0475,2.0355,0.0,0.0,0.0,0.0,0.0,0.0,0.0,0.0,0.0,0.0,0.0,0.0,0.0,0.0,0.0,0.0,0.0,0.0,0.0,0.0,0.0,0.0,0.0,0.0,0.0,0.0,0.0,0.0,0.0,0.0,0.0,0.0,0.0,0.0,0.0,0.0,0.0,0.0,0.0,0.0,0.0,2.6408,2.7338,2.7405,0.0,0.0,0.0,0.0,2.6035,2.7294,0.0,0.0,0.0,0.0,0.0,0.0,0.0,0.0,0.0,0.0,0.0,0.0,0.0,0.0,0.0,0.0,0.0,0.0,0.0,0.0,0.0,0.0,0.0,0.0,0.0,0.0,0.0,0.0,0.0,0.0,0.0,0.0,0.0,0.0,0.0,0.0,0.0,0.0,0.0,0.0,0.0,0.0,0.0,0.0,0.0,0.0,0.0,0.0,0.0,0.0,0.0,0.0,0.0,0.0,0.0,0.0,2.1119,2.0834,2.0935,2.1545,2.0767,2.0167,1.983,2.0731,2.0414,0.0,0.0,0.0,0.0,0.0,0.0,0.0,0.0,0.0,0.0,0.0,0.0,0.0,0.0,0.0,0.0,0.0,0.0,0.0,0.0,0.0,0.0,0.0,0.0,0.0,0.0,0.0,0.0,0.0,0.0,0.0,0.0,0.0,0.0,0.0,0.0,0.0,0.0,0.0,0.0,0.0,2.5749,2.5502,2.5038,2.4543,0.0,0.0,2.4231,2.4565,2.4463,0.0,0.0,0.0,0.0,0.0,0.0,0.0,0.0,0.0,0.0,0.0,0.0,0.0,0.0,0.0,0.0,0.0,0.0,0.0,0.0,0.0,0.0,0.0,0.0,0.0,0.0,0.0,0.0,0.0,0.0,0.0,0.0,0.0,0.0,0.0,0.0,0.0,0.0,0.0,0.0,0.0,0.0,0.0,0.0,0.0,0.0,0.0,0.0,0.0,0.0,0.0,0.0,0.0,0.0,0.0,1.9988,2.0753,2.0775,2.1035,2.1535,2.0731,1.9862,1.8936,1.9862,1.9541,0.0,0.0,0.0,0.0,0.0,0.0,0.0,0.0,0.0,0.0,0.0,0.0,0.0,0.0,0.0,0.0,0.0,0.0,0.0,0.0,0.0,0.0,0.0,0.0,0.0,0.0,0.0,0.0,0.0,0.0,0.0,0.0,0.0,0.0,0.0,0.0,0.0,0.0,0.0,0.0,0.0,0.0,2.3119,2.2468,0.0,0.0,0.0,2.1602,2.2747,0.0,0.0,0.0,0.0,0.0,0.0,0.0,0.0,0.0,0.0,0.0,0.0,0.0,0.0,0.0,0.0,0.0,0.0,0.0,0.0,0.0,0.0,0.0,0.0,0.0,0.0,0.0,0.0,0.0,0.0,0.0,0.0,0.0,0.0,0.0,0.0,0.0,0.0,0.0,0.0,0.0,0.0,0.0,0.0,0.0,0.0,0.0,0.0,0.0,0.0,0.0,0.0,0.0,0.0,0.0,0.0,0.0,2.1011,2.0953,2.1193,2.1738,2.0819,1.9657,1.8362,1.9468,0.0,0.0,0.0,0.0,0.0,0.0,0.0,0.0,0.0,0.0,0.0,0.0,0.0,0.0,0.0,0.0,0.0,0.0,0.0,0.0,0.0,0.0,0.0,0.0,0.0,0.0,0.0,2.2453,0.0,0.0,0.0,0.0,0.0,0.0,0.0,0.0,0.0,0.0,0.0,0.0,0.0,0.0,2.1415,2.1214,2.0635,2.0602,0.0,0.0,1.9393,2.083,2.1163,2.085,0.0,0.0,0.0,0.0,0.0,0.0,0.0,0.0,0.0,0.0,0.0,0.0,0.0,0.0,0.0,0.0,0.0,0.0,0.0,0.0,0.0,0.0,0.0,0.0,0.0,0.0,0.0,0.0,0.0,0.0,0.0,0.0,0.0,0.0,0.0,0.0,0.0,0.0,0.0,0.0,0.0,0.0,0.0,0.0,0.0,0.0,0.0,0.0,0.0,0.0,0.0,0.0,0.0,0.0,2.0698,2.2627,2.1513,2.1315,2.2179,2.0962,1.9741,1.8652,2.027,2.0,0.0,0.0,0.0,0.0,0.0,0.0,0.0,0.0,0.0,0.0,0.0,0.0,0.0,0.0,0.0,0.0,0.0,0.0,0.0,0.0,0.0,0.0,0.0,0.0,0.0,0.0,0.0,0.0,0.0,0.0,0.0,0.0,0.0,0.0,0.0,0.0,0.0,0.0,0.0,0.0,0.0,2.0726,2.0279,1.9922,1.9619,0.0,1.8512,1.8168,1.9073,1.9194,1.869,1.7175,0.0,0.0,0.0,0.0,0.0,0.0,0.0,0.0,0.0,0.0,0.0,0.0,0.0,0.0,0.0,0.0,0.0,0.0,0.0,0.0,0.0,0.0,0.0,0.0,0.0,0.0,0.0,0.0,0.0,0.0,0.0,0.0,0.0,0.0,0.0,0.0,0.0,0.0,0.0,0.0,0.0,0.0,0.0,0.0,0.0,0.0,0.0,0.0,0.0,0.0,0.0,0.0,0.0,2.044,2.1896,2.124,2.1234,2.1801,2.1054,2.0206,1.9372,2.062,2.0502,0.0,0.0,0.0,0.0,0.0,0.0,0.0,0.0,0.0,0.0,0.0,0.0,0.0,0.0,0.0,0.0,0.0,0.0,0.0,0.0,0.0,0.0,0.0,0.0,0.0,0.0,0.0,0.0,2.4067,2.3569,2.2692,0.0,0.0,0.0,0.0,0.0,0.0,0.0,0.0,0.0,0.0,1.967,1.8327,1.7629,0.0,0.0,1.5486,1.479,1.5982,1.4644,1.3469,1.3327,1.2942,0.0,0.0,0.0,0.0,0.0,0.0,0.0,0.0,0.0,0.0,0.0,0.0,0.0,0.0,0.0,0.0,0.0,0.0,0.0,0.0,0.0,0.0,0.0,0.0,0.0,0.0,0.0,0.0,0.0,0.0,0.0,0.0,0.0,0.0,0.0,0.0,0.0,0.0,0.0,0.0,0.0,0.0,0.0,0.0,0.0,0.0,0.0,0.0,0.0,0.0,0.0,0.0,2.0667,2.1569,2.1498,2.1491,2.161,2.1275,2.0701,2.0001,2.092,2.0911,0.0,0.0,0.0,0.0,0.0,0.0,0.0,0.0,0.0,0.0,0.0,0.0,0.0,0.0,0.0,0.0,0.0,0.0,0.0,0.0,0.0,0.0,0.0,0.0,0.0,0.0,0.0,0.0,2.3712,2.269,2.1457,0.0,0.0,0.0,0.0,0.0,0.0,0.0,0.0,0.0,0.0,1.8447,1.6769,1.5492,1.4609,1.4332,1.2649,1.1784,1.2999,1.1745,1.0685,1.0953,0.0,0.0,0.0,0.0,0.0,0.0,0.0,0.0,0.0,0.0,0.0,0.0,0.0,0.0,0.0,0.0,0.0,0.0,0.0,0.0,0.0,0.0,0.0,0.0,0.0,0.0,0.0,1.3498,0.0,0.0,1.3815,0.0,0.0,0.0,0.0,0.0,0.0,0.0,0.0,0.0,0.0,0.0,0.0,0.0,0.0,0.0,0.0,0.0,0.0,0.0,0.0,0.0,0.0,2.1609,2.2156,2.2486,2.2352,2.1625,2.1724,2.1275,2.0277,2.1239,2.1216,2.0027,0.0,0.0,0.0,0.0,0.0,0.0,0.0,0.0,0.0,0.0,0.0,0.0,0.0,0.0,0.0,0.0,0.0,0.0,0.0,0.0,0.0,0.0,0.0,0.0,0.0,0.0,2.5191,2.274,2.0585,0.0,0.0,0.0,0.0,0.0,0.0,0.0,0.0,0.0,1.8434,1.7977,1.7107,1.5877,1.3935,1.2357,1.1544,1.0295,0.9622,1.0416,1.1063,1.1306,0.0,0.0,0.0,0.0,0.0,0.0,0.0,0.0,0.0,0.0,0.0,0.0,0.0,0.0,0.0,0.0,0.0,0.0,0.0,0.0,0.0,0.0,0.0,0.0,0.0,0.0,0.0,1.4298,1.4402,0.0,0.0,0.0,0.0,0.0,0.0,0.0,0.0,0.0,0.0,0.0,1.6085,1.674,0.0,0.0,0.0,0.0,0.0,0.0,0.0,0.0,0.0,0.0,0.0,0.0,2.152,2.1698,2.242,2.2265,2.1181,2.1593,2.1547,2.0969,2.15,2.1535,2.1028,0.0,0.0,0.0,0.0,0.0,0.0,0.0,0.0,0.0,0.0,0.0,0.0,0.0,0.0,0.0,0.0,0.0,0.0,0.0,0.0,0.0,0.0,0.0,0.0,0.0,2.5455,0.0,0.0,0.0,0.0,0.0,0.0,0.0,0.0,0.0,0.0,0.0,1.6983,1.615,1.6046,1.5591,1.451,1.334,1.2056,0.0,0.0,0.0,0.0,0.0,0.0,0.0,0.0,0.0,0.0,0.0,0.0,0.0,0.0,0.8177,0.7562,0.4174,0.132,0.132,0.0,0.0,0.0,0.0,0.0,0.0,0.0,0.0,0.0,0.0,0.0,0.0,0.0,0.0,1.5209,1.5275,1.5234,0.0,0.0,0.0,0.0,0.0,0.0,0.0,0.0,1.7252,1.7093,1.6327,1.7177,1.7488,0.0,1.7974,1.835,0.0,0.0,0.0,0.0,0.0,0.0,0.0,0.0,2.2156,2.1762,2.269,2.2546,2.1338,2.169,2.1837,2.1665,2.1853,2.2046,2.2156,2.2815,2.305,0.0,0.0,0.0,0.0,0.0,0.0,0.0,0.0,0.0,0.0,0.0,0.0,0.0,0.0,0.0,0.0,0.0,0.0,0.0,0.0,0.0,0.0,0.0,2.4798,0.0,0.0,0.0,0.0,0.0,0.0,0.0,0.0,0.0,1.5344,1.5918,1.6062,1.531,1.5181,1.4639,1.3181,0.0,0.0,0.0,0.0,0.0,0.0,0.0,0.7083,0.7804,0.7104,0.5746,0.3979,0.5443,0.5434,0.096,0.0,0.0,0.1453,-0.2134,-0.5396,-0.5305,-0.5528,-0.5725,-0.5824,-0.6486,-0.7647,0.0,0.0,0.0,0.0,0.0,0.0,0.0,0.0,1.6732,1.6486,0.0,1.6147,0.0,0.0,0.0,0.0,1.8068,1.8708,0.0,0.0,1.8088,1.7901,1.6959,1.7157,1.7423,1.7774,1.8623,1.9344,1.9825,1.981,0.0,0.0,0.0,0.0,0.0,0.0,2.3513,2.2396,2.3358,2.3243,2.1989,2.2069,2.2196,2.2296,2.2332,2.2665,2.3371,2.3952,2.4462,2.4885,2.5664,0.0,0.0,0.0,0.0,0.0,0.0,0.0,0.0,0.0,0.0,0.0,0.0,0.0,0.0,0.0,0.0,0.0,0.0,0.0,0.0,2.5235,0.0,0.0,0.0,0.0,0.0,0.0,0.0,0.0,0.0,0.0,1.5245,1.5458,1.5617,1.5866,0.0,0.0,0.0,0.0,0.9313,0.8604,0.7946,0.762,0.762,0.817,0.8713,0.873,0.0,0.0,0.3842,0.5192,0.4712,-0.2777,-0.5302,-0.593,-0.1361,-0.4575,-0.7736,-0.7919,-0.8714,-0.9154,-0.9142,-0.8639,-0.8649,1.3221,0.0,0.0,0.0,0.0,1.5279,1.6114,1.7282,1.725,1.7217,1.706,1.7041,0.0,0.0,0.0,0.0,0.0,0.0,1.8601,1.7475,1.7668,1.7451,1.6899,1.7619,1.8152,1.8643,1.9486,2.0226,2.0752,2.0797,2.1016,2.1467,0.0,0.0,0.0,0.0,2.3685,2.2964,2.395,2.3797,2.2443,2.2753,2.2764,2.2328,2.2815,2.319,2.3376,2.4074,2.4479,2.4611,2.5553,0.0,0.0,0.0,0.0,0.0,0.0,0.0,0.0,0.0,0.0,0.0,0.0,0.0,0.0,0.0,0.0,0.0,0.0,0.0,2.384,2.3434,2.271,0.0,0.0,0.0,0.0,0.0,0.0,0.0,0.0,0.0,1.3721,1.4171,1.4358,0.0,0.0,1.2258,1.1189,1.0201,0.9601,0.9577,0.9343,0.0,0.9253,0.893,0.8978,0.9689,1.0398,1.0369,0.8956,0.9429,0.8532,0.411,-0.0773,-0.4532,-0.5724,-1.036,-1.4328,-1.5352,-1.5715,-1.6162,-1.6759,-1.6476,-1.663,1.3702,1.3897,1.3693,1.4546,1.588,1.5961,1.6606,1.7673,1.7675,1.765,1.7639,1.7648,1.748,1.7236,1.7236,0.0,0.0,0.0,1.8334,1.7666,1.7588,1.7382,1.7185,1.7901,1.8509,1.8921,1.9694,2.0355,2.0786,2.1042,2.1186,2.1169,0.0,0.0,2.2985,2.3617,2.3741,2.337,2.3787,2.3638,2.3041,2.3474,2.3412,2.2781,2.3462,2.3968,2.4272,2.4832,2.5207,2.5387,2.6478,2.6458,0.0,0.0,0.0,0.0,0.0,0.0,0.0,0.0,0.0,0.0,0.0,2.558,2.5198,0.0,0.0,0.0,2.5198,2.4804,2.3774,2.379,0.0,0.0,0.0,0.0,0.0,0.0,0.0,1.4273,1.4342,1.4342,1.3883,1.4058,1.3979,1.3175,1.2643,1.2044,1.1027,0.0,1.0152,1.0024,1.0038,1.0038,1.0033,0.9588,0.9474,1.0234,1.0594,1.0378,0.9527,0.9469,0.8143,0.4526,0.0681,-0.3378,-0.7746,-1.1847,-1.533,-1.7732,-1.888,-1.9513,-2.0141,-2.0773,-2.1673,1.4049,1.4744,1.4816,1.5613,1.6917,1.6917,1.7337,1.8061,1.8122,1.8095,1.8046,1.8076,1.8076,1.8076,1.8076,0.0,1.8337,1.7978,1.7852,1.794,1.7784,1.7588,1.7529,1.8076,1.8529,1.8808,1.9584,1.9987,2.0205,2.0903,2.1031,2.0775,2.2187,2.316,2.3551,2.3734,2.3825,2.3891,2.3384,2.3316,2.3771,2.4248,2.4172,2.3545,2.4196,2.4898,2.5558,2.5891,2.6265,2.6691,2.7999,2.7806,2.5929,0.0,0.0,0.0,0.0,0.0,0.0,0.0,0.0,0.0,0.0,0.0,0.0,0.0,0.0,0.0,2.5258,0.0,2.5018,2.5409,0.0,0.0,0.0,1.9825,1.8308,1.6912,1.5763,1.4804,0.0,0.0,1.4963,1.4723,1.4276,1.3664,1.3417,1.279,1.1327,1.1149,1.0895,1.0386,1.0212,1.0212,1.0381,1.0391,1.0539,1.1106,1.0857,1.0063,0.8275,0.7553,0.5426,0.2249,0.039,-0.1552,-0.7889,-0.895,-1.1104,-1.5658,-1.8456,-2.0051,-2.024,-2.1409,-2.3211,1.51,1.6367,1.6367,1.6765,1.7348,1.7348,1.7775,1.8528,1.9064,1.909,1.8761,1.8772,1.8787,1.8787,1.8787,1.8777,1.8854,1.8721,1.8375,1.7784,1.7588,1.7461,1.7314,1.8317,1.8854,1.9044,2.0237,2.0892,2.0967,2.1348,2.1588,2.1639,2.2567,2.3113,2.3267,2.4103,2.4751,2.5214,2.5121,2.515,2.5337,2.5272,2.5029,2.4625,2.5095,2.5423,2.5592,2.5705,2.6044,2.6674,2.7572,2.7828,2.7317,2.7194,0.0,0.0,0.0,0.0,0.0,0.0,0.0,0.0,0.0,2.6259,2.4372,0.0,2.555,0.0,2.5863,2.563,2.3998,2.4256,0.0,0.0,2.1086,2.0433,2.1729,1.8796,1.6766,1.6934,1.5984,1.5211,1.499,1.4903,1.4912,1.4818,1.3825,1.279,1.1929,1.1929,1.202,1.1843,1.1918,1.2083,1.2009,1.225,1.2721,1.3733,1.2802,1.2094,1.239,1.1118,0.9759,0.8416,0.5382,0.2618,0.0867,-0.2112,-0.6334,-1.1005,-1.5717,-1.933,-2.0051,-2.0477,-2.1618,1.5525,1.6872,1.6941,1.7417,1.8112,1.7862,1.8145,1.8782,1.9198,1.9438,1.951,1.95,1.9309,1.9044,1.9044,1.8767,1.8452,1.8519,1.825,1.7706,1.7647,1.7638,1.7852,1.8674,1.9264,1.9507,2.0624,2.1233,2.1233,2.1514,2.1753,2.1939,2.2738,2.328,2.3433,2.3927,2.4532,2.5223,2.5444,2.5725,2.5894,2.5933,2.5782,2.5506,2.5866,2.6148,2.6326,2.6148,2.64,2.7132,2.7572,2.7894,2.8015,2.7964,2.7896,0.0,0.0,0.0,0.0,0.0,0.0,0.0,0.0,0.0,0.0,0.0,2.609,2.598,2.6572,2.6251,2.4505,2.4969,2.4837,2.3557,2.2307,2.1767,2.2332,1.9987,1.8324,1.8224,1.7477,1.689,1.6715,1.6216,1.5894,1.5931,1.4717,1.3662,1.3114,1.3034,1.2863,1.2607,1.2595,1.2674,1.2674,1.2881,1.328,1.3995,1.3841,1.3952,1.521,1.4993,1.4603,1.4735,1.1826,0.8383,0.6406,0.2877,-0.1344,-0.5942,-0.9497,-1.267,-1.5746,-1.4981,-1.4184,1.5848,1.7084,1.7084,1.7803,1.8988,1.8395,1.8504,1.9121,1.926,1.9609,2.0251,2.0264,1.9901,1.9243,1.9177,1.8767,1.8172,1.8192,1.8124,1.7978,1.7969,1.8182,1.8617,1.9183,1.9692,2.0161,2.0896,2.1325,2.1325,2.1741,2.2068,2.2318,2.3167,2.379,2.4067,2.3923,2.4189,2.4878,2.5507,2.5969,2.6271,2.6455,2.6493,2.6341,2.6555,2.6876,2.7255,2.7011,2.716,2.7836,2.8015,2.8201,2.851,2.8934,2.8822,0.0,2.7581,0.0,0.0,0.0,0.0,0.0,0.0,0.0,0.0,2.654,2.6648,2.6681,2.7143,2.6969,2.5828,2.6467,2.6336,2.4559,2.4124,2.3347,2.1826,2.0953,2.0068,1.9063,1.8888,1.8796,1.8664,1.7781,1.7131,1.7077,1.6191,1.5345,1.4936,1.4419,1.3951,1.3269,1.3341,1.384,1.3762,1.3711,1.4071,1.4615,1.5157,1.5942,1.7387,1.7948,1.8592,1.9085,1.7333,1.46,1.0508,0.7983,0.46,-0.0285,-0.1705,-0.3772,-0.8814,-0.8379,-0.477,1.7814,1.8305,1.8296,1.8577,1.8977,1.8854,1.9183,1.9897,2.0475,2.076,2.0882,2.0899,2.0805,2.0677,2.0161,2.0096,2.0409,1.9955,1.9518,1.9198,1.9368,1.9281,1.9187,1.9801,2.0183,2.0302,2.1277,2.1743,2.182,2.3013,2.3867,2.4291,2.5011,2.5419,2.5491,0.0,0.0,0.0,2.7176,2.7806,2.812,2.7447,2.7221,2.7448,2.6978,0.0,2.7657,2.7621,2.7927,2.8731,2.9336,0.0,0.0,0.0,0.0,0.0,0.0,0.0,0.0,0.0,0.0,0.0,2.7584,2.6903,2.5603,2.6078,2.6411,2.6375,2.7201,2.7291,2.6394,2.6808,2.6709,2.5628,2.4975,2.4327,2.3434,2.2013,2.0854,2.0068,1.9338,1.8796,1.888,1.854,1.8569,1.8872,1.8298,1.7919,1.8112,1.682,1.5816,1.5801,1.6265,1.6911,1.7001,1.7671,1.824,1.9359,1.8897,1.8887,1.9747,1.9279,1.8691,1.9118,1.8905,1.8921,1.7722,1.7363,1.4345,0.7578,0.6176,0.401,-0.3342,-0.4286,-0.3276,1.8705,1.9515,1.9088,1.9645,0.0,2.039,2.0907,2.192,2.1319,2.1325,2.1663,2.1663,2.1602,2.1502,2.1167,2.1117,2.1407,2.1007,2.0806,2.0614,2.0586,2.0653,2.0739,2.1185,2.1647,2.2197,2.2912,2.3381,2.364,2.4568,2.5154,2.5458,2.5998,2.6297,2.6348,2.6819,2.7046,2.7093,2.7564,2.7999,2.8339,2.8095,2.7954,2.8055,2.7904,0.0,0.0,0.0,0.0,0.0,0.0,0.0,0.0,0.0,0.0,3.0252,2.9534,2.9178,2.9422,2.8879,2.851,2.8409,2.7953,2.7282,2.647,2.6839,2.7117,2.7056,2.7296,2.7164,2.6574,2.6729,2.6449,2.5502,2.5051,2.4509,2.3464,2.2911,2.211,2.1168,2.0898,2.0619,2.0257,1.9803,1.9875,2.0385,1.9696,1.9329,1.976,1.8413,1.7269,1.7721,1.8204,1.8753,1.9131,1.9645,2.0277,2.0764,2.1081,2.1585,2.2562,2.3048,2.3353,2.3673,2.3178,2.2456,2.236,2.1236,1.8799,1.521,1.4091,1.3063,0.8532,0.5709,0.552,1.9296,2.0319,1.9833,2.0757,2.2423,2.1931,2.2524,2.3709,2.2244,0.0,0.0,2.2474,2.2372,2.2217,2.2217,2.2182,2.2069,2.2149,2.2149,2.2,2.1992,2.2082,2.2366,2.258,2.3195,2.4198,2.4558,2.4998,2.5575,2.5996,2.6301,2.6426,2.6752,2.7081,2.7281,2.7598,2.7832,2.8006,2.7836,2.7931,2.8313,2.8619,2.8739,2.8594,2.8841,2.917,2.9505,2.9255,2.9431,3.0056,2.9657,2.9765,3.0568,3.0411,3.0443,3.0775,3.0277,3.0119,3.0497,2.977,2.9307,2.9154,2.8184,2.767,2.7705,2.7801,2.785,2.7937,2.7591,2.7339,2.7089,2.6864,2.6351,2.5516,2.5189,2.4605,2.3396,2.3647,2.3454,2.2511,2.2608,2.2794,2.2255,2.1516,2.1282,2.1959,2.14,2.0735,2.1281,2.008,1.907,1.975,2.0062,2.0198,2.0861,2.1242,2.1364,2.1989,2.3086,2.4173,2.5294,2.6988,2.8433,2.8524,2.7369,2.6265,2.5824,2.4075,2.1661,2.1053,2.0872,2.0588,1.9562,1.601,1.5396,2.0166,2.0039,2.0612,2.1174,2.1713,2.2286,2.3045,2.3767,2.3506,2.3482,2.3544,2.3556,2.358,2.3508,2.352,2.349,2.3561,2.3989,2.3791,2.3068,2.3778,2.3778,2.3103,2.3398,2.3914,2.4533,2.5062,2.5564,2.6128,2.7092,2.7538,2.759,2.8072,2.8547,2.9027,2.8683,2.8946,2.9935,2.9261,2.9118,2.95,2.9386,2.9503,2.9808,2.931,2.9333,2.9959,2.9766,3.0057,3.0955,3.0963,3.0976,3.1099,3.1094,3.132,3.1914,3.1057,3.1051,3.2207,3.1368,3.0455,2.9857,2.8698,2.7973,2.7815,2.778,2.788,2.8079,2.8417,2.875,2.8636,2.798,2.7487,2.7313,2.6351,2.5464,2.4605,2.469,2.4509,2.4059,2.38,2.381,2.3887,2.3531,2.3404,2.4057,2.3857,2.3709,2.372,2.2387,2.1669,2.2242,2.2478,2.268,2.3227,2.3906,2.4337,2.504,2.5934,2.6614,2.6959,2.8203,2.918,2.9164,2.9334,2.9476,2.9464,2.9399,2.7703,2.5844,2.5004,2.3952,2.1845,2.031,2.1593,2.1997,2.2178,2.2178,2.2706,2.3583,2.3944,2.4525,2.5103,2.513,2.4627,2.3839,2.4079,2.4369,2.4706,2.4971,2.5265,2.554,2.5807,2.5473,2.4888,2.5245,2.522,2.4888,2.499,2.5512,2.6361,2.658,2.6986,2.7536,2.7998,2.8249,2.8249,2.8803,2.9205,2.9508,2.9565,2.9878,3.044,3.0339,3.0339,3.0574,3.0975,3.1133,3.0914,3.119,3.1343,3.1292,3.1556,3.1928,3.2374,3.2374,3.2391,3.2408,3.2309,3.2219,3.1984,3.1505,3.1406,3.1867,3.1016,3.0469,3.0468,2.9073,2.8409,2.8726,2.8274,2.8145,2.8579,2.8624,2.8634,2.8676,2.8373,2.7959,2.7487,2.694,2.6113,2.52,2.5295,2.52,2.4669,2.4413,2.4488,2.4819,2.4478,2.4648,2.5619,2.6208,2.6578,2.6796,2.6122,2.5218,2.4715,2.478,2.5147,2.5523,2.614,2.6652,2.6886,2.7805,2.8642,2.9181,3.0207,3.0995,3.1429,3.1616,3.1834,3.2313,3.1942,3.1175,3.1186,3.0357,2.9278,2.8144,2.8209,2.9119,2.3316,2.3829,2.361,2.4325,2.5652,2.57,2.5938,2.6387,2.6333,2.5672,2.4693,2.4962,2.5398,2.5774,2.62,2.6629,2.7002,2.7095,2.6892,2.6452,2.6527,2.6514,2.6427,2.6422,2.6891,2.7683,2.7789,2.8052,2.8522,2.8587,2.8651,2.883,2.9282,2.9628,2.9922,3.0498,3.0829,3.1116,3.1581,3.1674,3.1405,3.2131,3.2365,3.2091,3.29,3.3119,3.2611,3.3228,3.3533,3.3406,3.3533,3.355,3.3406,3.3305,3.2923,3.2234,3.1999,3.1729,3.1329,3.0616,3.0372,3.0793,2.9484,2.8969,2.9623,2.9052,2.8763,2.9196,2.8913,2.8728,2.8724,2.8505,2.8108,2.7568,2.7499,2.6928,2.5779,2.5957,2.603,2.5253,2.5348,2.5663,2.5808,2.563,2.6047,2.7313,2.839,2.8988,2.9151,2.9207,2.8575,2.7516,2.7086,2.7243,2.7571,2.8079,2.8434,2.8486,2.961,3.0539,3.1375,3.2277,3.3391,3.3897,3.3801,3.3825,3.4471,3.3859,3.3411,3.379,3.3686,3.3849,3.3752,3.4284,3.4823,2.3106,2.3316,2.4397,2.5603,2.6769,2.6772,2.6853,2.693,2.6953,2.6848,2.6688,2.6739,2.6806,2.6828,2.6938,2.6976,2.7108,2.751,2.7443,2.6985,2.7408,2.7395,2.6947,2.6921,2.7275,2.7736,2.7855,2.8118,2.8587,2.8587,2.8881,2.9393,2.9442,3.0133,3.116,3.1347,3.1926,3.2929,3.3454,3.3112,3.1932,3.1929,3.2389,3.322,3.333,3.3372,3.3322,3.3854,3.3922,3.3516,3.3863,3.3922,3.3474,3.3381,3.3436,3.3452,3.2918,3.2337,3.1603,3.0979,3.0656,3.0581,2.9994,2.9715,3.027,3.0066,2.992,2.9995,2.9745,2.9616,2.9537,2.8912,2.8505,2.8347,2.8267,2.7959,2.7174,2.7418,2.7406,2.701,2.7232,2.7718,2.8108,2.8164,2.8469,2.9135,2.968,3.0112,3.0248,3.0655,3.0731,2.9954,2.9307,2.8957,2.9293,2.9942,3.0283,3.0392,3.1917,3.2797,3.3183,3.4141,3.551,3.567,3.5797,3.5891,3.575,3.5274,3.5081,3.5359,3.5278,3.4852,3.563,3.656,3.6799,2.5052,2.5392,2.5963,2.6471,2.6985,2.6982,2.7185,2.7496,2.7445,2.7644,2.7921,2.7921,2.7776,2.751,2.7776,2.7987,2.7973,2.8183,2.7973,2.751,2.7749,2.767,2.7471,2.7446,2.7733,2.8235,2.8262,2.8392,2.8587,2.8587,2.8881,2.9518,2.9875,3.0569,3.148,3.1838,3.2256,3.2734,3.3251,3.3361,3.3242,3.3782,3.4058,3.409,3.4472,3.4489,3.4167,3.4668,3.4922,3.4682,3.4527,3.4375,3.423,3.3925,3.3746,3.3845,3.3691,3.3496,3.3306,3.2222,3.1782,3.2146,3.0992,3.0512,3.1229,3.109,3.0942,3.0969,3.0693,3.0508,3.0419,3.0101,2.9793,2.9303,2.9135,2.8834,2.8051,2.8187,2.8335,2.8426,2.8493,2.8809,2.9459,2.9691,2.9909,3.0469,3.0771,3.0983,3.1394,3.1955,3.228,3.2132,3.1971,3.1599,3.1143,3.1657,3.2132,3.2554,3.3638,3.4575,3.5256,3.5953,3.6971,3.7414,3.7351,3.7623,3.814,3.7582,3.7202,3.7371,3.8031,3.8198,3.8834,3.9174,3.9452,2.6496,2.6973,2.7175,2.731,2.7443,2.7443,2.7669,2.7974,2.8,2.8262,2.8587,2.8587,2.8392,2.8118,2.8457,2.8587,2.8587,2.8587,2.8392,2.8026,2.7996,2.8009,2.8012,2.8009,2.8217,2.856,2.8587,2.8587,2.8587,2.8753,2.917,2.9766,3.045,3.1116,3.1709,3.2231,3.2492,3.2641,3.3145,3.3665,3.4252,3.5131,3.5351,3.4895,3.5334,3.5351,3.4844,3.5334,3.5723,3.591,3.5509,3.5293,3.5364,3.5004,3.4619,3.4345,3.4063,3.397,3.4061,3.2864,3.2359,3.2741,3.1689,3.1261,3.1696,3.1743,3.1609,3.1582,3.1373,3.1061,3.0823,3.0735,3.0406,2.9935,3.0012,2.9781,2.9057,2.9123,2.9356,2.9447,2.9524,2.982,3.0545,3.0983,3.1341,3.1709,3.2001,3.2146,3.269,3.3171,3.3478,3.3561,3.4081,3.3883,3.2654,3.3194,3.3864,3.4262,3.4996,3.6291,3.7065,3.7562,3.83,3.8663,3.8521,3.8575,3.9056,3.897,3.8776,3.98,4.0225,4.0289,4.0347,4.089,4.1217,2.6496,2.704,2.7577,2.8052,2.8522,2.8457,2.8522,2.8536,2.8522,2.8587,2.8587,2.8587,2.8587,2.8522,2.8587,2.8587,2.8587,2.8587,2.8587,2.8522,2.8495,2.8573,2.8587,2.8573,2.8573,2.8587,2.8651,2.8716,2.8702,2.9233,2.9827,3.045,3.1058,3.1709,3.2231,3.2342,3.2641,3.3118,3.3694,3.425,3.4787,3.5337,3.5707,3.5656,3.5605,3.5605,3.5588,3.5605,3.596,3.6688,3.684,3.6891,3.6887,3.6802,3.6234,3.5284,3.4059,3.3317,3.3238,3.261,3.2139,3.2037,3.1974,3.1836,3.1863,3.1743,3.1683,3.1609,3.1596,3.1272,3.0646,3.0469,3.0317,3.0406,3.0872,3.0797,3.0241,3.0482,3.0495,3.0101,3.0482,3.1158,3.179,3.2547,3.2861,3.3143,3.3616,3.4027,3.4081,3.423,3.4365,3.4551,3.4898,3.508,3.4464,3.4827,3.5061,3.5383,3.6367,3.7584,3.7857,3.8293,3.9212,3.9952,4.0019,4.0019,3.9952,3.9834,3.9595,3.9952,4.0199,4.0424,4.122,4.1596,4.1934,2.7523,2.8052,2.8249,2.8379,2.8587,2.8587,2.8587,2.8587,2.8587,2.8587,2.8587,2.8587,2.8587,2.8587,2.8587,2.8587,2.8587,2.8587,2.8587,2.8587,2.8587,2.8587,2.8587,2.8587,2.8587,2.8651,2.9008,2.9407,2.9794,3.0025,3.045,3.1058,3.1364,3.1823,3.2287,3.2398,3.2693,3.3357,3.4217,3.5029,3.5707,3.6616,3.7077,3.7026,3.6113,3.5859,3.6349,3.6497,3.6869,3.7466,3.7412,3.7285,3.7085,3.6804,3.6278,3.5537,3.537,3.5273,3.5138,3.4112,3.3457,3.3394,3.2574,3.2109,3.2109,3.2036,3.1963,3.1963,3.1963,3.179,3.1556,3.1259,3.1035,3.1123,3.136,3.1434,3.1272,3.136,3.1434,3.1334,3.1896,3.2662,3.3227,3.3699,3.3891,3.3905,3.4177,3.4485,3.4904,3.523,3.5616,3.6121,3.6765,3.7188,3.7081,3.6796,3.6843,3.7156,3.7857,3.8657,3.9159,3.9423,4.022,4.0368,4.0758,4.0866,4.0577,4.0703,4.0511,4.081,4.0961,4.1156,4.1966,4.2377,4.2705,2.8249,2.8587,2.8587,2.8587,2.8587,2.8587,2.8587,2.8587,2.8587,2.8587,2.8587,2.8587,2.8587,2.8651,2.883,2.8766,2.8651,2.8766,2.8881,2.8881,2.9135,2.9198,2.9198,2.9212,2.9071,2.8944,2.9107,2.9693,3.0495,3.0754,3.1292,3.2123,3.2357,3.2646,3.3059,3.3284,3.3643,3.421,3.5166,3.6032,3.6577,3.7369,3.7922,3.777,3.6891,3.6586,3.7127,3.7441,3.7797,3.8145,3.8053,3.7713,3.7204,3.6724,3.625,3.5922,3.6013,3.6022,3.5672,3.4647,3.3822,3.3644,3.2775,3.2169,3.2169,3.2169,3.2169,3.2169,3.2169,3.2169,3.2182,3.1963,3.1817,3.1817,3.195,3.2069,3.2141,3.2503,3.269,3.2761,3.3157,3.3768,3.4245,3.4499,3.4647,3.4647,3.4846,3.5275,3.5869,3.6322,3.6888,3.7419,3.7873,3.8149,3.823,3.8044,3.8003,3.8325,3.8809,3.9664,4.0169,4.0514,4.0741,4.0901,4.1024,4.1128,4.1293,4.1428,4.1674,4.1973,4.1961,4.1955,4.2589,4.3139,4.3302,2.8587,2.8587,2.8587,2.8587,2.8587,2.8651,2.8651,2.8587,2.8651,2.8688,2.8712,2.8638,2.8702,2.883,2.9282,2.9233,2.8944,2.9477,2.9693,2.9617,3.0097,3.0444,3.0517,3.0499,3.0301,2.9826,2.9077,2.9572,3.0954,3.1496,3.2313,3.3396,3.3966,3.414,3.4457,3.4763,3.5196,3.5459,3.6312,3.7001,3.7203,3.7767,3.8125,3.8075,3.7939,3.7939,3.7973,3.834,3.8645,3.8971,3.8925,3.8433,3.753,3.6964,3.6554,3.6384,3.5864,3.519,3.4528,3.3905,3.3311,3.2775,3.2386,3.2372,3.2241,3.2241,3.2241,3.2169,3.2169,3.2169,3.2169,3.2169,3.2096,3.2255,3.2417,3.2747,3.3157,3.3768,3.4245,3.4245,3.4312,3.4298,3.4499,3.5094,3.5514,3.5642,3.6039,3.6677,3.7175,3.7488,3.7722,3.8222,3.8652,3.8941,3.9032,3.9123,3.9176,3.9318,3.9851,4.0477,4.0763,4.1047,4.1202,4.1356,4.1463,4.1604,4.1803,4.1931,4.1913,4.2162,4.2289,4.2526,4.2959,4.3406,4.3675,2.8587,2.8587,2.8587,2.8587,2.8651,2.9044,2.8994,2.8651,2.9058,2.9205,2.9204,2.9247,2.9484,2.9856,3.0086,3.0086,3.0007,3.0991,3.1101,3.0446,3.0557,3.1085,3.1729,3.1864,3.2017,3.2188,3.2079,3.2414,3.3095,3.3397,3.3847,3.4178,3.4432,3.446,3.458,3.4709,3.4996,3.5564,3.6644,3.7453,3.7965,3.889,3.9394,3.9394,3.9411,3.9411,3.9377,3.9088,3.9172,3.9681,3.975,3.9179,3.8206,3.7838,3.7326,3.66,3.6289,3.6085,3.5816,3.5124,3.4312,3.3796,3.3659,3.3115,3.2444,3.266,3.2646,3.2314,3.2169,3.2169,3.2169,3.2169,3.2241,3.2169,3.23,3.2761,3.3367,3.3973,3.4514,3.4978,3.5059,3.527,3.5785,3.6368,3.6707,3.6768,3.7251,3.7911,3.8423,3.8479,3.892,3.9523,3.9662,3.9766,4.0035,4.0167,4.0283,4.0394,4.0839,4.1115,4.1358,4.1552,4.17,4.1821,4.1906,4.2092,4.2279,4.24,4.2382,4.2444,4.2678,4.2941,4.3231,4.3508,4.3823,2.8587,2.8587,2.8587,2.8587,2.8651,2.9058,2.8955,2.8705,2.9247,2.9506,2.9565,2.9807,3.0072,3.0568,3.1011,3.1114,3.1006,3.2273,3.2566,3.2092,3.2013,3.2514,3.3164,3.293,3.3055,3.3363,3.324,3.3636,3.4455,3.4515,3.4773,3.5183,3.523,3.5424,3.5615,3.5833,3.6243,3.6921,3.7834,3.855,3.902,3.9696,4.0087,4.007,4.007,4.0087,4.0037,3.9463,3.9277,3.9664,3.9592,3.8957,3.8084,3.8136,3.8003,3.7388,3.6971,3.675,3.642,3.5694,3.5258,3.4738,3.4387,3.3916,3.3193,3.3251,3.2836,3.2341,3.2444,3.2574,3.2646,3.2846,3.2988,3.2974,3.3044,3.3437,3.4245,3.4861,3.5434,3.5961,3.615,3.6477,3.7087,3.7385,3.7738,3.778,3.8067,3.8518,3.8974,3.9135,3.9644,4.007,4.0171,4.0449,4.1059,4.1258,4.1366,4.1525,4.1785,4.1913,4.2038,4.2121,4.2262,4.2198,4.2257,4.2356,4.2595,4.2732,4.2808,4.294,4.3014,4.3123,4.3355,4.366,4.3968,2.8651,2.8716,2.8651,2.8702,2.883,2.8944,2.9053,2.8956,2.9534,2.9907,3.0053,3.064,3.0862,3.1115,3.2184,3.2333,3.2012,3.3063,3.3938,3.4209,3.438,3.4559,3.456,3.4121,3.3999,3.3862,3.3384,3.3621,3.4785,3.4816,3.5258,3.6199,3.6276,3.6723,3.7093,3.7905,3.8149,3.8679,3.9508,3.98,3.985,4.0054,4.0155,4.0189,4.0223,4.029,4.0341,3.9859,3.9322,3.9115,3.8766,3.8343,3.78,3.8128,3.8491,3.8262,3.7856,3.7345,3.6592,3.629,3.5762,3.5531,3.5105,3.424,3.4242,3.3898,3.3401,3.2715,3.2974,3.3297,3.3367,3.3768,3.4109,3.4312,3.4245,3.4846,3.6085,3.6289,3.6461,3.6982,3.7342,3.7562,3.7969,3.8181,3.8351,3.8407,3.8446,3.8903,3.9189,3.9523,3.9747,4.0104,4.0597,4.1157,4.17,4.1613,4.176,4.2302,4.248,4.244,4.2598,4.2675,4.2714,4.2693,4.2616,4.2729,4.2806,4.2995,4.3069,4.3105,4.316,4.3286,4.3545,4.3873,4.414,2.9135,2.9917,2.947,2.9532,3.0025,3.0524,3.0704,3.084,3.1404,3.1856,3.2333,3.2646,3.2916,3.3454,3.3709,3.389,3.3908,3.4516,3.5003,3.5309,3.5753,3.5938,3.5968,3.5815,3.5645,3.5568,3.5305,3.5658,3.5936,3.5936,3.612,3.6476,3.6584,3.6831,3.7358,3.7685,3.7969,3.8535,3.9152,3.9504,3.9556,3.9969,4.0358,4.0882,4.0916,4.117,4.1557,4.1143,3.9995,3.8704,3.8943,3.8723,3.8283,3.8746,3.8999,3.8603,3.8361,3.8181,3.7923,3.7689,3.7425,3.6977,3.6909,3.6663,3.516,3.5339,3.4882,3.4131,3.3973,3.4041,3.4027,3.423,3.4581,3.4993,3.5124,3.532,3.5737,3.6148,3.6616,3.6785,3.7194,3.7519,3.7911,3.8463,3.8957,3.9028,3.9242,3.9558,3.9731,4.0103,4.0351,4.0767,4.1276,4.1864,4.2198,4.2015,4.2203,4.2921,4.305,4.2808,4.3014,4.3196,4.3232,4.325,4.3087,4.3142,4.316,4.3214,4.3251,4.3214,4.3391,4.3545,4.3873,4.4199,4.4374,3.0239,3.0884,3.0807,3.0984,3.1384,3.1749,3.1924,3.2046,3.2659,3.3126,3.3472,3.3819,3.4149,3.4491,3.4768,3.4891,3.4983,3.5599,3.5891,3.5953,3.6276,3.643,3.6461,3.6492,3.6492,3.6492,3.6492,3.6476,3.6538,3.6769,3.6907,3.7015,3.72,3.7795,3.8722,3.8355,3.8633,3.9435,3.9884,4.006,4.006,4.0693,4.1187,4.161,4.166,4.1844,4.1896,4.1583,4.0573,3.9328,3.9355,3.9461,3.8934,3.944,3.9612,3.9287,3.9122,3.8939,3.8877,3.8708,3.8448,3.8205,3.8278,3.7413,3.6399,3.6147,3.5336,3.4496,3.4595,3.4714,3.478,3.4993,3.5385,3.58,3.6102,3.6102,3.5928,3.6289,3.6708,3.7163,3.7562,3.8026,3.8407,3.9135,3.947,3.9627,3.9799,3.9969,4.0121,4.0563,4.0938,4.1303,4.17,4.218,4.2537,4.248,4.2541,4.3214,4.3339,4.3178,4.325,4.3479,4.3479,4.3444,4.3479,4.3444,4.3393,4.334,4.3269,4.3322,4.3563,4.3777,4.403,4.4374,4.4587,3.1646,3.1874,3.2368,3.2679,3.2683,3.2713,3.2835,3.2946,3.3547,3.3817,3.4074,3.4514,3.4816,3.4781,3.5399,3.5584,3.5614,3.6138,3.6353,3.6415,3.6492,3.6492,3.6492,3.6492,3.6492,3.6522,3.6538,3.6645,3.6908,3.7355,3.7697,3.7932,3.8397,3.9314,3.9973,3.9778,4.0193,4.0973,4.1148,4.1201,4.1268,4.1762,4.2117,4.2388,4.2642,4.2479,4.22,4.1853,4.1321,4.0034,4.0321,4.0107,3.9723,4.0134,4.0352,4.0285,3.9869,3.9616,3.9554,3.917,3.8954,3.9143,3.8273,3.7481,3.7158,3.6395,3.5554,3.4905,3.519,3.5464,3.5593,3.607,3.6289,3.6414,3.6937,3.7074,3.6785,3.6662,3.7118,3.8124,3.8294,3.8957,3.9575,4.007,4.007,3.985,4.007,4.0154,4.0434,4.0861,4.1213,4.1508,4.1955,4.2382,4.2693,4.2957,4.3087,4.341,4.3444,4.3375,4.3356,4.3479,4.3479,4.3479,4.3479,4.3463,4.3428,4.3376,4.334,4.3393,4.3597,4.3758,4.3962,4.4393,4.47,3.2441,3.3817,3.3441,3.3577,3.403,3.4089,3.4331,3.4858,3.4986,3.5294,3.5784,3.5984,3.5999,3.6014,3.6122,3.6276,3.6215,3.6415,3.6492,3.6492,3.6492,3.6492,3.6554,3.6631,3.6585,3.663,3.7061,3.7261,3.7494,3.8387,3.9062,3.911,3.9782,4.0432,4.1033,4.1082,4.1294,4.1943,4.2066,4.2102,4.2136,4.2339,4.2729,4.3149,4.3745,4.4012,4.3968,4.3912,4.3521,4.268,4.1792,4.118,4.0642,4.0877,4.0946,4.0608,4.0384,4.0278,4.0247,4.0047,3.9878,3.9425,3.9051,3.8632,3.7689,3.7231,3.666,3.6285,3.6258,3.6211,3.6321,3.6414,3.66,3.6785,3.7178,3.746,3.7358,3.7637,3.7953,3.8294,3.8739,3.9135,3.9401,3.9901,4.002,4.007,4.0221,4.0353,4.0689,4.1122,4.1525,4.1871,4.2462,4.2884,4.2976,4.3178,4.3286,4.3444,4.3479,4.3479,4.3479,4.3548,4.3582,4.3548,4.3479,4.3479,4.3582,4.3532,4.3532,4.3582,4.3679,4.3931,4.4231,4.4584,4.4833,3.398,3.4924,3.4881,3.5095,3.5414,3.543,3.5598,3.5935,3.5952,3.6153,3.643,3.6492,3.6492,3.6492,3.6492,3.6492,3.6492,3.6538,3.6677,3.68,3.6937,3.7103,3.7301,3.7642,3.7815,3.7203,3.7292,3.7615,3.824,3.9298,4.004,4.0229,4.1116,4.2009,4.2442,4.2282,4.2467,4.2935,4.3042,4.3042,4.3059,4.3416,4.3671,4.4096,4.4555,4.4793,4.4725,4.4742,4.4558,4.4142,4.3497,4.2561,4.1612,4.1484,4.1311,4.1024,4.0662,4.0524,4.0509,4.0216,3.9878,3.9591,3.9051,3.8392,3.776,3.7435,3.7142,3.6832,3.6739,3.68,3.7103,3.7385,3.7385,3.7562,3.7953,3.8294,3.8311,3.8294,3.8446,3.8684,3.8974,3.9312,3.9644,3.9952,4.0054,4.0171,4.0271,4.0434,4.0844,4.1331,4.1955,4.2382,4.3014,4.3358,4.3375,4.341,4.341,4.3479,4.3479,4.3479,4.3479,4.3582,4.3682,4.3649,4.3597,4.3795,4.386,4.3795,4.3828,4.3949,4.4114,4.4289,4.4511,4.4833,4.5019,3.5569,3.5691,3.6261,3.6492,3.6492,3.6445,3.643,3.6476,3.6554,3.6492,3.6538,3.6554,3.6616,3.6616,3.6708,3.6708,3.6937,3.7027,3.7282,3.7417,3.7663,3.7822,3.8065,3.8689,3.9039,3.8028,3.8419,3.8763,3.9503,4.042,4.1442,4.1494,4.2545,4.3406,4.386,4.3614,4.35,4.3931,4.3985,4.3985,4.409,4.4551,4.4807,4.4875,4.4927,4.4995,4.4995,4.4995,4.4995,4.4995,4.4995,4.4243,4.3196,4.2269,4.1706,4.1625,4.095,4.0572,4.026,3.9874,3.9442,3.9513,3.8536,3.7903,3.7717,3.748,3.732,3.7285,3.7342,3.746,3.7748,3.8092,3.839,3.8557,3.9049,3.9348,3.9242,3.8849,3.9065,3.9242,3.9418,3.9644,3.9952,4.0254,4.0254,4.0254,4.0402,4.0659,4.115,4.1621,4.2244,4.2714,4.3232,4.3582,4.3649,4.3513,4.3548,4.3649,4.3615,4.3548,4.3548,4.3682,4.3814,4.3763,4.3777,4.3999,4.4132,4.4102,4.4143,4.4346,4.4484,4.4591,4.4789,4.5065,4.5173,3.5776,3.6338,3.6445,3.6492,3.6492,3.6492,3.66,3.6631,3.6693,3.6739,3.6862,3.6877,3.6877,3.7044,3.7385,3.7806,3.8092,3.8133,3.8262,3.8334,3.8446,3.8463,3.8802,3.9591,3.9845,4.0329,4.0751,4.1232,4.1569,4.2739,4.3013,4.3473,4.4142,4.4669,4.4708,4.4715,4.4562,4.4707,4.4724,4.4741,4.481,4.4912,4.5049,4.5049,4.5049,4.5032,4.5049,4.5049,4.4995,4.4995,4.4995,4.4852,4.4429,4.3806,4.3026,4.2059,4.1294,4.0783,4.0235,3.9557,3.8885,3.8433,3.8138,3.8023,3.7987,3.7833,3.7911,3.8165,3.8262,3.8262,3.7863,3.8486,3.869,3.887,3.9209,3.961,3.9662,3.9765,3.9885,3.9901,3.9969,3.9969,4.0221,4.0451,4.0531,4.0689,4.0908,4.1366,4.1955,4.2302,4.2693,4.3069,4.3393,4.3649,4.386,4.3716,4.3649,4.3828,4.3828,4.3646,4.373,4.3846,4.391,4.3905,4.4042,4.4231,4.4318,4.4374,4.4457,4.4591,4.472,4.4819,4.4976,4.5151,4.5235,3.6148,3.6476,3.6554,3.66,3.6616,3.6754,3.677,3.6863,3.6862,3.6921,3.6951,3.6997,3.7165,3.7401,3.7663,3.8133,3.869,3.8799,3.8854,3.8941,3.9156,3.9565,3.9984,4.0809,4.1745,4.2576,4.3339,4.3165,4.267,4.3498,4.4078,4.4266,4.4835,4.5211,4.5211,4.5194,4.5211,4.5194,4.5194,4.5211,4.5211,4.5211,4.5211,4.5211,4.5211,4.5194,4.5194,4.5211,4.5211,4.5211,4.5211,4.5194,4.5086,4.4783,4.4024,4.2621,4.178,4.1103,4.0398,3.979,3.9305,3.906,3.8665,3.8527,3.852,3.8518,3.8557,3.8596,3.8832,3.8778,3.8613,3.9209,3.9645,3.9749,3.9986,4.0104,4.0154,4.0353,4.037,4.032,4.032,4.032,4.032,4.0597,4.0802,4.1094,4.1437,4.1997,4.2711,4.2882,4.3032,4.3286,4.3566,4.3814,4.4017,4.3949,4.3886,4.4042,4.406,4.3918,4.3962,4.4132,4.4162,4.4162,4.4318,4.4484,4.4643,4.4701,4.4789,4.4857,4.4976,4.5087,4.5109,4.5194,4.5298,3.6554,3.6616,3.6723,3.6785,3.6785,3.6938,3.6986,3.7018,3.7001,3.7128,3.7234,3.7322,3.7594,3.801,3.8318,3.869,3.9282,3.9335,3.9556,3.9947,4.0222,4.0765,4.1682,4.2689,4.346,4.3802,4.4643,4.4691,4.3937,4.4232,4.4434,4.4635,4.5177,4.5441,4.5388,4.5371,4.5441,4.5441,4.5441,4.5441,4.5441,4.5441,4.5441,4.5441,4.5441,4.5371,4.5371,4.5371,4.5388,4.5388,4.5388,4.5388,4.5406,4.5285,4.4487,4.3086,4.2268,4.1511,4.0672,3.9927,3.9486,3.9444,3.9183,3.9061,3.9156,3.9209,3.9156,3.8832,3.8957,3.9279,3.9385,4.0154,4.0583,4.0631,4.0631,4.0697,4.0583,4.0614,4.0614,4.0614,4.0614,4.0693,4.0772,4.1276,4.1656,4.1871,4.2203,4.2444,4.3014,4.3069,4.3232,4.3461,4.3716,4.3942,4.4121,4.426,4.427,4.4383,4.4346,4.4202,4.4299,4.4465,4.4438,4.4411,4.4546,4.4701,4.4891,4.5026,4.5065,4.5129,4.5275,4.5317,4.5277,4.5279,4.5341,3.68,3.6938,3.6954,3.6938,3.6999,3.706,3.7138,3.7232,3.7272,3.7588,3.8101,3.8172,3.8463,3.8957,3.9525,4.0053,4.0451,4.062,4.0844,4.1287,4.1507,4.1953,4.274,4.3459,4.3924,4.4389,4.4938,4.5196,4.4944,4.5052,4.5177,4.5247,4.5247,4.5441,4.5441,4.5441,4.5441,4.5441,4.5441,4.5441,4.5441,4.5441,4.5441,4.5441,4.5441,4.5441,4.5441,4.5441,4.5441,4.5441,4.5441,4.5441,4.5337,4.4751,4.4078,4.3254,4.2515,4.1695,4.0508,3.9856,3.9545,3.9615,3.9362,3.9454,3.9697,3.9783,3.9749,3.9851,3.9851,3.98,3.9902,4.0434,4.0776,4.0888,4.084,4.084,4.0823,4.0728,4.0776,4.0931,4.1024,4.1174,4.1276,4.1955,4.2519,4.277,4.2939,4.3124,4.3232,4.3304,4.3304,4.3513,4.3841,4.4121,4.4327,4.4457,4.4617,4.4745,4.4669,4.4538,4.4624,4.4726,4.4676,4.4676,4.4819,4.4891,4.4981,4.5132,4.5256,4.5317,4.5338,4.5359,4.5398,4.5419,4.5419,3.6968,3.7076,3.7449,3.761,3.7669,3.8042,3.829,3.8344,3.835,3.8492,3.876,3.8821,3.9119,3.9697,4.0237,4.0662,4.0974,4.1302,4.1647,4.2161,4.2457,4.3009,4.3631,4.4027,4.4268,4.4819,4.5111,4.5336,4.5371,4.5441,4.5441,4.5441,4.5441,4.5441,4.5441,4.5441,4.5441,4.5441,4.5441,4.5441,4.5441,4.5441,4.5441,4.5441,4.5441,4.5441,4.5441,4.5441,4.5441,4.5441,4.5441,4.5441,4.5251,4.4699,4.3958,4.3251,4.2499,4.1648,4.0747,4.0324,4.0138,4.0137,4.0137,4.0286,4.0434,4.017,4.002,4.0003,4.0003,4.002,4.012,4.0549,4.0758,4.0871,4.0871,4.0871,4.0871,4.0871,4.0918,4.1163,4.1418,4.1604,4.1785,4.218,4.2655,4.2902,4.3014,4.3142,4.3286,4.341,4.3444,4.3479,4.3855,4.426,4.4484,4.4669,4.4929,4.5065,4.5045,4.4976,4.4953,4.4976,4.4934,4.4957,4.5068,4.5132,4.5132,4.5194,4.5338,4.5359,4.538,4.54,4.5438,4.5458,4.5476,3.7433,3.7389,3.7927,3.8157,3.8214,3.892,3.9144,3.9162,3.915,3.9246,3.9406,3.956,3.9868,4.022,4.068,4.0991,4.1233,4.1733,4.2233,4.2662,4.3195,4.3869,4.4337,4.4682,4.4854,4.5441,4.5336,4.5371,4.5371,4.5441,4.5441,4.5441,4.5441,4.5441,4.5441,4.5441,4.5441,4.5441,4.5441,4.5441,4.5441,4.5441,4.5441,4.5441,4.5441,4.5441,4.5441,4.5441,4.5441,4.5441,4.5441,4.5441,4.5303,4.4458,4.3751,4.3076,4.2305,4.1478,4.0968,4.0793,4.0871,4.0871,4.0871,4.0758,4.0758,4.0385,4.017,4.0286,4.0053,4.012,4.0286,4.071,4.0823,4.0871,4.0871,4.0871,4.0918,4.0965,4.1088,4.1328,4.1666,4.2133,4.2279,4.248,4.2732,4.2976,4.3105,4.3196,4.3339,4.3479,4.3479,4.3479,4.3809,4.4231,4.4493,4.4745,4.5065,4.5297,4.5297,4.5256,4.5173,4.5173,4.5173,4.5256,4.5298,4.5317,4.5277,4.5338,4.5418,4.54,4.54,4.5419,4.5457,4.5495,4.5531,3.8222,3.8238,3.8294,3.8334,3.8407,3.892,3.9196,3.937,3.9262,3.958,3.9993,4.0456,4.0662,4.084,4.0961,4.1319,4.1871,4.1957,4.2819,4.3698,4.425,4.4613,4.4975,4.5199,4.5285,4.5406,4.5441,4.5441,4.5441,4.5441,4.5441,4.5441,4.5441,4.5441,4.5441,4.5441,4.5441,4.5441,4.5441,4.5441,4.5441,4.5441,4.5441,4.5441,4.5441,4.5441,4.5441,4.5441,4.5441,4.5441,4.5441,4.5441,4.5216,4.413,4.3388,4.3024,4.1902,4.1198,4.1043,4.0957,4.0905,4.0888,4.094,4.1043,4.1078,4.0436,4.0336,4.0614,4.0385,4.0368,4.0597,4.0871,4.0871,4.0995,4.1041,4.1041,4.1088,4.1134,4.13,4.149,4.1906,4.2378,4.2711,4.2864,4.2995,4.3214,4.325,4.3375,4.3375,4.3479,4.3479,4.3548,4.3814,4.4121,4.4383,4.4669,4.5,4.5194,4.5277,4.5277,4.5256,4.5277,4.5317,4.5319,4.5319,4.5379,4.5418,4.5438,4.5438,4.5419,4.5438,4.5476,4.5495,4.555,4.5568,3.8278,3.8334,3.9032,3.9351,3.942,3.9969,4.0252,4.0234,4.0252,4.0317,4.0582,4.0784,4.0871,4.1009,4.1423,4.1681,4.2112,4.3061,4.3699,4.4251,4.4734,4.5113,4.5423,4.5441,4.5423,4.5441,4.5441,4.5441,4.5441,4.5441,4.5441,4.5441,4.5423,4.5441,4.5441,4.5441,4.5441,4.5441,4.5441,4.5441,4.5441,4.5441,4.5441,4.5441,4.5441,4.5441,4.5441,4.5441,4.5441,4.5441,4.5423,4.5441,4.5216,4.3958,4.337,4.3111,4.1833,4.1285,4.1405,4.125,4.1078,4.1526,4.1578,4.1526,4.1457,4.0971,4.0714,4.071,4.071,4.0693,4.0806,4.0918,4.0965,4.1163,4.13,4.13,4.1346,4.1418,4.1552,4.1839,4.2239,4.2711,4.2957,4.3232,4.3339,4.3479,4.3479,4.3479,4.3479,4.3479,4.3479,4.3513,4.3749,4.4048,4.4289,4.4599,4.4891,4.5068,4.5256,4.5297,4.5317,4.5357,4.5378,4.5379,4.538,4.5419,4.5458,4.5477,4.5477,4.5476,4.5495,4.555,4.5587,4.5605,4.5605,3.9175,3.927,4.0171,4.0357,4.0137,4.0645,4.0871,4.0871,4.0871,4.1043,4.1216,4.1405,4.1561,4.1733,4.2061,4.2561,4.2957,4.3699,4.4268,4.4751,4.513,4.5406,4.5441,4.5441,4.5441,4.5441,4.5441,4.5441,4.5441,4.5441,4.5423,4.5423,4.5423,4.5441,4.5441,4.5441,4.5441,4.5441,4.5441,4.5441,4.5441,4.5581,4.5667,4.5718,4.5854,4.5938,4.5905,4.5871,4.5753,4.5632,4.5511,4.5423,4.4923,4.4234,4.3457,4.2906,4.2302,4.163,4.2006,4.2058,4.185,4.2285,4.2337,4.2216,4.1971,4.1557,4.135,4.0935,4.0982,4.1012,4.1088,4.1209,4.1373,4.1622,4.1709,4.1753,4.1796,4.1864,4.1966,4.2133,4.2537,4.292,4.3142,4.3375,4.341,4.3479,4.3479,4.3479,4.3479,4.3479,4.3479,4.3548,4.3649,4.3936,4.4202,4.4465,4.4701,4.4957,4.5132,4.5297,4.5357,4.5398,4.5399,4.54,4.54,4.5457,4.5495,4.5514,4.5532,4.5513,4.5568,4.5605,4.5605,4.5586,4.5586,4.1159,4.1222,4.1694,4.1233,4.0323,4.0662,4.0905,4.1026,4.1095,4.1423,4.2026,4.2662,4.2973,4.3007,4.3059,4.3388,4.3854,4.4234,4.4665,4.5182,4.532,4.5423,4.5441,4.5441,4.5441,4.5441,4.5441,4.5441,4.5441,4.5423,4.5459,4.5528,4.5476,4.5476,4.5441,4.5423,4.5423,4.5423,4.5476,4.5528,4.5701,4.6038,4.6137,4.6249,4.6459,4.6584,4.6507,4.6315,4.6168,4.6137,4.5751,4.5615,4.539,4.4213,4.3731,4.394,4.2783,4.2489,4.3076,4.3128,4.3214,4.3247,4.3212,4.2953,4.2317,4.1985,4.1734,4.1197,4.1134,4.1328,4.149,4.1666,4.1881,4.2092,4.2175,4.2216,4.2239,4.24,4.2519,4.2537,4.275,4.3032,4.3304,4.3479,4.3479,4.3479,4.3479,4.3479,4.3479,4.3479,4.3479,4.3513,4.3615,4.3795,4.4072,4.4289,4.4519,4.4795,4.5068,4.5277,4.5379,4.5419,4.5419,4.5419,4.5457,4.5513,4.555,4.555,4.5568,4.5568,4.5586,4.5586,4.5586,4.5586,4.5586,4.1977,4.1985,4.255,4.2563,4.2018,4.1237,4.1164,4.1667,4.2184,4.2563,4.2785,4.3162,4.3232,4.3335,4.3716,4.4061,4.432,4.4941,4.532,4.5372,4.5441,4.5441,4.5441,4.5441,4.5441,4.5441,4.5441,4.5441,4.5441,4.5476,4.5511,4.5581,4.5632,4.5615,4.5581,4.5615,4.5752,4.6052,4.6119,4.6217,4.6548,4.666,4.6707,4.6746,4.6936,4.6999,4.6981,4.6763,4.6624,4.666,4.6257,4.6046,4.583,4.4768,4.4344,4.4333,4.335,4.3363,4.4089,4.4503,4.4659,4.4416,4.4106,4.3776,4.3117,4.2427,4.1886,4.1453,4.1363,4.1534,4.1622,4.1906,4.2175,4.2537,4.2673,4.2673,4.275,4.2976,4.3124,4.2976,4.3069,4.3214,4.3444,4.3479,4.3479,4.3479,4.3479,4.3513,4.3548,4.3532,4.3497,4.3479,4.3548,4.3716,4.3936,4.4231,4.4493,4.4751,4.5068,4.5339,4.5419,4.5458,4.5458,4.5476,4.5513,4.5568,4.5568,4.5568,4.5586,4.5586,4.5586,4.5586,4.5586,4.5586,4.5586,4.3039,4.303,4.3442,4.3456,4.3093,4.2144,4.2009,4.2528,4.3219,4.3597,4.363,4.382,4.3992,4.4147,4.4406,4.4665,4.4734,4.5147,4.5371,4.5441,4.5441,4.5441,4.5441,4.5441,4.5441,4.5441,4.5423,4.5423,4.5476,4.5581,4.5632,4.5736,4.5838,4.5821,4.5871,4.5955,4.6151,4.6406,4.6519,4.6781,4.7035,4.7212,4.7255,4.7324,4.747,4.753,4.7428,4.7306,4.714,4.715,4.7017,4.672,4.6318,4.5646,4.5137,4.4791,4.4508,4.4487,4.4956,4.5284,4.5284,4.5142,4.5072,4.455,4.3767,4.301,4.2312,4.1838,4.1648,4.1864,4.2115,4.236,4.2655,4.3032,4.3105,4.3105,4.3105,4.3375,4.341,4.325,4.3214,4.341,4.3479,4.3479,4.3479,4.3479,4.3479,4.3548,4.3615,4.3649,4.3664,4.3679,4.3697,4.386,4.406,4.426,4.4519,4.4751,4.5071,4.54,4.5458,4.5477,4.5514,4.555,4.5568,4.5586,4.5586,4.5586,4.5603,4.5586,4.5586,4.5586,4.5586,4.5603,4.5603,4.4446,4.4354,4.432,4.3923,4.337,4.3251,4.3233,4.3302,4.401,4.4319,4.4354,4.501,4.5147,4.5285,4.5372,4.532,4.5303,4.5389,4.5423,4.5441,4.5441,4.5441,4.5423,4.5476,4.5476,4.5476,4.5476,4.5615,4.5632,4.5684,4.5736,4.5922,4.6204,4.6235,4.6315,4.6584,4.6689,4.6873,4.708,4.7342,4.7578,4.7761,4.786,4.798,4.8117,4.8251,4.8267,4.8184,4.8046,4.7943,4.779,4.7461,4.6847,4.5868,4.59,4.5758,4.5459,4.5459,4.5477,4.5649,4.5786,4.5728,4.566,4.4896,4.3959,4.3258,4.2636,4.215,4.1906,4.24,4.277,4.3032,4.3267,4.3391,4.3513,4.3479,4.3463,4.3497,4.3497,4.3444,4.3444,4.3479,4.3532,4.3532,4.3532,4.3513,4.3582,4.373,4.3795,4.3873,4.3918,4.4053,4.4053,4.406,4.4221,4.4457,4.4624,4.4872,4.514,4.5438,4.5476,4.5532,4.555,4.5568,4.5586,4.5586,4.5586,4.5603,4.5603,4.5603,4.5603,4.564,4.564,4.5657,4.5673,4.4629,4.5079,4.5096,4.4975,4.4803,4.4785,4.4458,4.413,4.4785,4.5078,4.5113,4.532,4.5423,4.5441,4.5423,4.5441,4.5441,4.5441,4.5423,4.5441,4.5441,4.5441,4.5528,4.5667,4.5667,4.5667,4.577,4.5803,4.5718,4.577,4.6186,4.6554,4.6649,4.6817,4.7115,4.753,4.7403,4.7403,4.7656,4.7941,4.8176,4.8327,4.8421,4.8514,4.8514,4.8605,4.855,4.853,4.8361,4.8245,4.8166,4.7893,4.7428,4.6731,4.646,4.5767,4.5649,4.5701,4.5718,4.5821,4.6038,4.6156,4.5887,4.4861,4.389,4.3249,4.2855,4.2583,4.244,4.2874,4.3342,4.3611,4.3658,4.3618,4.3686,4.3667,4.3634,4.3618,4.36,4.3566,4.3566,4.3566,4.36,4.36,4.36,4.36,4.3667,4.3814,4.3986,4.4011,4.4202,4.4355,4.4411,4.4383,4.4519,4.4701,4.4849,4.5007,4.5263,4.5495,4.5531,4.5568,4.5586,4.5586,4.5586,4.5586,4.5586,4.5603,4.5603,4.5657,4.5657,4.5676,4.5693,4.569,4.5706,4.4716,4.5389,4.5441,4.5441,4.5441,4.5423,4.513,4.4854,4.5234,4.5441,4.5441,4.5423,4.5441,4.5441,4.5441,4.5441,4.5441,4.5441,4.5441,4.5441,4.5441,4.5441,4.5581,4.5718,4.5615,4.5667,4.577,4.5854,4.5854,4.6186,4.6649,4.7115,4.716,4.7335,4.7591,4.7856,4.7977,4.7999,4.8174,4.8532,4.8695,4.8768,4.8768,4.8751,4.8697,4.8587,4.855,4.8569,4.8513,4.842,4.842,4.8326,4.7919,4.7512,4.7017,4.6454,4.6358,4.6424,4.6472,4.6472,4.666,4.656,4.6016,4.508,4.4316,4.3659,4.3382,4.3167,4.3274,4.343,4.3797,4.4128,4.3925,4.3756,4.3771,4.3753,4.3753,4.3771,4.3719,4.3652,4.3652,4.3652,4.3686,4.3686,4.3686,4.3686,4.3719,4.3786,4.3986,4.4162,4.4402,4.4643,4.4701,4.4732,4.4872,4.4943,4.503,4.5159,4.5381,4.5532,4.5586,4.5586,4.5586,4.5586,4.5586,4.5603,4.5603,4.564,4.5657,4.5673,4.5706,4.5722,4.5722,4.5738,4.5735,4.463,4.532,4.5353,4.5441,4.5441,4.5441,4.5406,4.5441,4.5423,4.5441,4.5441,4.5441,4.5441,4.5441,4.5441,4.5441,4.5441,4.5441,4.5441,4.5441,4.5441,4.5441,4.5423,4.5476,4.5615,4.5581,4.5667,4.6055,4.6137,4.6507,4.6999,4.7591,4.7632,4.7715,4.7937,4.8096,4.8139,4.7995,4.8329,4.875,4.8804,4.8822,4.8787,4.8787,4.8697,4.8587,4.8605,4.8605,4.8605,4.8587,4.8587,4.855,4.8289,4.8038,4.7554,4.7281,4.7017,4.6972,4.699,4.7017,4.715,4.688,4.6164,4.553,4.4867,4.3814,4.3418,4.3554,4.3596,4.3797,4.4168,4.4539,4.4531,4.4091,4.3851,4.38,4.3786,4.3896,4.4063,4.4029,4.4066,4.4011,4.3767,4.3767,4.3786,4.3786,4.3786,4.3818,4.4048,4.4266,4.4597,4.4927,4.4938,4.4988,4.514,4.5201,4.5201,4.5322,4.5515,4.555,4.5586,4.5586,4.5586,4.5586,4.5586,4.5603,4.5622,4.5657,4.5673,4.5706,4.5738,4.575,4.5765,4.5781,4.5781,4.3871,4.4596,4.5182,4.5441,4.5441,4.5441,4.5441,4.5441,4.5441,4.5441,4.5441,4.5441,4.5441,4.5441,4.5441,4.5441,4.5441,4.5441,4.5441,4.5441,4.5441,4.5441,4.5476,4.5649,4.5649,4.5701,4.5955,4.6381,4.6678,4.6954,4.7273,4.786,4.7886,4.7968,4.8125,4.8255,4.8126,4.7813,4.8329,4.8695,4.8678,4.8768,4.8787,4.8787,4.8732,4.8642,4.8642,4.8678,4.8624,4.8569,4.8569,4.8421,4.8078,4.798,4.7679,4.7324,4.7409,4.7409,4.7409,4.7476,4.7583,4.7252,4.6665,4.6177,4.5352,4.4054,4.3451,4.3725,4.3978,4.4223,4.445,4.4856,4.4957,4.4406,4.3929,4.3883,4.3786,4.404,4.4332,4.4461,4.4484,4.4313,4.405,4.3939,4.3883,4.3883,4.3865,4.3934,4.4228,4.4461,4.4862,4.5142,4.5087,4.518,4.5399,4.5611,4.5688,4.563,4.5762,4.572,4.5624,4.5586,4.5586,4.5586,4.5603,4.5622,4.5657,4.5693,4.5726,4.5738,4.575,4.5761,4.5791,4.5791,4.5805,4.3646,4.4337,4.5113,4.5441,4.5441,4.5441,4.5441,4.5441,4.5441,4.5441,4.5441,4.5441,4.5441,4.5441,4.5441,4.5441,4.5441,4.5441,4.5441,4.5441,4.5476,4.5441,4.5563,4.5752,4.5598,4.5615,4.6186,4.6713,4.7266,4.7403,4.772,4.7809,4.7831,4.7776,4.7846,4.7793,4.7868,4.7516,4.8181,4.8495,4.8514,4.8624,4.8679,4.8642,4.8587,4.855,4.855,4.8587,4.8569,4.8569,4.8624,4.8605,4.8421,4.8421,4.8252,4.808,4.8041,4.802,4.7962,4.7983,4.7952,4.7518,4.6838,4.6258,4.546,4.4312,4.4113,4.4361,4.4638,4.4897,4.486,4.5143,4.4785,4.4271,4.4048,4.3961,4.3947,4.4059,4.4466,4.4907,4.493,4.4893,4.4721,4.4703,4.4665,4.4647,4.4536,4.4703,4.4835,4.4724,4.5096,4.5417,4.5456,4.576,4.6186,4.6281,4.63,4.6203,4.6163,4.5951,4.5855,4.5682,4.5586,4.5603,4.564,4.5657,4.5693,4.5726,4.5758,4.5785,4.5795,4.5805,4.5819,4.58,4.58,4.3542,4.4337,4.5113,4.5441,4.5441,4.5441,4.5441,4.5441,4.5441,4.5441,4.5441,4.5441,4.5441,4.5441,4.5441,4.5441,4.5476,4.5632,4.5581,4.5476,4.5667,4.5701,4.5718,4.5667,4.5803,4.5988,4.6363,4.7178,4.7915,4.7715,4.7432,4.7353,4.7183,4.698,4.6705,4.6873,4.7279,4.7518,4.7942,4.8273,4.8383,4.8476,4.8532,4.8494,4.8401,4.8363,4.8401,4.8476,4.8532,4.8606,4.8697,4.8732,4.8768,4.8714,4.8731,4.8641,4.8641,4.8677,4.8731,4.8677,4.8303,4.7742,4.694,4.616,4.5342,4.4841,4.4642,4.4697,4.4994,4.5124,4.5119,4.5119,4.4655,4.4228,4.4098,4.4005,4.4042,4.4085,4.4655,4.5194,4.5287,4.5305,4.5119,4.5138,4.5287,4.5287,4.5398,4.5695,4.5783,4.5438,4.5436,4.58,4.6025,4.6383,4.6935,4.7048,4.7048,4.7048,4.6951,4.649,4.6067,4.5853,4.5697,4.564,4.5676,4.5728,4.5742,4.5754,4.5785,4.5853,4.581,4.5819,4.5819,4.58,4.58,4.3026,4.4354,4.5113,4.5441,4.5441,4.5441,4.5441,4.5441,4.5423,4.5441,4.5354,4.5406,4.5441,4.5423,4.5441,4.5476,4.5615,4.5821,4.5718,4.5528,4.6119,4.6217,4.6217,4.6217,4.6602,4.6788,4.6908,4.7335,4.7779,4.7378,4.7108,4.7131,4.6487,4.656,4.7058,4.7151,4.7132,4.739,4.7794,4.8179,4.7886,4.8052,4.8476,4.855,4.855,4.855,4.8605,4.8732,4.8768,4.8768,4.8785,4.8802,4.88,4.8818,4.8909,4.889,4.889,4.889,4.889,4.889,4.8444,4.7571,4.6791,4.6085,4.5287,4.4488,4.4376,4.4339,4.4562,4.4674,4.4729,4.5008,4.4785,4.4302,4.4023,4.4005,4.4023,4.4358,4.4822,4.5194,4.5417,4.5101,4.4599,4.4859,4.5361,4.5324,4.5175,4.5417,4.5361,4.5531,4.5761,4.613,4.648,4.7159,4.7761,4.7856,4.7875,4.7894,4.7702,4.7124,4.6565,4.6003,4.583,4.5712,4.5745,4.5816,4.5827,4.5993,4.5911,4.5945,4.5844,4.58,4.58,4.58,4.58]},{"header":{"parameterUnit":"m.s-1","parameterCategory":1,"la1":31.0,"la2":29.5877,"lo1":-88.7671,"lo2":-86.6584,"dy":0.0162,"dx":0.0185,"nx":115,"ny":88,"refTime":"2024-09-13T06:00:00:Z","depth":0,"parameterNumber":3,"parameterNumberName":"V-component_of_WINDS"},"data":[0.0,0.0,0.0,0.0,0.0,0.0,0.0,0.0,0.0,0.0,0.0,0.0,0.0,0.0,0.0,0.0,0.0,0.0,0.0,0.0,0.0,0.0,0.0,0.0,0.0,0.0,0.0,0.0,0.0,0.0,0.0,0.0,0.0,0.0,0.0,0.0,0.0,0.0,0.0,0.0,0.0,0.0,0.0,0.0,0.0,0.0,0.0,0.0,0.0,0.0,0.0,0.0,0.0,0.0,0.0,0.0,0.0,0.0,0.0,0.0,0.0,0.0,0.0,0.0,0.0,0.0,0.0,0.0,0.0,0.0,0.0,0.0,0.0,0.0,0.0,0.0,0.0,0.0,0.0,0.0,0.0,0.0,0.0,0.0,0.0,0.0,0.0,0.0,0.0,0.0,0.0,0.0,0.0,0.0,0.0,0.0,0.0,0.0,0.0,0.0,0.0,0.0,0.0,0.0,0.0,0.0,0.0,0.0,0.0,0.0,0.0,0.0,0.0,0.0,0.0,0.0,0.0,0.0,0.0,0.0,0.0,0.0,0.0,0.0,0.0,0.0,0.0,0.0,0.0,0.0,0.0,0.0,0.0,0.0,0.0,0.0,0.0,0.0,0.0,0.0,0.0,0.0,0.0,0.0,0.0,0.0,0.0,0.0,0.0,0.0,0.0,0.0,0.0,0.0,0.0,0.0,0.0,0.0,0.0,0.0,0.0,0.0,0.0,0.0,0.0,0.0,0.0,0.0,0.0,0.0,0.0,0.0,0.0,0.0,0.0,0.0,0.0,0.0,0.0,0.0,0.0,0.0,0.0,0.0,0.0,0.0,0.0,0.0,0.0,0.0,0.0,0.0,0.0,0.0,0.0,0.0,0.0,0.0,0.0,0.0,0.0,0.0,0.0,0.0,0.0,0.0,0.0,0.0,0.0,0.0,0.0,0.0,0.0,0.0,0.0,0.0,0.0,0.0,0.0,0.0,0.0,0.0,0.0,0.0,0.0,0.0,0.0,0.0,0.0,0.0,0.0,0.0,0.0,0.0,0.0,0.0,0.0,0.0,0.0,0.0,0.0,0.0,0.0,0.0,0.0,0.0,0.0,0.0,0.0,0.0,0.0,0.0,0.0,0.0,0.0,0.0,0.0,0.0,0.0,0.0,0.0,0.0,0.0,0.0,0.0,0.0,0.0,0.0,0.0,0.0,0.0,0.0,0.0,0.0,0.0,0.0,0.0,0.0,0.0,0.0,0.0,0.0,0.0,0.0,0.0,0.0,0.0,0.0,0.0,0.0,0.0,0.0,0.0,0.0,0.0,0.0,0.0,0.0,0.0,0.0,0.0,0.0,0.0,0.0,0.0,0.0,0.0,0.0,0.0,0.0,0.0,0.0,0.0,0.0,0.0,0.0,0.0,0.0,0.0,0.0,0.0,0.0,0.0,0.0,0.0,0.0,0.0,0.0,0.0,0.0,0.0,0.0,0.0,0.0,0.0,0.0,0.0,0.0,0.0,0.0,0.0,0.0,0.0,0.0,0.0,0.0,0.0,0.0,0.0,0.0,0.0,0.0,0.0,0.0,0.0,0.0,0.0,0.0,0.0,0.0,0.0,0.0,0.0,0.0,0.0,0.0,0.0,0.0,0.0,0.0,0.0,0.0,0.0,0.0,0.0,0.0,0.0,0.0,0.0,0.0,0.0,0.0,0.0,0.0,0.0,0.0,0.0,0.0,0.0,0.0,0.0,0.0,0.0,0.0,0.0,0.0,0.0,0.0,0.0,0.0,0.0,0.0,0.0,0.0,0.0,0.0,0.0,0.0,0.0,0.0,0.0,0.0,0.0,0.0,0.0,0.0,0.0,0.0,0.0,0.0,0.0,0.0,0.0,0.0,0.0,0.0,0.0,0.0,0.0,0.0,0.0,0.0,0.0,0.0,0.0,0.0,0.0,0.0,0.0,0.0,0.0,0.0,0.0,0.0,0.0,0.0,0.0,0.0,0.0,0.0,0.0,0.0,0.0,0.0,0.0,0.0,0.0,0.0,0.0,0.0,0.0,0.0,0.0,0.0,0.0,0.0,0.0,0.0,0.0,0.0,0.0,0.0,0.0,0.0,0.0,0.0,0.0,0.0,0.0,0.0,0.0,0.0,0.0,0.0,0.0,0.0,0.0,0.0,0.0,0.0,0.0,0.0,0.0,0.0,0.0,0.0,0.0,0.0,0.0,0.0,0.0,0.0,0.0,0.0,0.0,0.0,0.0,0.0,0.0,0.0,0.0,0.0,0.0,0.0,0.0,0.0,0.0,0.0,0.0,0.0,0.0,0.0,0.0,0.0,0.0,0.0,0.0,0.0,0.0,0.0,0.0,0.0,0.0,0.0,0.0,0.0,0.0,0.0,0.0,0.0,0.0,0.0,0.0,0.0,0.0,0.0,0.0,0.0,0.0,0.0,0.0,0.0,0.0,0.0,0.0,0.0,0.0,0.0,0.0,0.0,0.0,0.0,0.0,0.0,0.0,0.0,0.0,0.0,0.0,0.0,0.0,0.0,0.0,0.0,0.0,0.0,0.0,0.0,0.0,0.0,0.0,0.0,0.0,0.0,0.0,0.0,0.0,0.0,0.0,0.0,0.0,0.0,0.0,0.0,0.0,0.0,0.0,0.0,0.0,0.0,0.0,0.0,0.0,0.0,0.0,0.0,0.0,0.0,0.0,0.0,0.0,0.0,0.0,0.0,0.0,0.0,0.0,0.0,0.0,0.0,0.0,0.0,0.0,0.0,0.0,0.0,0.0,0.0,0.0,0.0,0.0,0.0,0.0,0.0,0.0,0.0,0.0,0.0,0.0,0.0,0.0,0.0,0.0,0.0,0.0,0.0,0.0,0.0,0.0,0.0,0.0,0.0,0.0,0.0,0.0,0.0,0.0,0.0,0.0,0.0,0.0,0.0,0.0,0.0,0.0,0.0,0.0,0.0,0.0,0.0,0.0,0.0,0.0,0.0,0.0,0.0,0.0,0.0,0.0,0.0,0.0,0.0,0.0,0.0,0.0,0.0,0.0,0.0,0.0,0.0,0.0,0.0,0.0,0.0,0.0,0.0,0.0,0.0,0.0,0.0,0.0,0.0,0.0,0.0,0.0,0.0,0.0,0.0,0.0,0.0,0.0,0.0,0.0,0.0,0.0,0.0,0.0,0.0,0.0,0.0,0.0,0.0,0.0,0.0,0.0,0.0,0.0,0.0,0.0,0.0,0.0,0.0,0.0,0.0,0.0,0.0,0.0,0.0,0.0,0.0,0.0,0.0,0.0,0.0,0.0,0.0,0.0,0.0,0.0,0.0,0.0,0.0,0.0,0.0,0.0,0.0,0.0,0.0,0.0,0.0,0.0,0.0,0.0,0.0,0.0,0.0,0.0,0.0,0.0,0.0,0.0,0.0,0.0,0.0,0.0,0.0,0.0,0.0,0.0,0.0,0.0,0.0,0.0,0.0,0.0,0.0,0.0,0.0,0.0,0.0,0.0,0.0,0.0,0.0,0.0,0.0,0.0,0.0,0.0,0.0,0.0,0.0,0.0,0.0,0.0,0.0,0.0,0.0,0.0,0.0,0.0,0.0,0.0,0.0,0.0,0.0,0.0,0.0,0.0,0.0,0.0,0.0,0.0,0.0,0.0,0.0,0.0,0.0,0.0,0.0,0.0,0.0,0.0,0.0,0.0,0.0,0.0,0.0,0.0,0.0,0.0,0.0,0.0,0.0,0.0,0.0,0.0,0.0,0.0,0.0,0.0,0.0,0.0,0.0,0.0,0.0,0.0,0.0,0.0,0.0,0.0,0.0,0.0,0.0,0.0,0.0,0.0,0.0,0.0,0.0,0.0,0.0,0.0,0.0,0.0,0.0,0.0,0.0,0.0,0.0,0.0,0.0,0.0,0.0,0.0,0.0,0.0,0.0,0.0,0.0,0.0,0.0,0.0,0.0,0.0,0.0,0.0,0.0,0.0,0.0,0.0,0.0,0.0,0.0,0.0,0.0,0.0,0.0,0.0,0.0,0.0,0.0,0.0,0.0,0.0,0.0,0.0,0.0,0.0,0.0,0.0,0.0,0.0,0.0,0.0,0.0,0.0,0.0,0.0,0.0,0.0,0.0,0.0,0.0,0.0,0.0,0.0,0.0,0.0,0.0,0.0,0.0,0.0,0.0,0.0,0.0,0.0,0.0,0.0,0.0,0.0,0.0,0.0,0.0,0.0,0.0,0.0,0.0,0.0,0.0,0.0,0.0,0.0,0.0,0.0,0.0,1.9131,0.0,0.0,0.0,0.0,0.0,0.0,0.0,0.0,0.0,0.0,0.0,0.0,0.0,0.0,0.0,0.0,0.0,0.0,0.0,0.0,0.0,0.0,0.0,0.0,0.0,0.0,0.0,0.0,0.0,0.0,0.0,0.0,0.0,0.0,0.0,0.0,0.0,0.0,0.0,0.0,0.0,0.0,0.0,0.0,0.0,0.0,0.0,0.0,0.0,0.0,0.0,0.0,0.0,0.0,0.0,0.0,0.0,0.0,0.0,0.0,0.0,0.0,0.0,0.0,0.0,0.0,0.0,0.0,0.0,0.0,0.0,0.0,0.0,0.0,0.0,0.0,0.0,0.0,0.0,0.0,0.0,0.0,0.0,0.0,0.0,0.0,0.0,0.0,0.0,0.0,0.0,0.0,0.0,0.0,0.0,0.0,0.0,0.0,0.0,0.0,0.0,0.0,0.0,0.0,0.0,0.0,0.0,0.0,0.0,0.0,2.0286,1.9805,2.0009,1.978,1.9011,0.0,0.0,0.0,0.0,0.0,0.0,0.0,0.0,0.0,0.0,0.0,0.0,0.0,0.0,0.0,0.0,0.0,0.0,0.0,0.0,0.0,0.0,0.0,0.0,0.0,0.0,0.0,0.0,0.0,0.0,0.0,0.0,0.0,0.0,0.0,0.0,0.0,0.0,0.0,0.0,0.0,0.0,0.0,0.0,0.0,0.0,0.0,0.0,0.0,0.0,0.0,0.0,0.0,0.0,0.0,0.0,0.0,0.0,0.0,0.0,0.0,0.0,0.0,0.0,0.0,0.0,0.0,0.0,0.0,0.0,0.0,0.0,0.0,0.0,0.0,0.0,0.0,0.0,0.0,0.0,0.0,0.0,0.0,0.0,0.0,0.0,0.0,0.0,0.0,0.0,0.0,0.0,0.0,0.0,0.0,0.0,0.0,0.0,0.0,0.0,0.0,0.0,0.0,0.0,0.0,0.0,0.0,0.0,0.0,0.0,0.0,0.0,1.9901,1.96,1.8831,0.0,0.0,0.0,0.0,0.0,0.0,0.0,0.0,0.0,0.0,0.0,0.0,0.0,0.0,0.0,0.0,0.0,0.0,0.0,0.0,0.0,0.0,0.0,0.0,0.0,0.0,0.0,0.0,0.0,0.0,0.0,0.0,0.0,0.0,0.0,0.0,0.0,0.0,0.0,0.0,0.0,0.0,0.0,0.0,0.0,0.0,0.0,0.0,0.0,0.0,0.0,0.0,0.0,0.0,0.0,0.0,0.0,0.0,0.0,0.0,0.0,0.0,0.0,0.0,0.0,0.0,0.0,0.0,0.0,0.0,0.0,0.0,0.0,0.0,0.0,0.0,0.0,0.0,0.0,0.0,0.0,0.0,0.0,0.0,0.0,0.0,0.0,0.0,0.0,0.0,0.0,0.0,0.0,0.0,0.0,0.0,0.0,0.0,0.0,0.0,0.0,0.0,0.0,0.0,0.0,0.0,0.0,0.0,0.0,0.0,1.978,1.978,2.0249,0.0,1.8422,0.0,0.0,0.0,0.0,0.0,0.0,0.0,0.0,0.0,0.0,0.0,0.0,0.0,0.0,0.0,0.0,0.0,0.0,0.0,0.0,0.0,0.0,0.0,0.0,0.0,0.0,0.0,0.0,0.0,0.0,0.0,0.0,0.0,0.0,0.0,0.0,0.0,0.0,0.0,0.0,0.0,0.0,0.0,0.0,0.0,0.0,0.0,0.0,0.0,0.0,0.0,0.0,0.0,0.0,0.0,0.0,0.0,0.0,0.0,0.0,0.0,0.0,0.0,0.0,0.0,0.0,0.0,0.0,0.0,0.0,0.0,0.0,0.0,0.0,0.0,0.0,0.0,0.0,0.0,0.0,0.0,0.0,0.0,0.0,0.0,0.0,0.0,0.0,0.0,0.0,0.0,0.0,0.0,0.0,0.0,0.0,0.0,0.0,0.0,0.0,0.0,0.0,0.0,0.0,0.0,0.0,0.0,0.0,0.0,0.0,1.978,1.978,1.9396,1.8734,0.0,0.0,0.0,0.0,0.0,0.0,0.0,0.0,0.0,0.0,0.0,0.0,0.0,0.0,0.0,0.0,0.0,0.0,0.0,0.0,0.0,0.0,0.0,0.0,0.0,0.0,0.0,0.0,0.0,0.0,0.0,0.0,0.0,0.0,0.0,0.0,0.0,0.0,0.0,0.0,0.0,0.0,0.0,0.0,0.0,0.0,0.0,0.0,0.0,0.0,0.0,0.0,0.0,0.0,0.0,0.0,0.0,0.0,0.0,0.0,0.0,0.0,0.0,0.0,0.0,0.0,0.0,0.0,0.0,0.0,0.0,0.0,0.0,0.0,0.0,0.0,0.0,0.0,0.0,0.0,0.0,0.0,0.0,0.0,0.0,0.0,0.0,0.0,0.0,0.0,0.0,0.0,0.0,0.0,0.0,0.0,0.0,0.0,0.0,0.0,0.0,0.0,0.0,0.0,0.0,0.0,0.0,0.0,0.0,0.0,1.9576,1.978,1.9756,1.9191,1.835,1.7231,0.0,0.0,0.0,0.0,0.0,0.0,0.0,0.0,0.0,0.0,0.0,0.0,0.0,0.0,0.0,0.0,0.0,0.0,0.0,0.0,0.0,0.0,0.0,0.0,0.0,0.0,0.0,0.0,0.0,0.0,0.0,0.0,0.0,0.0,0.0,0.0,0.0,0.0,0.0,0.0,0.0,0.0,0.0,0.0,0.0,0.0,0.0,0.0,0.0,0.0,0.0,0.0,0.0,0.0,0.0,0.0,0.0,0.0,0.0,0.0,0.0,0.0,0.0,0.0,0.0,0.0,0.0,0.0,0.0,0.0,0.0,0.0,0.0,0.0,0.0,0.0,0.0,0.0,0.0,0.0,0.0,0.0,0.0,0.0,0.0,0.0,0.0,0.0,0.0,0.0,0.0,0.0,0.0,0.0,0.0,0.0,0.0,0.0,0.0,0.0,0.0,0.0,0.0,0.0,0.0,0.0,0.0,0.0,0.0,1.9756,1.978,1.9805,2.0237,1.93,0.0,0.0,0.0,0.0,0.0,0.0,0.0,0.0,0.0,0.0,0.0,0.0,0.0,0.0,0.0,0.0,0.0,0.0,0.0,0.0,0.0,0.0,0.0,0.0,0.0,0.0,0.0,0.0,0.0,0.0,0.0,0.0,0.0,0.0,0.0,0.0,0.0,0.0,0.0,0.0,0.0,0.0,0.0,0.0,0.0,0.0,0.0,0.0,0.0,0.0,0.0,0.0,0.0,0.0,0.0,0.0,0.0,0.0,0.0,0.0,0.0,0.0,0.0,0.0,0.0,0.0,0.0,0.0,0.0,0.0,0.0,0.0,0.0,0.0,0.0,0.0,0.0,0.0,0.0,0.0,0.0,0.0,0.0,0.0,0.0,0.0,0.0,0.0,0.0,0.0,0.0,0.0,0.0,0.0,0.0,0.0,0.0,0.0,0.0,0.0,0.0,0.0,0.0,0.0,0.0,0.0,0.0,0.0,0.0,1.8746,1.9432,2.0117,2.0742,1.9372,1.8109,0.0,0.0,0.0,0.0,0.0,0.0,0.0,0.0,0.0,0.0,0.0,0.0,0.0,0.0,0.0,0.0,0.0,0.0,0.0,0.0,0.0,0.0,0.0,0.0,0.0,0.0,0.0,0.0,0.0,0.0,0.0,0.0,0.0,0.0,0.0,0.0,0.0,0.0,0.0,0.0,0.0,0.0,0.0,0.0,0.0,0.0,0.0,0.0,0.0,0.0,0.0,0.0,0.0,0.0,0.0,0.0,0.0,0.0,0.0,0.0,0.0,0.0,0.0,0.0,0.0,0.0,0.0,0.0,0.0,0.0,0.0,0.0,0.0,0.0,0.0,0.0,0.0,0.0,0.0,0.0,0.0,0.0,0.0,0.0,0.0,0.0,0.0,0.0,0.0,0.0,0.0,0.0,0.0,0.0,0.0,0.0,0.0,0.0,0.0,0.0,0.0,0.0,0.0,0.0,0.0,0.0,0.0,0.0,0.0,1.8434,0.0,2.0365,0.0,1.8626,1.7267,0.0,0.0,0.0,0.0,0.0,0.0,0.0,0.0,0.0,0.0,0.0,0.0,0.0,0.0,0.0,0.0,0.0,0.0,0.0,0.0,0.0,0.0,0.0,0.0,0.0,0.0,0.0,0.0,0.0,0.0,0.0,0.0,0.0,0.0,0.0,0.0,0.0,0.0,0.0,0.0,0.0,0.0,0.0,0.0,0.0,0.0,0.0,0.0,0.0,0.0,0.0,0.0,0.0,0.0,0.0,0.0,0.0,0.0,0.0,0.0,0.0,0.0,0.0,0.0,0.0,0.0,0.0,0.0,0.0,0.0,0.0,0.0,0.0,0.0,0.0,0.0,0.0,0.0,0.0,0.0,0.0,0.0,0.0,0.0,0.0,0.0,0.0,0.0,0.0,0.0,0.0,0.0,0.0,0.0,0.0,0.0,0.0,0.0,0.0,0.0,0.0,0.0,0.0,0.0,0.0,0.0,0.0,0.0,1.7412,1.8955,2.0543,2.0395,1.8326,1.8217,1.7002,0.0,0.0,0.0,0.0,0.0,0.0,0.0,0.0,0.0,0.0,0.0,0.0,0.0,0.0,0.0,0.0,0.0,0.0,0.0,0.0,0.0,0.0,0.0,0.0,0.0,0.0,0.0,0.0,0.0,0.0,0.0,0.0,0.0,0.0,0.0,0.0,0.0,0.0,0.0,0.0,0.0,0.0,0.0,0.0,0.0,0.0,0.0,0.0,0.0,0.0,0.0,0.0,0.0,0.0,0.0,0.0,0.0,0.0,0.0,0.0,0.0,0.0,0.0,0.0,0.0,0.0,0.0,0.0,0.0,0.0,0.0,0.0,0.0,0.0,0.0,0.0,0.0,0.0,0.0,0.0,0.0,0.0,0.0,0.0,0.0,0.0,0.0,0.0,0.0,0.0,0.0,0.0,0.0,0.0,0.0,0.0,0.0,0.0,0.0,0.0,0.0,0.0,0.0,0.0,0.0,0.0,0.0,0.0,0.0,1.7917,1.9137,1.9806,1.9793,1.8073,1.7075,0.0,0.0,0.0,0.0,0.0,0.0,0.0,0.0,0.0,0.0,0.0,0.0,0.0,0.0,0.0,0.0,0.0,0.0,0.0,0.0,0.0,0.0,0.0,0.0,0.0,0.0,0.0,0.0,0.0,0.0,0.0,0.0,0.0,0.0,0.0,0.0,0.0,0.0,0.0,0.0,0.0,0.0,0.0,0.0,0.0,0.0,0.0,0.0,0.0,0.0,0.0,0.0,0.0,0.0,0.0,0.0,0.0,0.0,0.0,0.0,0.0,0.0,0.0,0.0,0.0,0.0,0.0,0.0,0.0,0.0,0.0,0.0,0.0,0.0,0.0,0.0,0.0,0.0,0.0,0.0,0.0,0.0,0.0,0.0,0.0,0.0,0.0,0.0,0.0,0.0,0.0,0.0,0.0,0.0,0.0,0.0,0.0,0.0,0.0,0.0,0.0,0.0,0.0,0.0,0.0,0.0,0.0,0.0,0.0,1.7748,1.8931,1.9678,1.9708,1.7712,1.6846,1.7303,0.0,0.0,0.0,0.0,0.0,0.0,0.0,0.0,0.0,0.0,0.0,0.0,0.0,0.0,0.0,0.0,0.0,0.0,0.0,0.0,0.0,0.0,0.0,0.0,0.0,0.0,0.0,0.0,0.0,0.0,0.0,0.0,0.0,0.0,0.0,0.0,0.0,0.0,0.0,0.0,0.0,0.0,0.0,0.0,0.0,0.0,0.0,0.0,0.0,0.0,0.0,0.0,0.0,0.0,0.0,0.0,0.0,0.0,0.0,0.0,0.0,0.0,0.0,0.0,0.0,0.0,0.0,0.0,0.0,0.0,0.0,0.0,0.0,0.0,0.0,0.0,0.0,0.0,0.0,0.0,0.0,0.0,0.0,0.0,0.0,0.0,0.0,0.0,0.0,0.0,0.0,0.0,0.0,0.0,0.0,0.0,0.0,0.0,0.0,0.0,0.0,0.0,0.0,0.0,0.0,0.0,0.0,0.0,1.8157,1.975,1.985,1.835,1.7219,1.6416,0.0,0.0,0.0,0.0,0.0,0.0,0.0,0.0,0.0,0.0,0.0,0.0,0.0,0.0,0.0,0.0,0.0,0.0,0.0,0.0,0.0,0.0,0.0,0.0,0.0,0.0,0.0,0.0,0.0,0.0,0.0,0.0,0.0,0.0,0.0,0.0,0.0,0.0,0.0,0.0,0.0,0.0,0.0,0.0,0.0,0.0,0.0,0.0,0.0,0.0,0.0,0.0,0.0,0.0,0.0,0.0,0.0,0.0,0.0,0.0,0.0,0.0,0.0,0.0,0.0,0.0,0.0,0.0,0.0,0.0,0.0,0.0,0.0,0.0,0.0,0.0,0.0,0.0,0.0,0.0,0.0,0.0,0.0,0.0,0.0,0.0,0.0,0.0,0.0,0.0,0.0,0.0,0.0,0.0,0.0,0.0,0.0,0.0,0.0,0.0,0.0,0.0,0.0,0.0,0.0,0.0,0.0,0.0,0.0,1.7652,1.8806,1.94,1.9324,1.7612,1.6828,0.0,0.0,0.0,0.0,0.0,0.0,0.0,0.0,0.0,0.0,0.0,0.0,0.0,0.0,0.0,0.0,0.0,0.0,0.0,0.0,0.0,0.0,0.0,0.0,0.0,0.0,0.0,0.0,0.0,0.0,0.0,0.0,0.0,0.0,0.0,0.0,0.0,0.0,0.0,0.0,0.0,0.0,0.0,0.0,0.0,0.0,0.0,0.0,0.0,0.0,0.0,0.0,0.0,0.0,0.0,0.0,0.0,0.0,0.0,0.0,0.0,0.0,0.0,0.0,0.0,0.0,0.0,0.0,0.0,0.0,0.0,0.0,0.0,0.0,0.0,0.0,0.0,0.0,0.0,0.0,0.0,0.0,0.0,0.0,0.0,0.0,0.0,0.0,0.0,0.0,0.0,0.0,0.0,0.0,0.0,0.0,0.0,0.0,0.0,0.0,0.0,0.0,0.0,0.0,0.0,0.0,0.0,0.0,1.7934,1.7748,1.8338,1.8806,1.9119,1.7962,1.7272,0.0,0.0,0.0,0.0,0.0,0.0,0.0,0.0,0.0,0.0,0.0,0.0,0.0,0.0,0.0,0.0,0.0,0.0,0.0,0.0,0.0,0.0,0.0,0.0,0.0,0.0,0.0,0.0,0.0,0.0,0.0,0.0,0.0,0.0,0.0,0.0,0.0,0.0,0.0,0.0,0.0,0.0,0.0,0.0,0.0,0.0,0.0,0.0,0.0,0.0,0.0,0.0,0.0,0.0,0.0,0.0,0.0,0.0,0.0,0.0,0.0,0.0,0.0,0.0,0.0,0.0,0.0,0.0,0.0,0.0,0.0,0.0,0.0,0.0,0.0,0.0,0.0,0.0,0.0,0.0,0.0,0.0,0.0,0.0,0.0,0.0,0.0,0.0,0.0,0.0,0.0,0.0,0.0,0.0,0.0,0.0,0.0,0.0,0.0,0.0,0.0,0.0,0.0,0.0,0.0,0.0,0.0,0.0,1.861,1.8222,1.8121,1.8058,1.8058,1.8058,1.7591,0.0,0.0,0.0,0.0,0.0,0.0,0.0,0.0,0.0,0.0,0.0,0.0,0.0,0.0,0.0,0.0,0.0,0.0,0.0,0.0,0.0,0.0,0.0,0.0,0.0,0.0,0.0,0.0,0.0,0.0,0.0,0.0,0.0,0.0,0.0,0.0,0.0,0.0,0.0,0.0,0.0,0.0,0.0,0.0,0.0,0.0,0.0,0.0,0.0,0.0,0.0,0.0,0.0,0.0,0.0,0.0,0.0,0.0,0.0,0.0,0.0,0.0,0.0,0.0,0.0,0.0,0.0,0.0,0.0,0.0,0.0,0.0,0.0,0.0,0.0,0.0,0.0,0.0,0.0,0.0,0.0,0.0,0.0,0.0,0.0,0.0,0.0,0.0,0.0,0.0,0.0,0.0,0.0,0.0,0.0,0.0,0.0,0.0,0.0,0.0,0.0,0.0,0.0,0.0,0.0,0.0,0.0,0.0,1.8282,1.8186,1.7776,1.7383,1.7023,1.7023,1.6704,0.0,0.0,0.0,0.0,0.0,0.0,0.0,0.0,0.0,0.0,0.0,0.0,0.0,0.0,0.0,0.0,0.0,0.0,0.0,0.0,0.0,0.0,0.0,0.0,0.0,0.0,0.0,0.0,0.0,0.0,0.0,0.0,0.0,0.0,0.0,0.0,0.0,0.0,0.0,0.0,0.0,0.0,0.0,0.0,0.0,0.0,0.0,0.0,1.3386,0.0,0.0,0.0,0.0,0.0,0.0,0.0,0.0,0.0,0.0,0.0,0.0,0.0,0.0,0.0,0.0,0.0,0.0,0.0,0.0,0.0,0.0,0.0,0.0,0.0,0.0,0.0,0.0,0.0,0.0,0.0,0.0,0.0,0.0,0.0,0.0,0.0,0.0,0.0,0.0,0.0,0.0,0.0,0.0,0.0,0.0,0.0,0.0,0.0,0.0,0.0,0.0,0.0,0.0,0.0,0.0,0.0,0.0,0.0,1.8309,1.7834,1.7063,1.6547,1.6365,1.6098,1.5703,0.0,0.0,0.0,0.0,0.0,0.0,0.0,0.0,0.0,0.0,0.0,0.0,0.0,0.0,0.0,0.0,0.0,0.0,0.0,0.0,0.0,0.0,0.0,0.0,0.0,0.0,0.0,0.0,0.0,0.0,0.0,0.0,0.0,0.0,0.0,0.0,0.0,0.0,0.0,0.0,0.0,0.0,0.0,0.0,0.0,0.0,0.0,0.0,0.0,0.0,0.0,0.0,0.0,0.0,0.0,0.0,0.0,0.0,0.0,0.0,0.0,0.0,0.0,0.0,0.0,0.0,0.0,0.0,0.0,0.0,0.0,0.0,0.0,0.0,0.0,0.0,0.0,0.0,0.0,0.0,0.0,0.0,0.0,0.0,0.0,0.0,0.0,0.0,0.0,0.0,0.0,0.0,0.0,0.0,0.0,0.0,0.0,0.0,0.0,0.0,0.0,0.0,0.0,0.0,0.0,0.0,0.0,1.8917,1.8398,1.7654,1.648,1.5787,1.5645,1.527,1.4752,1.4097,0.0,0.0,0.0,0.0,0.0,0.0,0.0,0.0,0.0,0.0,0.0,0.0,0.0,0.0,0.0,0.0,0.0,0.0,0.0,0.0,0.0,0.0,0.0,0.0,0.0,0.0,0.0,0.0,0.0,0.0,0.0,0.0,0.0,0.0,0.0,0.0,0.0,0.0,1.3087,1.4311,0.0,0.0,0.0,0.0,0.0,0.0,0.0,0.0,1.6531,0.0,0.0,0.0,0.0,0.0,0.0,0.0,0.0,0.0,0.0,0.0,0.0,0.0,0.0,0.0,0.0,0.0,0.0,0.0,0.0,0.0,0.0,0.0,0.0,0.0,0.0,0.0,0.0,0.0,0.0,0.0,0.0,0.0,0.0,0.0,0.0,0.0,0.0,0.0,0.0,0.0,0.0,0.0,0.0,0.0,0.0,0.0,0.0,0.0,0.0,0.0,0.0,0.0,0.0,0.0,0.0,2.0851,1.8754,1.8007,1.8688,1.6802,1.5417,1.4611,1.4864,1.4222,1.2679,0.0,0.0,0.0,0.0,0.0,0.0,0.0,0.0,0.0,0.0,0.0,0.0,0.0,0.0,0.0,0.0,0.0,0.0,0.0,0.0,0.0,0.0,0.0,0.0,0.0,0.0,0.0,0.0,0.0,0.0,0.0,0.0,0.0,0.0,0.0,0.0,0.0,0.0,0.0,1.6953,1.7775,0.0,0.0,0.0,0.0,0.0,0.0,0.0,0.0,1.9328,0.0,0.0,0.0,0.0,0.0,0.0,0.0,0.0,0.0,0.0,0.0,0.0,0.0,0.0,0.0,0.0,0.0,0.0,0.0,0.0,0.0,0.0,0.0,0.0,0.0,0.0,0.0,0.0,0.0,0.0,0.0,0.0,0.0,0.0,0.0,0.0,0.0,0.0,0.0,0.0,0.0,0.0,0.0,0.0,0.0,0.0,0.0,0.0,0.0,0.0,0.0,0.0,0.0,0.0,0.0,2.0326,1.8993,1.8351,1.8536,1.6536,1.5071,1.4317,1.4082,1.3407,0.0,0.0,0.0,0.0,0.0,0.0,0.0,0.0,0.0,0.0,0.0,0.0,0.0,0.0,0.0,0.0,0.0,0.0,0.0,0.0,0.0,0.0,0.0,0.0,0.0,0.0,0.0,0.0,0.0,0.0,0.0,0.0,0.0,0.0,0.0,0.0,0.0,0.0,0.0,0.0,1.8863,1.9632,2.0385,0.0,0.0,0.0,0.0,0.0,0.0,2.0707,2.0262,0.0,0.0,0.0,0.0,0.0,0.0,0.0,0.0,0.0,0.0,0.0,0.0,0.0,0.0,0.0,0.0,0.0,0.0,0.0,0.0,0.0,0.0,0.0,0.0,0.0,0.0,0.0,0.0,0.0,0.0,0.0,0.0,0.0,0.0,0.0,0.0,0.0,0.0,0.0,0.0,0.0,0.0,0.0,0.0,0.0,0.0,0.0,0.0,0.0,0.0,0.0,0.0,0.0,0.0,0.0,1.9764,1.9041,1.8505,1.815,1.6262,1.4956,1.433,1.3617,1.2905,0.0,0.0,0.0,0.0,0.0,0.0,0.0,0.0,0.0,0.0,0.0,0.0,0.0,0.0,0.0,0.0,0.0,0.0,0.0,0.0,0.0,0.0,0.0,0.0,0.0,0.0,0.0,0.0,0.0,0.0,0.0,0.0,0.0,0.0,0.0,0.0,0.0,0.0,0.0,0.0,0.0,2.1576,2.2536,2.2792,0.0,0.0,0.0,0.0,2.2832,2.2004,0.0,0.0,0.0,0.0,0.0,0.0,0.0,0.0,0.0,0.0,0.0,0.0,0.0,0.0,0.0,0.0,0.0,0.0,0.0,0.0,0.0,0.0,0.0,0.0,0.0,0.0,0.0,0.0,0.0,0.0,0.0,0.0,0.0,0.0,0.0,0.0,0.0,0.0,0.0,0.0,0.0,0.0,0.0,0.0,0.0,0.0,0.0,0.0,0.0,0.0,0.0,0.0,0.0,0.0,0.0,0.0,2.0305,1.8513,1.7801,1.8078,1.6593,1.5266,1.4341,1.4181,1.332,0.0,0.0,0.0,0.0,0.0,0.0,0.0,0.0,0.0,0.0,0.0,0.0,0.0,0.0,0.0,0.0,0.0,0.0,0.0,0.0,0.0,0.0,0.0,0.0,0.0,0.0,0.0,0.0,0.0,0.0,0.0,0.0,0.0,0.0,0.0,0.0,0.0,0.0,0.0,0.0,0.0,2.4222,2.4735,2.5479,2.609,0.0,0.0,2.6328,2.5774,2.6005,0.0,0.0,0.0,0.0,0.0,0.0,0.0,0.0,0.0,0.0,0.0,0.0,0.0,0.0,0.0,0.0,0.0,0.0,0.0,0.0,0.0,0.0,0.0,0.0,0.0,0.0,0.0,0.0,0.0,0.0,0.0,0.0,0.0,0.0,0.0,0.0,0.0,0.0,0.0,0.0,0.0,0.0,0.0,0.0,0.0,0.0,0.0,0.0,0.0,0.0,0.0,0.0,0.0,0.0,0.0,1.9814,1.9953,1.8871,1.8285,1.815,1.6638,1.531,1.4334,1.4364,1.343,0.0,0.0,0.0,0.0,0.0,0.0,0.0,0.0,0.0,0.0,0.0,0.0,0.0,0.0,0.0,0.0,0.0,0.0,0.0,0.0,0.0,0.0,0.0,0.0,0.0,0.0,0.0,0.0,0.0,0.0,0.0,0.0,0.0,0.0,0.0,0.0,0.0,0.0,0.0,0.0,0.0,0.0,2.695,2.7622,0.0,0.0,0.0,2.8279,2.7595,0.0,0.0,0.0,0.0,0.0,0.0,0.0,0.0,0.0,0.0,0.0,0.0,0.0,0.0,0.0,0.0,0.0,0.0,0.0,0.0,0.0,0.0,0.0,0.0,0.0,0.0,0.0,0.0,0.0,0.0,0.0,0.0,0.0,0.0,0.0,0.0,0.0,0.0,0.0,0.0,0.0,0.0,0.0,0.0,0.0,0.0,0.0,0.0,0.0,0.0,0.0,0.0,0.0,0.0,0.0,0.0,0.0,1.9852,1.9284,1.8668,1.7999,1.656,1.5289,1.4217,1.4275,0.0,0.0,0.0,0.0,0.0,0.0,0.0,0.0,0.0,0.0,0.0,0.0,0.0,0.0,0.0,0.0,0.0,0.0,0.0,0.0,0.0,0.0,0.0,0.0,0.0,0.0,0.0,1.077,0.0,0.0,0.0,0.0,0.0,0.0,0.0,0.0,0.0,0.0,0.0,0.0,0.0,0.0,2.7783,2.8669,2.9064,2.9016,0.0,0.0,2.9721,2.9069,2.8341,2.8306,0.0,0.0,0.0,0.0,0.0,0.0,0.0,0.0,0.0,0.0,0.0,0.0,0.0,0.0,0.0,0.0,0.0,0.0,0.0,0.0,0.0,0.0,0.0,0.0,0.0,0.0,0.0,0.0,0.0,0.0,0.0,0.0,0.0,0.0,0.0,0.0,0.0,0.0,0.0,0.0,0.0,0.0,0.0,0.0,0.0,0.0,0.0,0.0,0.0,0.0,0.0,0.0,0.0,0.0,2.0429,2.0463,1.9541,1.8528,1.7485,1.6378,1.5148,1.3802,1.4127,1.3238,0.0,0.0,0.0,0.0,0.0,0.0,0.0,0.0,0.0,0.0,0.0,0.0,0.0,0.0,0.0,0.0,0.0,0.0,0.0,0.0,0.0,0.0,0.0,0.0,0.0,0.0,0.0,0.0,0.0,0.0,0.0,0.0,0.0,0.0,0.0,0.0,0.0,0.0,0.0,0.0,0.0,2.9191,2.9645,2.9675,2.9783,0.0,3.0506,3.069,3.0228,3.0128,3.0351,3.1145,0.0,0.0,0.0,0.0,0.0,0.0,0.0,0.0,0.0,0.0,0.0,0.0,0.0,0.0,0.0,0.0,0.0,0.0,0.0,0.0,0.0,0.0,0.0,0.0,0.0,0.0,0.0,0.0,0.0,0.0,0.0,0.0,0.0,0.0,0.0,0.0,0.0,0.0,0.0,0.0,0.0,0.0,0.0,0.0,0.0,0.0,0.0,0.0,0.0,0.0,0.0,0.0,0.0,2.044,2.0508,1.9549,1.8621,1.7892,1.6228,1.4952,1.4075,1.4238,1.3506,0.0,0.0,0.0,0.0,0.0,0.0,0.0,0.0,0.0,0.0,0.0,0.0,0.0,0.0,0.0,0.0,0.0,0.0,0.0,0.0,0.0,0.0,0.0,0.0,0.0,0.0,0.0,0.0,1.6774,1.8497,2.0885,0.0,0.0,0.0,0.0,0.0,0.0,0.0,0.0,0.0,0.0,3.0728,3.0958,3.1159,0.0,0.0,3.2105,3.2453,3.1708,3.2133,3.2516,3.2575,3.2855,0.0,0.0,0.0,0.0,0.0,0.0,0.0,0.0,0.0,0.0,0.0,0.0,0.0,0.0,0.0,0.0,0.0,0.0,0.0,0.0,0.0,0.0,0.0,0.0,0.0,0.0,0.0,0.0,0.0,0.0,0.0,0.0,0.0,0.0,0.0,0.0,0.0,0.0,0.0,0.0,0.0,0.0,0.0,0.0,0.0,0.0,0.0,0.0,0.0,0.0,0.0,0.0,2.0848,2.0738,1.996,1.9097,1.8213,1.6325,1.4971,1.4136,1.4111,1.345,0.0,0.0,0.0,0.0,0.0,0.0,0.0,0.0,0.0,0.0,0.0,0.0,0.0,0.0,0.0,0.0,0.0,0.0,0.0,0.0,0.0,0.0,0.0,0.0,0.0,0.0,0.0,0.0,1.9288,2.1345,2.3519,0.0,0.0,0.0,0.0,0.0,0.0,0.0,0.0,0.0,0.0,3.1952,3.1873,3.2297,3.262,3.2572,3.3387,3.3744,3.3001,3.3633,3.4149,3.3961,0.0,0.0,0.0,0.0,0.0,0.0,0.0,0.0,0.0,0.0,0.0,0.0,0.0,0.0,0.0,0.0,0.0,0.0,0.0,0.0,0.0,0.0,0.0,0.0,0.0,0.0,0.0,2.2354,0.0,0.0,2.179,0.0,0.0,0.0,0.0,0.0,0.0,0.0,0.0,0.0,0.0,0.0,0.0,0.0,0.0,0.0,0.0,0.0,0.0,0.0,0.0,0.0,0.0,2.1894,2.1396,2.0877,1.9863,1.8226,1.667,1.5175,1.3806,1.3662,1.3001,1.1679,0.0,0.0,0.0,0.0,0.0,0.0,0.0,0.0,0.0,0.0,0.0,0.0,0.0,0.0,0.0,0.0,0.0,0.0,0.0,0.0,0.0,0.0,0.0,0.0,0.0,0.0,1.9593,2.2056,2.4209,0.0,0.0,0.0,0.0,0.0,0.0,0.0,0.0,0.0,3.2252,3.2598,3.2689,3.2196,3.2829,3.3496,3.3765,3.4207,3.4402,3.4068,3.4561,3.5058,0.0,0.0,0.0,0.0,0.0,0.0,0.0,0.0,0.0,0.0,0.0,0.0,0.0,0.0,0.0,0.0,0.0,0.0,0.0,0.0,0.0,0.0,0.0,0.0,0.0,0.0,0.0,2.5928,2.5198,0.0,0.0,0.0,0.0,0.0,0.0,0.0,0.0,0.0,0.0,0.0,2.8285,2.8561,0.0,0.0,0.0,0.0,0.0,0.0,0.0,0.0,0.0,0.0,0.0,0.0,2.2091,2.1888,2.1091,2.0048,1.874,1.6871,1.5299,1.4144,1.3763,1.3003,1.1656,0.0,0.0,0.0,0.0,0.0,0.0,0.0,0.0,0.0,0.0,0.0,0.0,0.0,0.0,0.0,0.0,0.0,0.0,0.0,0.0,0.0,0.0,0.0,0.0,0.0,2.0798,0.0,0.0,0.0,0.0,0.0,0.0,0.0,0.0,0.0,0.0,0.0,3.4438,3.3671,3.4023,3.4212,3.3773,3.4084,3.4766,0.0,0.0,0.0,0.0,0.0,0.0,0.0,0.0,0.0,0.0,0.0,0.0,0.0,0.0,4.1109,3.8901,3.8112,3.7789,3.7809,0.0,0.0,0.0,0.0,0.0,0.0,0.0,0.0,0.0,0.0,0.0,0.0,0.0,0.0,2.8012,2.8132,2.6927,0.0,0.0,0.0,0.0,0.0,0.0,0.0,0.0,2.9143,2.9756,3.0228,3.036,3.0137,0.0,2.9187,2.8256,0.0,0.0,0.0,0.0,0.0,0.0,0.0,0.0,2.2943,2.2536,2.1912,2.0841,1.9297,1.7408,1.5866,1.4613,1.3788,1.2986,1.2281,1.2131,1.2063,0.0,0.0,0.0,0.0,0.0,0.0,0.0,0.0,0.0,0.0,0.0,0.0,0.0,0.0,0.0,0.0,0.0,0.0,0.0,0.0,0.0,0.0,0.0,2.2923,0.0,0.0,0.0,0.0,0.0,0.0,0.0,0.0,0.0,3.4666,3.5544,3.5864,3.5001,3.5334,3.5562,3.5253,0.0,0.0,0.0,0.0,0.0,0.0,0.0,3.7759,3.8793,3.9781,4.0887,4.2294,4.3548,4.4257,4.3974,0.0,0.0,4.1615,4.0725,4.0304,4.0297,4.0622,4.0732,4.0166,4.0381,4.0277,0.0,0.0,0.0,0.0,0.0,0.0,0.0,0.0,2.9423,2.9896,0.0,2.8833,0.0,0.0,0.0,0.0,2.8089,2.8535,0.0,0.0,3.0555,3.1162,3.1728,3.16,3.1432,3.1257,3.069,3.0218,2.9811,2.7901,0.0,0.0,0.0,0.0,0.0,0.0,2.4348,2.3091,2.3155,2.2153,1.9799,1.8273,1.6726,1.511,1.3685,1.3086,1.3426,1.2402,1.2263,1.3231,1.1696,0.0,0.0,0.0,0.0,0.0,0.0,0.0,0.0,0.0,0.0,0.0,0.0,0.0,0.0,0.0,0.0,0.0,0.0,0.0,0.0,2.2821,0.0,0.0,0.0,0.0,0.0,0.0,0.0,0.0,0.0,0.0,3.6579,3.6638,3.657,3.6272,0.0,0.0,0.0,0.0,3.7353,3.7642,3.7787,3.7874,3.7874,3.8438,3.8899,3.8976,0.0,0.0,4.3914,4.4699,4.4831,4.3838,4.3978,4.4292,4.453,4.353,4.2783,4.2729,4.2355,4.2162,4.2105,4.1533,4.1132,3.2723,0.0,0.0,0.0,0.0,3.2765,3.2319,3.1665,3.1771,3.1545,3.1096,2.9966,0.0,0.0,0.0,0.0,0.0,0.0,2.9625,3.1045,3.1227,3.1483,3.1783,3.13,3.0971,3.0723,3.0149,2.9705,2.9364,2.8756,2.789,2.6748,0.0,0.0,0.0,0.0,2.4207,2.2665,2.2628,2.1615,1.9253,1.8425,1.7076,1.5132,1.3981,1.3389,1.3496,1.3413,1.3569,1.3853,1.3302,0.0,0.0,0.0,0.0,0.0,0.0,0.0,0.0,0.0,0.0,0.0,0.0,0.0,0.0,0.0,0.0,0.0,0.0,0.0,2.3944,2.5574,2.7549,0.0,0.0,0.0,0.0,0.0,0.0,0.0,0.0,0.0,3.8217,3.8156,3.7898,0.0,0.0,3.7726,3.7772,3.8071,3.8509,3.9138,3.9295,0.0,3.9296,3.907,3.928,4.0357,4.2094,4.3608,4.4518,4.484,4.4939,4.4733,4.431,4.4045,4.4221,4.357,4.2823,4.2466,4.2313,4.2102,4.1742,4.156,4.1162,3.3286,3.3142,3.2655,3.267,3.3107,3.309,3.2946,3.272,3.2385,3.1842,3.1176,3.0722,3.0277,2.9854,2.9854,0.0,0.0,0.0,3.0363,3.1385,3.1406,3.1521,3.1651,3.1162,3.0804,3.0576,3.0038,2.9617,2.9412,2.9229,2.8762,2.8093,0.0,0.0,2.5639,2.5326,2.4371,2.2865,2.2573,2.1471,1.9334,1.8175,1.6854,1.5438,1.4307,1.3838,1.4014,1.3978,1.4189,1.4583,1.4227,1.4142,0.0,0.0,0.0,0.0,0.0,0.0,0.0,0.0,0.0,0.0,0.0,1.5599,1.6208,0.0,0.0,0.0,2.0957,2.3231,2.6058,2.761,0.0,0.0,0.0,0.0,0.0,0.0,0.0,3.8951,3.9405,3.9675,3.9755,3.9424,3.8934,3.8264,3.834,3.8492,3.8775,0.0,3.9255,3.9832,3.9889,3.9889,3.987,3.9558,3.9846,4.143,4.2488,4.3646,4.4819,4.5031,4.5031,4.4948,4.4565,4.4148,4.3932,4.3453,4.2993,4.2546,4.2157,4.1846,4.1525,4.1213,4.0548,3.3099,3.2731,3.2699,3.2369,3.1817,3.1817,3.2435,3.3265,3.1868,3.1185,3.11,3.1151,3.1151,3.1151,3.1151,0.0,3.0975,3.114,3.1235,3.123,3.1274,3.1406,3.1462,3.1151,3.0838,3.0692,3.0156,2.9913,2.9814,2.9305,2.9213,2.9396,2.8271,2.7479,2.7093,2.6015,2.4779,2.3478,2.2879,2.1648,1.977,1.7698,1.6381,1.5807,1.4755,1.4375,1.4756,1.4204,1.4335,1.5332,1.4653,1.4475,1.4895,0.0,0.0,0.0,0.0,0.0,0.0,0.0,0.0,0.0,0.0,0.0,0.0,0.0,0.0,0.0,2.4285,0.0,2.7302,2.9101,0.0,0.0,0.0,3.595,3.6921,3.8436,3.9511,3.9859,0.0,0.0,4.1111,4.0451,3.9761,3.9128,3.8966,3.9073,3.9502,3.9532,3.9623,3.98,3.9845,3.9845,3.9781,3.9819,4.0386,4.1812,4.2361,4.3159,4.465,4.5134,4.5006,4.4787,4.4705,4.4445,4.3628,4.3503,4.3326,4.302,4.2195,4.1569,4.1499,4.0908,3.98,3.2568,3.195,3.195,3.2206,3.2628,3.2628,3.2909,3.3253,3.2043,3.1,3.017,3.0484,3.0658,3.0658,3.0658,3.0642,3.0617,3.0699,3.0885,3.1274,3.1406,3.15,3.1559,3.0942,3.0617,3.0477,2.9722,2.9289,2.9259,2.8982,2.8779,2.8716,2.7993,2.7545,2.7363,2.6419,2.5077,2.3307,2.312,2.1767,1.9179,1.7778,1.6645,1.5763,1.5004,1.4678,1.4775,1.4617,1.481,1.54,1.552,1.5664,1.5771,1.4996,0.0,0.0,0.0,0.0,0.0,0.0,0.0,0.0,0.0,1.9968,2.027,0.0,2.2704,0.0,2.4867,2.6891,2.9372,3.0494,0.0,0.0,3.6156,3.7244,3.8018,3.9852,4.0727,3.9894,4.1103,4.1791,4.1185,4.0946,4.0694,4.0437,3.9589,3.9073,3.9324,3.9324,3.9317,3.935,3.9287,3.9216,3.9279,3.9757,4.0347,4.1045,4.2202,4.3243,4.3931,4.4592,4.4949,4.4862,4.4638,4.4395,4.4152,4.3973,4.3684,4.3331,4.2603,4.1931,4.1569,4.1296,4.0444,3.2368,3.1731,3.1694,3.1747,3.1851,3.2059,3.2236,3.2367,3.1483,3.0366,2.9199,2.9884,3.0309,3.0477,3.0477,3.0625,3.0861,3.0821,3.0982,3.1295,3.1351,3.1334,3.1235,3.0773,3.0384,3.0182,2.9454,2.9091,2.9091,2.8811,2.8606,2.8463,2.783,2.7378,2.7195,2.6341,2.5182,2.3727,2.291,2.13,1.8987,1.799,1.7065,1.6015,1.5389,1.4945,1.4668,1.4945,1.4936,1.4579,1.552,1.5943,1.5689,1.5581,1.5702,0.0,0.0,0.0,0.0,0.0,0.0,0.0,0.0,0.0,0.0,0.0,2.4543,2.542,2.7039,2.89,3.0945,3.254,3.4343,3.6448,3.7681,3.867,3.9472,4.0753,4.1399,4.0931,4.1679,4.2068,4.1633,4.1432,4.1138,4.0704,3.9891,3.9398,3.948,3.9239,3.9008,3.9091,3.9054,3.9008,3.9008,3.9352,3.9981,4.0935,4.1668,4.231,4.2953,4.3236,4.3328,4.3098,4.3378,4.3636,4.3515,4.389,4.4003,4.366,4.3287,4.2772,4.2114,3.9542,3.6711,3.2493,3.1795,3.1795,3.1308,3.0535,3.0918,3.1103,3.105,3.0525,2.9626,2.8522,2.9347,2.9924,3.0351,3.0393,3.0625,3.1004,3.1038,3.1078,3.114,3.1123,3.1021,3.0831,3.0551,3.0179,2.975,2.943,2.9217,2.9217,2.8982,2.8759,2.8565,2.7855,2.7247,2.6846,2.6107,2.5269,2.4341,2.2369,2.0564,1.9,1.8267,1.737,1.63,1.572,1.5205,1.4721,1.5204,1.4977,1.403,1.5449,1.6036,1.548,1.6287,1.6641,0.0,1.6819,0.0,0.0,0.0,0.0,0.0,0.0,0.0,0.0,2.5741,2.6882,2.7993,2.9752,3.1161,3.2038,3.4492,3.6416,3.7637,3.8795,3.9834,4.0621,4.1122,4.1604,4.2074,4.2175,4.2216,4.2167,4.189,4.1358,4.0724,4.0075,3.9717,3.9685,3.9085,3.8591,3.881,3.8744,3.8548,3.8596,3.8718,3.9191,4.0428,4.0811,4.0994,4.1717,4.1776,4.1515,4.1162,4.1845,4.24,4.2147,4.3075,4.3763,4.3593,4.3404,4.3116,4.2374,3.8593,3.2898,3.3154,3.219,3.2173,3.1537,3.0518,3.0617,3.0551,3.0348,2.9653,2.9239,2.9007,2.9164,2.9303,2.9393,2.975,2.9793,2.9556,2.9865,3.0199,3.0426,3.0549,3.0558,3.041,3.0201,2.9923,2.9677,2.983,2.9927,2.9896,2.9855,2.9605,2.9207,2.8645,2.7862,2.6861,0.0,0.0,0.0,2.1714,2.011,1.9326,1.791,1.6845,1.6168,1.5655,0.0,1.5807,1.5947,1.6043,1.609,1.6767,0.0,0.0,0.0,0.0,0.0,0.0,0.0,0.0,0.0,0.0,0.0,2.5949,2.6208,2.6862,2.8211,2.9204,2.9551,3.0881,3.2095,3.2886,3.4623,3.6095,3.6942,3.8275,3.9312,3.9783,4.0542,4.115,4.1604,4.1948,4.2216,4.2157,4.2136,4.1953,4.141,4.0384,3.9548,3.9288,3.8455,3.7949,3.7913,3.7631,3.7324,3.7305,3.7468,3.7607,3.7791,3.9177,4.0047,4.0044,4.0877,4.1492,4.1233,4.1245,4.1044,4.1002,4.1155,4.1662,4.2434,4.195,4.1643,4.2466,4.1655,3.8415,3.34,3.2479,3.2731,3.2057,0.0,3.1099,3.0706,2.9895,2.9343,2.8951,2.8748,2.8748,2.9061,2.9595,2.9812,3.0158,3.0432,3.0709,3.0846,3.0998,3.0664,3.0619,3.0891,3.0396,3.0069,2.9861,2.9859,2.9792,2.9587,2.9409,2.9193,2.8902,2.8497,2.7954,2.7284,2.6126,2.4892,2.3551,2.2321,2.1099,1.9935,1.8772,1.7809,1.6941,1.6355,0.0,0.0,0.0,0.0,0.0,0.0,0.0,0.0,0.0,0.0,1.8177,1.8635,1.9681,2.1376,2.236,2.4029,2.6725,2.7953,2.8499,2.8139,2.9289,3.0249,3.0852,3.2244,3.3545,3.4632,3.5958,3.708,3.7809,3.8575,3.9222,3.9833,4.0086,4.0511,4.11,4.1237,4.1356,4.1534,4.1753,4.1437,4.0665,3.9721,3.8769,3.7958,3.7544,3.7246,3.6946,3.6711,3.6411,3.617,3.6182,3.6393,3.6701,3.7643,3.8346,3.8302,3.874,3.9059,3.882,3.8959,3.9289,3.9321,3.9939,4.0778,4.1229,4.0634,3.9908,4.0138,3.8781,3.5353,3.3761,3.2995,3.3335,3.2583,3.1291,3.1614,3.1002,2.9806,2.9386,0.0,0.0,2.8765,2.9288,3.0162,3.0162,3.0671,3.1518,3.1486,3.1486,3.1566,3.0831,3.0815,3.1356,3.0937,3.0503,3.0015,2.9924,2.966,2.9163,2.8999,2.8828,2.8713,2.8438,2.8043,2.752,2.5962,2.4516,2.3292,2.2946,2.2019,2.0476,1.9669,1.8753,1.7781,1.7073,1.6504,1.6103,1.6552,1.6398,1.548,1.6354,1.684,1.6683,1.7206,1.7932,1.8859,1.9756,2.0797,2.1955,2.3155,2.481,2.7187,2.9313,3.0064,2.9068,2.9943,3.093,3.1716,3.3322,3.468,3.5786,3.6975,3.7985,3.8551,3.8788,3.9185,3.9918,3.9747,3.9817,4.0402,4.037,4.0288,4.0566,4.0896,4.0666,3.9412,3.8807,3.7991,3.6675,3.6412,3.6246,3.5814,3.564,3.5518,3.5064,3.4835,3.5035,3.5361,3.5892,3.6348,3.646,3.6472,3.623,3.6183,3.6651,3.7163,3.74,3.8342,3.9688,4.0014,3.9049,3.8116,3.7378,3.4729,3.0712,3.4928,3.4189,3.3801,3.2919,3.1741,3.1389,3.0861,3.0283,2.9817,2.9787,3.0135,3.0151,3.0181,3.0361,3.0377,3.0474,3.0567,3.0158,3.0314,3.0892,3.0572,3.0572,3.0939,3.1766,3.1306,2.9894,3.0268,3.0332,2.9925,2.9957,3.0053,2.9978,2.9582,2.8547,2.695,2.6054,2.5052,2.3705,2.215,2.0962,2.018,1.9084,1.8168,1.7471,1.7007,1.685,1.721,1.7272,1.7353,1.7514,1.7697,1.7794,1.7775,1.7862,1.8174,1.8705,2.0169,2.1441,2.2447,2.3961,2.5782,2.7721,2.9331,3.0129,3.009,3.1125,3.1792,3.1877,3.3419,3.4415,3.4738,3.6137,3.7147,3.7251,3.7985,3.8655,3.9185,3.9131,3.9222,3.9454,3.961,3.9627,3.9558,3.9749,3.9732,3.9066,3.8179,3.7395,3.6179,3.5481,3.4847,3.4414,3.4284,3.4104,3.3639,3.3208,3.3039,3.2485,3.3645,3.4527,3.4506,3.514,3.5555,3.5695,3.5428,3.5284,3.5269,3.5349,3.6104,3.691,3.6043,3.5344,3.6,3.3801,3.0132,3.4363,3.3827,3.3827,3.3192,3.2163,3.192,3.1674,3.1418,3.0894,3.0548,3.0376,3.0136,3.0228,3.0509,3.0292,3.0378,3.0709,3.0485,3.0764,3.1289,3.1454,3.1424,3.1289,3.1558,3.1086,3.0059,3.0308,3.0236,2.9789,2.9893,2.9898,2.9898,2.931,2.8575,2.7637,2.6388,2.5405,2.476,2.2862,2.174,2.1408,2.0115,1.9172,1.8667,1.8281,1.8096,1.8066,1.8311,1.8527,1.8691,1.8691,1.8701,1.8711,1.8842,1.9264,2.0278,2.1051,2.2195,2.3688,2.5567,2.7194,2.8412,2.9975,3.1003,3.1349,3.1678,3.2235,3.3022,3.4113,3.4891,3.5412,3.6153,3.6768,3.7147,3.7594,3.8173,3.8805,3.8766,3.8805,3.9098,3.9259,3.9189,3.8957,3.9172,3.9065,3.8342,3.7084,3.5754,3.4608,3.4043,3.3772,3.3707,3.3489,3.292,3.2231,3.2137,3.2045,3.19,3.299,3.3535,3.3275,3.3696,3.3825,3.3557,3.3462,3.3254,3.2596,3.2933,3.3286,3.2577,3.199,3.1397,3.0848,2.8332,2.476,3.3767,3.3407,3.3563,3.3024,3.2104,3.2165,3.2175,3.201,3.1522,3.1005,3.0494,3.0147,3.0268,3.0717,3.0406,3.0499,3.0925,3.0896,3.1073,3.1524,3.1895,3.188,3.1495,3.0936,3.0529,3.0343,3.0326,3.0083,2.9665,2.9602,2.954,2.9338,2.8776,2.8363,2.8025,2.6511,2.564,2.5197,2.3582,2.2593,2.2298,2.1167,2.0224,1.9665,1.938,1.9121,1.8828,1.9088,1.9263,1.9287,1.9263,1.9273,1.9287,1.9423,2.0175,2.1436,2.1889,2.3052,2.5369,2.7206,2.8572,2.9349,3.0799,3.1893,3.2328,3.2266,3.2654,3.3883,3.461,3.5319,3.595,3.6322,3.6631,3.7087,3.7163,3.7578,3.8399,3.8303,3.823,3.8701,3.8662,3.8407,3.8262,3.8358,3.8076,3.7081,3.5691,3.4394,3.3534,3.3304,3.3309,3.3231,3.3004,3.2467,3.1439,3.146,3.1718,3.1776,3.2313,3.2464,3.2067,3.1997,3.1548,3.1061,3.1109,3.0995,3.0098,3.0755,3.1156,3.0424,2.9542,2.7903,2.5666,2.2692,1.9402,3.3935,3.3767,3.2971,3.2043,3.1204,3.1485,3.1441,3.1117,3.0734,3.0749,3.0836,3.0895,3.0837,3.0999,3.0852,3.0896,3.0911,3.0553,3.0613,3.1043,3.1115,3.11,3.0999,3.0163,2.9896,3.0269,3.0266,3.0021,2.9602,2.9602,2.9261,2.8634,2.8556,2.7855,2.6731,2.642,2.5624,2.4255,2.3425,2.2545,2.164,2.1435,2.0734,1.9374,1.934,1.9268,1.9238,1.9251,1.929,1.9253,1.9354,1.929,1.9326,1.937,1.9892,2.1209,2.2099,2.4038,2.7472,2.8637,2.9604,3.0849,3.1608,3.2429,3.3033,3.3245,3.3376,3.3755,3.4673,3.5295,3.5514,3.6024,3.6322,3.6446,3.6508,3.6768,3.7401,3.7222,3.7207,3.7519,3.731,3.6951,3.6631,3.6538,3.6276,3.5819,3.5215,3.464,3.4339,3.3897,3.3537,3.3267,3.2981,3.2587,3.1968,3.1415,3.1222,3.1335,3.0688,3.0583,3.054,2.9941,2.9142,2.8885,2.8602,2.8421,2.8692,2.9337,2.9567,2.9018,2.8062,2.6864,2.2808,1.9645,1.7257,3.2501,3.221,3.1777,3.1407,3.1043,3.1176,3.0999,3.0671,3.048,3.03,3.0205,3.0205,3.0312,3.0553,3.0312,3.0144,3.0129,2.996,3.0129,3.0553,3.0283,3.0329,3.051,2.9952,2.974,2.9884,2.9913,2.9789,2.9602,2.9602,2.9261,2.8505,2.8103,2.7404,2.6414,2.6013,2.5429,2.4779,2.4047,2.3251,2.2422,2.1418,2.0565,1.9781,1.9902,1.9912,1.9727,1.9915,2.0061,2.0124,2.0542,2.0757,2.0771,2.1302,2.223,2.3479,2.4703,2.5935,2.7333,2.8633,2.9638,3.0505,3.1814,3.2863,3.3343,3.3632,3.3768,3.3797,3.4389,3.4787,3.4839,3.5088,3.535,3.5706,3.5819,3.6087,3.6723,3.6569,3.643,3.6384,3.6306,3.6056,3.5578,3.5385,3.5175,3.4743,3.4476,3.4259,3.3962,3.3381,3.2848,3.2556,3.2111,3.1599,3.1143,3.0705,3.0492,3.0357,2.9891,2.953,2.8805,2.8089,2.7232,2.6687,2.6642,2.6222,2.5605,2.6315,2.6782,2.6411,2.4345,2.2276,1.9894,1.775,1.554,3.1437,3.1029,3.0851,3.0732,3.0613,3.0613,3.0462,3.0262,3.0158,2.9913,2.9602,2.9602,2.9789,3.0021,2.9727,2.9602,2.9602,2.9602,2.9789,3.0054,2.9761,2.9775,3.004,2.9775,2.9605,2.9574,2.9602,2.9602,2.9602,2.9387,2.8917,2.8247,2.7537,2.6812,2.6139,2.5523,2.5158,2.4933,2.4192,2.3463,2.2563,2.1318,2.041,2.0146,2.04,2.041,2.0117,2.04,2.0625,2.0732,2.1336,2.184,2.2205,2.2841,2.3904,2.5298,2.6733,2.7631,2.7829,2.9204,3.0308,3.107,3.2388,3.3232,3.3547,3.3744,3.3896,3.3868,3.4088,3.4346,3.4534,3.4587,3.4824,3.5204,3.5139,3.5335,3.5882,3.5804,3.5612,3.5563,3.5499,3.5225,3.4677,3.4259,3.3905,3.3561,3.3283,3.3143,3.269,3.2173,3.1769,3.1709,3.1093,3.0642,3.045,3.0151,2.996,2.9653,2.9365,2.81,2.7302,2.6546,2.5471,2.4988,2.5135,2.5051,2.4405,2.447,2.4703,2.3095,2.1614,2.0088,1.9029,1.6833,1.49,3.1437,3.097,3.0493,3.0083,2.9665,2.9727,2.9665,2.9679,2.9665,2.9602,2.9602,2.9602,2.9602,2.9665,2.9602,2.9602,2.9602,2.9602,2.9602,2.9665,2.9637,2.9588,2.9602,2.9588,2.9588,2.9602,2.954,2.9477,2.9463,2.8853,2.8182,2.7537,2.6879,2.6139,2.5523,2.5382,2.4933,2.4394,2.3593,2.2777,2.1949,2.1128,2.0615,2.0586,2.0557,2.0557,2.0547,2.0557,2.0762,2.1182,2.1269,2.1839,2.2938,2.3221,2.4097,2.5635,2.7335,2.8835,2.9928,3.0811,3.1859,3.3031,3.3255,3.3548,3.3577,3.3744,3.3827,3.3896,3.3882,3.4128,3.4639,3.4743,3.4876,3.4824,3.4438,3.4505,3.4942,3.4758,3.4773,3.5088,3.4758,3.4153,3.3646,3.2832,3.2434,3.2146,3.1623,3.118,3.1093,3.0957,3.0807,3.0568,3.0203,2.9961,3.0491,2.9745,2.9681,2.9297,2.7905,2.6685,2.6262,2.5587,2.4265,2.3183,2.2989,2.2989,2.3183,2.3347,2.3674,2.3066,2.2513,2.1155,1.8677,1.6806,1.5159,3.0568,3.0083,2.9898,2.9775,2.9602,2.9602,2.9602,2.9602,2.9602,2.9602,2.9602,2.9602,2.9602,2.9602,2.9602,2.9602,2.9602,2.9602,2.9602,2.9602,2.9602,2.9602,2.9602,2.9602,2.9602,2.954,2.9135,2.8648,2.8274,2.7999,2.7537,2.6879,2.6552,2.6,2.5453,2.5312,2.5314,2.525,2.4071,2.3406,2.33,2.211,2.1406,2.1377,2.085,2.0703,2.0986,2.0965,2.1179,2.1631,2.2148,2.2625,2.3174,2.4475,2.5758,2.6901,2.7883,2.8691,2.9224,3.0446,3.1336,3.1829,3.286,3.3396,3.3396,3.3466,3.3536,3.3536,3.3536,3.3646,3.3839,3.4113,3.4317,3.4264,3.4074,3.4005,3.4128,3.4074,3.4005,3.4045,3.3465,3.2662,3.2087,3.1563,3.1328,3.1341,3.1044,3.0644,3.0075,2.9693,2.9229,2.8476,2.7705,2.7267,2.7313,2.7728,2.7763,2.7244,2.6262,2.5104,2.4351,2.3922,2.2755,2.2492,2.19,2.1615,2.2031,2.1756,2.211,2.1471,2.1096,2.0407,1.8247,1.648,1.5438,2.9898,2.9602,2.9602,2.9602,2.9602,2.9602,2.9602,2.9602,2.9602,2.9602,2.9602,2.9602,2.9602,2.954,2.9338,2.9401,2.954,2.9401,2.9261,2.9261,2.9008,2.8944,2.8944,2.8958,2.9071,2.9198,2.898,2.8549,2.8067,2.7812,2.7443,2.6954,2.6673,2.6318,2.5829,2.5539,2.5583,2.5546,2.4282,2.3624,2.3753,2.2676,2.1894,2.1807,2.1299,2.1123,2.1435,2.1399,2.1603,2.2134,2.2865,2.368,2.4508,2.6074,2.7317,2.7939,2.8518,2.904,2.9406,3.0519,3.1402,3.1649,3.2632,3.3312,3.3312,3.3312,3.3312,3.3312,3.3312,3.3312,3.3326,3.3536,3.3675,3.3675,3.3521,3.3353,3.3283,3.2931,3.269,3.2618,3.216,3.1489,3.097,3.0657,3.0519,3.0519,3.0291,2.9731,2.8917,2.8378,2.7671,2.6814,2.6273,2.5975,2.5786,2.6025,2.6119,2.5608,2.4724,2.3481,2.2726,2.2227,2.1891,2.1633,2.1356,2.1069,2.0701,2.043,1.9877,1.9239,1.9123,1.8899,1.7424,1.6236,1.5334,2.9602,2.9602,2.9602,2.9602,2.9602,2.954,2.954,2.9602,2.954,2.9449,2.9345,2.9526,2.9463,2.9338,2.8776,2.8853,2.9198,2.8716,2.8549,2.86,2.8066,2.7775,2.7841,2.7947,2.8133,2.8552,2.9204,2.9316,2.8865,2.836,2.7966,2.7776,2.7139,2.6793,2.68,2.6077,2.5689,2.5527,2.4263,2.3346,2.3022,2.2469,2.2012,2.1982,2.1904,2.1904,2.1924,2.1913,2.2087,2.25,2.3273,2.484,2.6524,2.7602,2.8303,2.8426,2.9172,2.9922,3.0683,3.1341,3.2028,3.2632,3.31,3.3086,3.3241,3.3241,3.3241,3.3312,3.3312,3.3312,3.3312,3.3312,3.3382,3.3255,3.2988,3.2605,3.216,3.1489,3.097,3.097,3.0895,3.0882,3.0657,2.9973,2.9537,2.9381,2.8924,2.8143,2.7383,2.6987,2.6659,2.5902,2.5221,2.4808,2.4628,2.4447,2.4361,2.4094,2.3124,2.2092,2.156,2.1141,2.0881,2.0619,2.0447,2.0068,1.9604,1.933,1.9322,1.8772,1.8388,1.7832,1.6814,1.5798,1.5038,2.9602,2.9602,2.9602,2.9602,2.954,2.9044,2.9121,2.954,2.9058,2.8575,2.8325,2.8616,2.8597,2.8208,2.7934,2.7934,2.8105,2.7782,2.8127,2.8892,2.8746,2.8609,2.8569,2.8565,2.8451,2.8228,2.8381,2.8177,2.777,2.753,2.7287,2.7186,2.7022,2.6923,2.6896,2.6633,2.6612,2.68,2.5303,2.4555,2.4772,2.3483,2.2744,2.2744,2.2754,2.2754,2.2734,2.2454,2.2502,2.291,2.3181,2.4245,2.5891,2.6494,2.7244,2.8339,2.8736,2.8961,2.9263,2.9999,3.0895,3.1516,3.1663,3.2259,3.3016,3.2803,3.2789,3.3171,3.3312,3.3312,3.3312,3.3312,3.3241,3.3312,3.3157,3.2618,3.1942,3.1267,3.067,3.0139,3.0075,2.9858,2.9238,2.8542,2.8039,2.7959,2.7313,2.6423,2.5673,2.5589,2.4914,2.3983,2.3714,2.3424,2.2882,2.261,2.2444,2.2161,2.1373,2.0836,2.0395,2.0042,1.9778,1.9613,1.943,1.9072,1.8603,1.8326,1.8319,1.8126,1.7569,1.6915,1.6271,1.5514,1.4663,2.9602,2.9602,2.9602,2.9602,2.954,2.9058,2.8829,2.883,2.8616,2.8123,2.7691,2.7918,2.792,2.7523,2.7437,2.7527,2.7795,2.7563,2.8061,2.8895,2.8573,2.8389,2.8324,2.8626,2.8482,2.8119,2.8265,2.8099,2.7653,2.7578,2.7536,2.7488,2.7524,2.7305,2.696,2.6636,2.6574,2.6336,2.5042,2.4441,2.4501,2.3734,2.3144,2.3135,2.3135,2.3144,2.3115,2.313,2.3368,2.3597,2.3907,2.4819,2.6174,2.6579,2.7107,2.8046,2.8626,2.8972,2.923,2.9686,3.0113,3.1005,3.151,3.2045,3.2904,3.2818,3.3123,3.3199,3.3016,3.286,3.2789,3.2561,3.2417,3.2403,3.2331,3.1869,3.097,3.0304,2.9601,2.8991,2.8755,2.8371,2.7568,2.7162,2.667,2.6577,2.6163,2.5495,2.4829,2.4573,2.382,2.3135,2.296,2.2306,2.1033,2.0683,2.0512,2.0141,1.9596,1.9322,1.9047,1.8864,1.8596,1.8788,1.8703,1.8527,1.7971,1.7591,1.7404,1.7023,1.6835,1.6553,1.5994,1.514,1.4286,2.954,2.9477,2.954,2.9463,2.9338,2.9198,2.8675,2.7963,2.815,2.8011,2.7538,2.7589,2.7546,2.7408,2.7246,2.7493,2.8074,2.799,2.8101,2.8325,2.784,2.7366,2.749,2.8002,2.8151,2.8163,2.8638,2.8842,2.8548,2.8572,2.8679,2.8409,2.8342,2.8051,2.7198,2.6295,2.5732,2.4999,2.3856,2.3444,2.3474,2.3125,2.3184,2.3203,2.3223,2.3262,2.3408,2.4068,2.4571,2.468,2.5295,2.6107,2.7087,2.7702,2.7966,2.8312,2.8917,2.9573,3.0164,2.9915,3.0274,3.1436,3.2027,3.2922,3.2779,3.3022,3.3111,3.2858,3.2403,3.2015,3.1942,3.1489,3.1119,3.0895,3.097,3.0291,2.8961,2.8736,2.8486,2.7742,2.7255,2.6917,2.634,2.5997,2.5746,2.5663,2.5568,2.4904,2.4488,2.3983,2.3647,2.3038,2.2157,2.097,1.9778,1.996,1.9695,1.8503,1.8141,1.8234,1.7863,1.7677,1.7584,1.7684,1.787,1.7699,1.7512,1.7044,1.6857,1.6763,1.6567,1.6292,1.5527,1.4573,1.3811,2.9008,2.8143,2.8583,2.8519,2.7999,2.7484,2.8012,2.8758,2.7906,2.7449,2.7251,2.7637,2.7498,2.709,2.7054,2.7078,2.7336,2.7702,2.7843,2.796,2.8186,2.8077,2.8102,2.8234,2.8354,2.8419,2.859,2.8619,2.8585,2.8585,2.8603,2.8498,2.8582,2.8134,2.7267,2.688,2.634,2.5505,2.4584,2.409,2.4003,2.3426,2.3301,2.3603,2.3623,2.3769,2.4114,2.4966,2.548,2.5497,2.6021,2.6863,2.7687,2.828,2.8727,2.9354,2.9702,2.9965,3.0165,3.0114,3.0441,3.1165,3.1246,3.1175,3.1937,3.168,3.1546,3.1413,3.1267,3.1193,3.118,3.0957,3.0594,3.0152,2.9999,2.9768,2.9328,2.8882,2.8351,2.8099,2.7522,2.701,2.6423,2.5579,2.4819,2.4744,2.4402,2.3887,2.3637,2.2921,2.2482,2.1676,2.0692,1.9521,1.8788,1.9147,1.868,1.7124,1.685,1.7404,1.6943,1.6473,1.6379,1.6386,1.6756,1.6669,1.6676,1.6588,1.6494,1.6588,1.6008,1.5527,1.4573,1.3619,1.3039,2.8571,2.793,2.8478,2.8516,2.8134,2.7721,2.7996,2.8477,2.7893,2.7551,2.7592,2.7508,2.7285,2.6947,2.7164,2.726,2.7332,2.7813,2.8041,2.8089,2.8342,2.8462,2.8486,2.851,2.851,2.851,2.851,2.8498,2.8546,2.8727,2.8835,2.8919,2.9063,2.848,2.724,2.6981,2.6304,2.5123,2.4441,2.419,2.419,2.3851,2.3779,2.4023,2.4053,2.4281,2.4925,2.5482,2.6098,2.6777,2.7048,2.7375,2.8287,2.8786,2.9311,2.9874,3.0155,3.0422,3.0374,3.0242,3.0446,3.0937,3.0722,3.0979,3.1363,3.1146,3.1126,3.0924,3.0607,3.0443,3.0367,3.0152,2.9691,2.925,2.8846,2.8846,2.9094,2.8736,2.8167,2.7499,2.6917,2.6257,2.5663,2.4573,2.4069,2.381,2.356,2.3309,2.3047,2.2138,2.1311,2.0593,1.9778,1.878,1.8056,1.8141,1.7948,1.648,1.6204,1.6574,1.6386,1.5825,1.5825,1.592,1.5825,1.592,1.6116,1.6312,1.6501,1.6305,1.5534,1.486,1.4094,1.3039,1.2365,2.8369,2.82,2.8763,2.8912,2.8789,2.8815,2.8168,2.7645,2.7777,2.8125,2.8213,2.7454,2.7324,2.7052,2.7657,2.7801,2.7825,2.8234,2.8402,2.845,2.851,2.851,2.851,2.851,2.851,2.8534,2.8546,2.8631,2.8706,2.9054,2.9188,2.9106,2.9463,2.8694,2.7217,2.6704,2.5606,2.4376,2.4117,2.4028,2.4067,2.4111,2.4316,2.4473,2.4619,2.4898,2.5482,2.59,2.6451,2.8294,2.7712,2.7953,2.8729,2.9293,2.9723,2.9945,3.0593,3.0951,3.0903,3.0603,3.0434,3.0858,3.1132,3.1173,3.1041,3.0947,3.0906,3.0343,2.9922,2.9626,2.9471,2.8949,2.8736,2.8578,2.7834,2.7684,2.8099,2.8259,2.7592,2.608,2.583,2.4819,2.3897,2.3135,2.3135,2.3474,2.3135,2.295,2.2413,2.1498,2.0773,2.0133,1.9231,1.8319,1.7684,1.7138,1.6756,1.6015,1.592,1.6109,1.6103,1.5825,1.5825,1.5825,1.5825,1.5927,1.6021,1.6218,1.6312,1.6116,1.5439,1.4854,1.4178,1.2834,1.1873,2.8827,2.7262,2.7936,2.7925,2.7434,2.736,2.7308,2.7112,2.7581,2.8074,2.8336,2.824,2.8126,2.8138,2.8222,2.8342,2.8294,2.845,2.851,2.851,2.851,2.851,2.8431,2.8363,2.8455,2.8619,2.8955,2.9112,2.9162,2.8927,2.8773,2.8808,2.8245,2.7272,2.6394,2.6172,2.5429,2.4461,2.4287,2.4185,2.4205,2.4322,2.4545,2.4912,2.5129,2.541,2.5641,2.5737,2.6279,2.719,2.7661,2.7908,2.899,2.9699,3.0299,3.0879,3.1268,3.1468,3.1444,3.1288,3.1156,3.0941,3.0785,3.0592,2.9579,2.9748,2.9555,2.8992,2.8712,2.8803,2.8633,2.8578,2.8339,2.8099,2.751,2.7092,2.7267,2.6846,2.6329,2.583,2.5158,2.4573,2.4145,2.3387,2.3222,2.3135,2.2872,2.2599,2.1863,2.0953,2.0141,1.9413,1.8133,1.7217,1.7037,1.6574,1.6292,1.592,1.5825,1.5825,1.5825,1.5635,1.554,1.5635,1.5825,1.5825,1.554,1.5737,1.5737,1.554,1.5146,1.4274,1.3312,1.2155,1.1282,2.8387,2.7408,2.7995,2.8041,2.7669,2.7681,2.7687,2.7699,2.7963,2.8246,2.8462,2.851,2.851,2.851,2.851,2.851,2.851,2.8419,2.8271,2.8111,2.7834,2.758,2.7476,2.7474,2.76,2.8676,2.9136,2.9388,2.9475,2.9079,2.8824,2.8695,2.7864,2.7151,2.6136,2.5911,2.5265,2.4539,2.4352,2.4352,2.4361,2.4563,2.4708,2.4948,2.5208,2.5342,2.5304,2.5314,2.5596,2.6001,2.6395,2.7376,2.8867,2.9727,3.0429,3.0913,3.1484,3.1661,3.1649,3.142,3.1156,3.0793,3.0373,2.9726,2.9106,2.8855,2.85,2.8262,2.8191,2.8111,2.758,2.7162,2.7162,2.6917,2.6329,2.583,2.5841,2.583,2.5568,2.5242,2.4829,2.4327,2.382,2.3299,2.3125,2.296,2.2784,2.2413,2.1489,2.0494,1.9231,1.8319,1.6943,1.6211,1.6109,1.6015,1.6015,1.5825,1.5825,1.5825,1.5825,1.554,1.5255,1.535,1.5439,1.4867,1.4675,1.4867,1.4771,1.428,1.3698,1.3119,1.2344,1.1282,1.06,2.7915,2.7885,2.833,2.851,2.851,2.8474,2.8462,2.8498,2.8431,2.8383,2.8419,2.8431,2.8351,2.8351,2.8167,2.8167,2.7834,2.7649,2.7336,2.7185,2.6741,2.6483,2.6407,2.6466,2.6956,2.8787,2.882,2.9078,2.9097,2.8965,2.8217,2.8385,2.7761,2.673,2.6094,2.5819,2.5241,2.4603,2.4507,2.4507,2.4439,2.4695,2.4837,2.4875,2.4903,2.4941,2.4941,2.4941,2.4941,2.4941,2.4941,2.6061,2.7652,2.905,2.9886,2.9966,3.0718,3.0992,3.1173,3.0874,3.0539,3.0319,2.957,2.8822,2.8422,2.7988,2.7615,2.7464,2.7255,2.7092,2.6554,2.6058,2.5652,2.54,2.4638,2.4231,2.4402,2.4988,2.4648,2.4402,2.4155,2.382,2.3299,2.2775,2.2775,2.2775,2.2511,2.1961,2.0854,1.9852,1.8588,1.7584,1.6487,1.554,1.535,1.573,1.5635,1.535,1.5445,1.5635,1.5635,1.5255,1.4873,1.4962,1.486,1.419,1.3703,1.38,1.3601,1.2926,1.2441,1.2052,1.1375,1.0404,1.0015,2.8971,2.839,2.8474,2.851,2.851,2.851,2.8467,2.8491,2.8283,2.8191,2.803,2.8042,2.8042,2.7788,2.7162,2.6472,2.6058,2.5964,2.5808,2.5735,2.5568,2.5579,2.5561,2.5711,2.6498,2.7074,2.7357,2.7551,2.7644,2.7097,2.7139,2.6771,2.6001,2.5401,2.5294,2.5042,2.4956,2.4654,2.4664,2.4673,2.4711,2.4767,2.4843,2.4843,2.4843,2.4833,2.4843,2.4843,2.4941,2.4941,2.4941,2.5118,2.5781,2.6713,2.7808,2.8907,2.9319,2.963,3.0045,2.9809,2.9435,2.9093,2.8609,2.7879,2.7096,2.6738,2.6423,2.5986,2.5808,2.5808,2.6389,2.5473,2.5126,2.4882,2.4382,2.38,2.3714,2.3541,2.3377,2.3387,2.3309,2.3309,2.2872,2.2422,2.2236,2.1863,2.1409,2.0512,1.9231,1.8503,1.7684,1.6857,1.6116,1.535,1.4675,1.5159,1.535,1.4771,1.4771,1.5242,1.5057,1.4777,1.4586,1.4478,1.3992,1.3312,1.3022,1.2829,1.2538,1.2052,1.1565,1.1175,1.0694,1.0113,0.9821,2.8882,2.8498,2.8431,2.8339,2.8351,2.8203,2.8342,2.8414,2.8158,2.7822,2.7718,2.7753,2.7626,2.7174,2.6741,2.5964,2.5126,2.4957,2.4872,2.4808,2.4467,2.4364,2.4502,2.4763,2.4836,2.5079,2.5401,2.6451,2.7315,2.6656,2.6224,2.5945,2.5109,2.4548,2.4548,2.4538,2.4548,2.4538,2.4538,2.4548,2.4548,2.4548,2.4548,2.4548,2.4548,2.4538,2.4538,2.4548,2.4548,2.4548,2.4548,2.4538,2.4735,2.508,2.5932,2.7283,2.7785,2.7986,2.8287,2.7861,2.7394,2.7097,2.6948,2.6356,2.5738,2.5495,2.54,2.5305,2.4978,2.5062,2.5316,2.4382,2.3704,2.3531,2.3202,2.3038,2.295,2.2599,2.2608,2.2696,2.2696,2.2696,2.2696,2.2157,2.1695,2.1051,2.0322,1.9139,1.7692,1.7326,1.6951,1.6292,1.5642,1.4873,1.4196,1.428,1.4472,1.3992,1.3998,1.4376,1.4178,1.3703,1.3607,1.3607,1.3022,1.2441,1.1858,1.156,1.1375,1.1184,1.0694,1.0306,1.0207,0.9916,0.9525,2.8431,2.8351,2.8179,2.8099,2.8099,2.7962,2.8125,2.8277,2.8009,2.7348,2.6805,2.7116,2.694,2.6246,2.5724,2.5126,2.419,2.4104,2.4003,2.3884,2.3457,2.3299,2.3463,2.342,2.3597,2.4031,2.4365,2.5285,2.627,2.5925,2.5654,2.5382,2.4529,2.4161,2.426,2.4251,2.4161,2.4161,2.4161,2.4161,2.4161,2.4161,2.4161,2.4161,2.4161,2.4251,2.4251,2.4251,2.426,2.426,2.426,2.426,2.4143,2.4079,2.4406,2.5253,2.6156,2.6445,2.6413,2.6053,2.5765,2.5615,2.5083,2.4765,2.4467,2.4382,2.4467,2.4978,2.4819,2.4307,2.4135,2.295,2.2264,2.2176,2.2176,2.2097,2.2264,2.2167,2.2167,2.2167,2.2167,2.198,2.1793,2.0692,1.9869,1.9413,1.868,1.8126,1.6943,1.6857,1.6487,1.5818,1.5159,1.449,1.3806,1.3216,1.3113,1.2727,1.2926,1.3409,1.3017,1.2436,1.2533,1.263,1.2145,1.156,1.0881,1.0395,1.0404,1.0212,0.9727,0.9529,0.9624,0.9521,0.9225,2.8111,2.7962,2.7973,2.7962,2.7881,2.78,2.7859,2.7929,2.758,2.6442,2.5099,2.5626,2.5579,2.4819,2.3867,2.3008,2.2422,2.24,2.264,2.2768,2.2772,2.3016,2.3448,2.3966,2.3849,2.3851,2.4272,2.4412,2.4913,2.4716,2.4529,2.444,2.444,2.4161,2.4161,2.4161,2.4161,2.4161,2.4161,2.4161,2.4161,2.4161,2.4161,2.4161,2.4161,2.4161,2.4161,2.4161,2.4161,2.4161,2.4161,2.4161,2.4106,2.3794,2.3437,2.3607,2.4054,2.4806,2.5067,2.4784,2.4471,2.4395,2.4358,2.4059,2.3617,2.3434,2.3531,2.3357,2.3357,2.3444,2.327,2.2413,2.1909,2.1741,2.183,2.183,2.182,2.1998,2.1909,2.1535,2.1356,2.0979,2.0692,1.9231,1.8048,1.7498,1.7131,1.6662,1.6379,1.6298,1.6298,1.573,1.4669,1.3806,1.313,1.2538,1.1955,1.1468,1.176,1.2247,1.1853,1.1463,1.1658,1.1658,1.1175,1.0881,1.0592,1.0109,0.9723,0.9529,0.943,0.9331,0.9236,0.9034,0.8829,2.7857,2.7812,2.7208,2.6951,2.6869,2.6268,2.6563,2.7099,2.6234,2.5357,2.4693,2.4851,2.4563,2.3617,2.2765,2.2078,2.1786,2.1961,2.2144,2.23,2.2575,2.2868,2.3321,2.3657,2.3786,2.4082,2.4239,2.4233,2.4251,2.4161,2.4161,2.4161,2.4161,2.4161,2.4161,2.4161,2.4161,2.4161,2.4161,2.4161,2.4161,2.4161,2.4161,2.4161,2.4161,2.4161,2.4161,2.4161,2.4161,2.4161,2.4161,2.4161,2.406,2.3767,2.3373,2.2997,2.3075,2.3205,2.3171,2.3047,2.3057,2.294,2.294,2.2677,2.2413,2.2843,2.3105,2.3096,2.3096,2.3105,2.2931,2.2246,2.19,2.1731,2.1731,2.1731,2.1731,2.1731,2.1642,2.1087,2.0538,2.0068,1.9596,1.878,1.7777,1.7225,1.6943,1.6669,1.6292,1.6015,1.592,1.5825,1.4567,1.3216,1.2441,1.176,1.089,1.0404,1.04,1.0694,1.0792,1.0694,1.0788,1.069,1.0301,1.0109,1.0109,0.9916,0.943,0.9331,0.913,0.9031,0.8935,0.8733,0.8531,2.7196,2.729,2.6434,2.6102,2.6019,2.4914,2.5179,2.6044,2.5061,2.4286,2.3912,2.377,2.3367,2.2755,2.2087,2.1796,2.1924,2.219,2.2456,2.2564,2.2726,2.3081,2.3574,2.3633,2.3849,2.4161,2.4233,2.4251,2.4251,2.4161,2.4161,2.4161,2.4161,2.4161,2.4161,2.4161,2.4161,2.4161,2.4161,2.4161,2.4161,2.4161,2.4161,2.4161,2.4161,2.4161,2.4161,2.4161,2.4161,2.4161,2.4161,2.4161,2.4088,2.3639,2.3263,2.2784,2.2612,2.217,2.2128,2.1919,2.1731,2.1731,2.1731,2.19,2.19,2.2501,2.2843,2.2677,2.3008,2.2931,2.2677,2.1989,2.182,2.1731,2.1731,2.1731,2.1642,2.1553,2.1275,2.0718,1.9985,1.898,1.8603,1.8141,1.7591,1.7037,1.6763,1.6581,1.6204,1.5825,1.5825,1.5825,1.4765,1.3312,1.2339,1.1468,1.0404,0.9628,0.9628,0.9723,1.0015,1.0015,1.0015,0.9723,0.9525,0.9529,0.9624,0.943,0.9137,0.9031,0.8928,0.8829,0.863,0.8432,0.8233,2.5902,2.5913,2.583,2.5735,2.5663,2.4914,2.4255,2.4008,2.4296,2.3431,2.2282,2.1966,2.2078,2.183,2.1894,2.197,2.2263,2.2309,2.2767,2.3112,2.3405,2.3596,2.3914,2.4033,2.4079,2.4143,2.4161,2.4161,2.4161,2.4161,2.4161,2.4161,2.4161,2.4161,2.4161,2.4161,2.4161,2.4161,2.4161,2.4161,2.4161,2.4161,2.4161,2.4161,2.4161,2.4161,2.4161,2.4161,2.4161,2.4161,2.4161,2.4161,2.4042,2.3464,2.307,2.2756,2.2163,2.1906,2.1823,2.1777,2.175,2.1741,2.1768,2.1823,2.1841,2.253,2.2589,2.2167,2.2501,2.2492,2.2157,2.1731,2.1731,2.1454,2.1365,2.1365,2.1275,2.1186,2.0817,2.0348,1.943,1.8427,1.7692,1.7318,1.6936,1.648,1.6386,1.6109,1.6109,1.5825,1.5825,1.5635,1.4873,1.3806,1.2727,1.176,1.0596,0.9916,0.9624,0.9624,0.9723,0.9624,0.9529,0.9426,0.9426,0.9232,0.9137,0.9038,0.8935,0.8829,0.8627,0.8531,0.8432,0.8237,0.8137,2.5819,2.5735,2.4628,2.4114,2.4039,2.3193,2.2658,2.2532,2.2658,2.2463,2.1692,2.1686,2.1731,2.1805,2.2025,2.2162,2.2392,2.2896,2.3235,2.3529,2.3785,2.3987,2.4152,2.4161,2.4152,2.4161,2.4161,2.4161,2.4161,2.4161,2.4161,2.4161,2.4152,2.4161,2.4161,2.4161,2.4161,2.4161,2.4161,2.4161,2.4161,2.4161,2.4161,2.4161,2.4161,2.4161,2.4161,2.4161,2.4161,2.4161,2.4152,2.4161,2.4042,2.3373,2.2939,2.2802,2.2126,2.1951,2.2016,2.1933,2.1841,2.208,2.2107,2.208,2.2043,2.2246,2.2106,2.1989,2.1989,2.198,2.1811,2.1642,2.1553,2.1087,2.0817,2.0817,2.0727,2.0538,2.0266,1.9621,1.8696,1.7692,1.7138,1.6487,1.6204,1.5825,1.5825,1.5825,1.5825,1.5825,1.5825,1.573,1.5064,1.41,1.3119,1.195,1.0881,1.0301,0.9723,0.9628,0.9529,0.9434,0.9335,0.9232,0.913,0.8931,0.8836,0.8737,0.8634,0.8531,0.8432,0.8237,0.8141,0.8041,0.8041,2.5562,2.5018,2.3545,2.2949,2.294,2.2069,2.1731,2.1731,2.1731,2.1823,2.1915,2.2016,2.2098,2.219,2.2364,2.263,2.2841,2.3235,2.3538,2.3794,2.3996,2.4143,2.4161,2.4161,2.4161,2.4161,2.4161,2.4161,2.4161,2.4161,2.4152,2.4152,2.4152,2.4161,2.4161,2.4161,2.4161,2.4161,2.4161,2.4161,2.4161,2.3854,2.3646,2.3546,2.3238,2.3029,2.3138,2.3247,2.3564,2.3755,2.3945,2.4152,2.3886,2.3519,2.3107,2.2813,2.2492,2.2135,2.2217,2.2245,2.2135,2.2483,2.2511,2.2447,2.2199,2.198,2.187,2.1651,2.1562,2.1463,2.1275,2.0997,2.0628,2.0076,1.9894,1.9803,1.9712,1.9521,1.9347,1.898,1.8056,1.7232,1.6669,1.6109,1.6015,1.5825,1.5825,1.5825,1.5825,1.5825,1.5825,1.5635,1.535,1.4382,1.3409,1.2436,1.156,1.069,1.0109,0.9628,0.9434,0.9236,0.9133,0.9031,0.8928,0.863,0.8535,0.8435,0.8336,0.8333,0.8137,0.8041,0.8041,0.8038,0.8038,2.4976,2.368,2.2756,2.2621,2.293,2.2078,2.175,2.1814,2.1851,2.2025,2.2346,2.2564,2.2729,2.2747,2.2774,2.307,2.3318,2.3519,2.3749,2.4024,2.4097,2.4152,2.4161,2.4161,2.4161,2.4161,2.4161,2.4161,2.4161,2.4152,2.4044,2.3954,2.4053,2.4053,2.4161,2.4152,2.4152,2.4152,2.4053,2.3954,2.3538,2.2828,2.2627,2.2308,2.1912,2.1599,2.181,2.2215,2.2518,2.2627,2.3311,2.3619,2.3755,2.3139,2.3008,2.3363,2.2628,2.2473,2.2784,2.2811,2.2857,2.2753,2.2735,2.2599,2.2382,2.2089,2.1726,2.1446,2.1186,2.0718,2.0348,1.9985,1.953,1.9072,1.8888,1.8796,1.8696,1.8326,1.8048,1.8056,1.7598,1.6951,1.6298,1.5825,1.5825,1.5825,1.5825,1.5825,1.5825,1.5825,1.5825,1.573,1.5445,1.4867,1.3896,1.3119,1.2242,1.1272,1.0301,0.9624,0.9232,0.9034,0.8931,0.8829,0.863,0.8333,0.8237,0.8237,0.8137,0.8137,0.8038,0.8038,0.8038,0.8038,0.8038,2.448,2.3997,2.3103,2.275,2.2814,2.2041,2.1887,2.2272,2.2548,2.275,2.2749,2.2829,2.2866,2.2921,2.3244,2.3428,2.3565,2.3895,2.4097,2.4125,2.4161,2.4161,2.4161,2.4161,2.4161,2.4161,2.4161,2.4161,2.4161,2.4053,2.3945,2.3854,2.3755,2.3746,2.3854,2.3746,2.3438,2.271,2.2619,2.2417,2.1582,2.1387,2.1285,2.1057,2.0775,2.068,2.0672,2.1065,2.1371,2.1387,2.2064,2.2458,2.285,2.2442,2.2716,2.3078,2.2808,2.2573,2.2829,2.292,2.3001,2.2876,2.2838,2.2667,2.2326,2.2086,2.1688,2.1121,2.0736,2.0257,2.0076,1.943,1.8888,1.8056,1.7785,1.7785,1.7598,1.7037,1.6662,1.7037,1.6857,1.648,1.592,1.5825,1.5825,1.5825,1.5825,1.573,1.5635,1.5737,1.5832,1.5825,1.5635,1.5159,1.4382,1.3312,1.2339,1.1365,1.0301,0.9327,0.9034,0.8836,0.8733,0.8531,0.8333,0.8137,0.8137,0.8137,0.8038,0.8038,0.8038,0.8038,0.8038,0.8038,0.8038,2.4475,2.3975,2.3342,2.2984,2.2793,2.229,2.2337,2.2732,2.3344,2.3426,2.3198,2.3299,2.3391,2.3474,2.3611,2.3749,2.3785,2.4005,2.4251,2.4161,2.4161,2.4161,2.4161,2.4161,2.4161,2.4161,2.4152,2.4152,2.4053,2.3854,2.3755,2.3555,2.3356,2.3347,2.3247,2.3038,2.2509,2.1887,2.1692,2.1073,2.0451,2.004,1.9937,1.9723,1.942,1.9324,1.9524,1.9716,2.001,2.0135,2.0444,2.0923,2.1476,2.1894,2.2137,2.2699,2.3293,2.3035,2.3278,2.3323,2.3323,2.3001,2.2965,2.2699,2.23,2.2151,2.1327,2.0746,2.0201,1.9521,1.8972,1.8419,1.7777,1.6951,1.6763,1.6763,1.6763,1.6109,1.6015,1.6386,1.648,1.6015,1.5825,1.5825,1.5825,1.5825,1.5825,1.5635,1.5445,1.535,1.5248,1.5146,1.5153,1.4675,1.3998,1.3216,1.2242,1.1365,1.0199,0.9031,0.8733,0.8634,0.8435,0.8237,0.8137,0.8038,0.8038,0.8038,0.7939,0.8038,0.8038,0.8038,0.8038,0.7939,0.7939,2.4764,2.3584,2.3565,2.3354,2.2939,2.2997,2.2988,2.3024,2.3771,2.3938,2.3584,2.3932,2.4005,2.4079,2.4125,2.4097,2.4088,2.4134,2.4152,2.4161,2.4161,2.4161,2.4152,2.4053,2.4053,2.4053,2.4053,2.3746,2.3755,2.3655,2.3555,2.3147,2.2535,2.2426,2.2215,2.1599,2.1277,2.0869,2.0349,1.9731,1.9102,1.8693,1.8492,1.8178,1.7871,1.7562,1.7687,1.8135,1.8443,1.8764,1.9308,1.9902,2.0491,2.1146,2.177,2.2689,2.3665,2.3665,2.3674,2.3637,2.3329,2.2924,2.3015,2.2752,2.2398,2.1922,2.1026,2.0104,1.943,1.8326,1.7498,1.6842,1.6285,1.6008,1.573,1.5825,1.5927,1.5832,1.5832,1.592,1.592,1.5825,1.5737,1.5737,1.5737,1.573,1.554,1.5057,1.4867,1.4573,1.4376,1.389,1.389,1.3998,1.3414,1.2538,1.1853,1.0877,0.9801,0.873,0.8531,0.8336,0.8237,0.8137,0.8038,0.8038,0.8038,0.7939,0.7939,0.7939,0.7939,0.7842,0.7842,0.7743,0.7643,2.4105,2.3969,2.3978,2.3914,2.3822,2.3813,2.3639,2.3464,2.3938,2.4095,2.3987,2.4097,2.4152,2.4161,2.4152,2.4161,2.4161,2.4161,2.4152,2.4161,2.4161,2.4161,2.3954,2.3646,2.3646,2.3646,2.3447,2.3338,2.3546,2.3447,2.2526,2.1709,2.1505,2.1089,2.0364,1.9324,1.9635,1.9635,1.9013,1.8283,1.7654,1.7351,1.7147,1.6942,1.6942,1.6736,1.7073,1.7305,1.7602,1.7918,1.8128,1.8624,1.9524,2.0562,2.1541,2.3194,2.3637,2.3538,2.3546,2.3347,2.2828,2.2139,2.1887,2.2123,2.1883,2.1328,2.0441,1.9406,1.8674,1.7759,1.6746,1.6089,1.5675,1.5553,1.5363,1.5356,1.5452,1.5553,1.5547,1.5642,1.5642,1.5642,1.5547,1.5547,1.5547,1.5547,1.5356,1.4873,1.4292,1.4088,1.3409,1.2823,1.263,1.2727,1.2242,1.156,1.0974,1.0391,0.9312,0.8432,0.8233,0.8137,0.8038,0.8038,0.8038,0.8038,0.8038,0.7939,0.7939,0.7743,0.7743,0.7746,0.7646,0.7543,0.7444,2.3776,2.4134,2.4161,2.4161,2.4161,2.4152,2.3996,2.3849,2.4051,2.4161,2.4161,2.4152,2.4161,2.4161,2.4161,2.4161,2.4161,2.4161,2.4161,2.4161,2.4161,2.4161,2.3854,2.3546,2.3746,2.3646,2.3447,2.3238,2.3238,2.2526,2.1505,2.0364,2.0261,1.9849,1.9228,1.861,1.8297,1.8185,1.7772,1.6829,1.6411,1.6318,1.6318,1.643,1.653,1.6849,1.6955,1.6961,1.706,1.7265,1.7265,1.747,1.8394,1.9317,2.0444,2.1785,2.1988,2.1895,2.1794,2.1794,2.1387,2.0852,2.0247,2.0189,2.0313,2.0012,1.9202,1.8323,1.7814,1.7217,1.6375,1.5518,1.5447,1.528,1.5178,1.5172,1.5172,1.5178,1.5267,1.5458,1.5458,1.5458,1.5363,1.5363,1.5363,1.5363,1.5267,1.5077,1.4292,1.3607,1.2732,1.1858,1.156,1.1361,1.0877,1.0583,1.0293,0.9805,0.8924,0.8336,0.8038,0.8038,0.8038,0.8038,0.8038,0.7939,0.7939,0.7842,0.7743,0.7643,0.7444,0.7344,0.7344,0.7244,0.7141,2.373,2.4097,2.4242,2.4161,2.4161,2.4161,2.4143,2.4161,2.4152,2.4161,2.4161,2.4161,2.4161,2.4161,2.4161,2.4161,2.4161,2.4161,2.4161,2.4161,2.4161,2.4161,2.4152,2.4053,2.3746,2.3854,2.3646,2.2837,2.2627,2.181,2.068,1.9228,1.9124,1.8916,1.8401,1.7982,1.764,1.735,1.6996,1.6311,1.6211,1.6217,1.6324,1.6324,1.653,1.673,1.6736,1.6736,1.6736,1.673,1.673,1.6836,1.7457,1.808,1.9213,1.9826,2.0444,2.0546,2.0554,2.0444,2.0135,1.9418,1.8535,1.828,1.8356,1.8598,1.7873,1.7487,1.7063,1.6484,1.5641,1.5227,1.5008,1.4967,1.4885,1.4975,1.5077,1.5115,1.5172,1.5268,1.5281,1.5262,1.507,1.507,1.5077,1.5077,1.5077,1.4981,1.4418,1.3534,1.2473,1.1306,1.0685,1.0386,0.9801,0.9608,0.9608,0.9118,0.8538,0.8237,0.8038,0.8038,0.8038,0.8038,0.8038,0.7939,0.7942,0.7743,0.7643,0.7444,0.7244,0.7042,0.6942,0.6842,0.6842,2.3327,2.3712,2.4024,2.4161,2.4161,2.4161,2.4161,2.4161,2.4161,2.4161,2.4161,2.4161,2.4161,2.4161,2.4161,2.4161,2.4161,2.4161,2.4161,2.4161,2.4161,2.4161,2.4053,2.3637,2.3637,2.3538,2.3038,2.2123,2.1395,2.0783,1.9945,1.8492,1.8262,1.7934,1.7279,1.697,1.7042,1.6814,1.6759,1.6411,1.6524,1.6318,1.6324,1.6324,1.6424,1.663,1.663,1.6524,1.6743,1.6961,1.6842,1.7147,1.7975,1.8178,1.8902,1.9723,1.9517,1.9517,1.9517,1.9302,1.8984,1.8494,1.768,1.6921,1.6619,1.68,1.6897,1.6566,1.6224,1.566,1.5305,1.49,1.4716,1.4643,1.4592,1.479,1.5077,1.5057,1.5049,1.5093,1.5208,1.5042,1.4846,1.4808,1.479,1.479,1.4783,1.47,1.437,1.3699,1.2758,1.157,1.0306,0.9706,0.9133,0.8763,0.8881,0.8766,0.8275,0.8062,0.8045,0.8038,0.8038,0.8038,0.7939,0.7942,0.7743,0.7646,0.7447,0.7244,0.7042,0.6839,0.6639,0.6639,0.6539,2.3085,2.3574,2.3987,2.4161,2.4161,2.4161,2.4161,2.4161,2.4161,2.4161,2.4161,2.4161,2.4161,2.4161,2.4161,2.4161,2.4161,2.4161,2.4161,2.4161,2.4053,2.4161,2.3845,2.3438,2.3737,2.3746,2.2526,2.1412,2.0063,1.9635,1.8797,1.7519,1.7173,1.6918,1.6241,1.6456,1.6599,1.6361,1.6708,1.6817,1.6942,1.6743,1.6643,1.6749,1.6849,1.6955,1.6955,1.6849,1.6961,1.6961,1.6743,1.6736,1.7147,1.7147,1.7443,1.7857,1.7962,1.8073,1.8171,1.806,1.7809,1.7178,1.6701,1.5815,1.5432,1.5583,1.5621,1.5383,1.5479,1.5022,1.501,1.4777,1.4552,1.4491,1.4418,1.4496,1.4598,1.4635,1.477,1.4808,1.4924,1.4912,1.4747,1.4741,1.4728,1.4722,1.4686,1.4741,1.446,1.4101,1.3144,1.2063,1.0703,0.9414,0.8664,0.8473,0.8372,0.8251,0.814,0.8102,0.8085,0.8055,0.8038,0.7939,0.7842,0.7743,0.7646,0.7447,0.7247,0.6945,0.6742,0.6539,0.6439,0.6437,0.6437,2.303,2.3574,2.3987,2.4161,2.4161,2.4161,2.4161,2.4161,2.4161,2.4161,2.4161,2.4161,2.4161,2.4161,2.4161,2.4161,2.4053,2.3755,2.3854,2.4053,2.3646,2.3538,2.3546,2.3646,2.3338,2.2929,2.2114,2.0269,1.8513,1.8435,1.7971,1.6652,1.6247,1.6177,1.6196,1.6484,1.6742,1.6711,1.6977,1.7213,1.7252,1.7166,1.7067,1.7173,1.7378,1.7483,1.7378,1.7166,1.7067,1.6855,1.653,1.6424,1.6318,1.6418,1.6305,1.6511,1.6511,1.6405,1.6305,1.6405,1.6045,1.5627,1.5252,1.4998,1.4733,1.457,1.4613,1.4631,1.4728,1.4771,1.466,1.466,1.4509,1.437,1.4328,1.4298,1.431,1.443,1.4509,1.4684,1.4714,1.4721,1.466,1.4666,1.4714,1.4714,1.4751,1.4847,1.4766,1.4436,1.3783,1.2594,1.1262,0.9965,0.8593,0.8296,0.8296,0.8296,0.8279,0.8197,0.8123,0.7982,0.7852,0.7842,0.7746,0.755,0.7347,0.7144,0.6945,0.6751,0.6642,0.6439,0.6439,0.6437,0.6437,2.2878,2.3584,2.3987,2.4161,2.4161,2.4161,2.4161,2.4161,2.4152,2.4161,2.4115,2.4143,2.4161,2.4152,2.4161,2.4053,2.3746,2.3347,2.3546,2.3954,2.2619,2.2417,2.2417,2.2417,2.1607,2.12,2.0885,1.9849,1.8102,1.795,1.7613,1.6574,1.6348,1.6374,1.6664,1.6813,1.6922,1.7015,1.716,1.7417,1.7193,1.7134,1.7047,1.6955,1.6836,1.6836,1.6736,1.6424,1.6318,1.6318,1.6205,1.6092,1.5974,1.598,1.5891,1.5885,1.5885,1.5885,1.5885,1.5885,1.5741,1.5457,1.5203,1.4974,1.4714,1.4455,1.4419,1.4407,1.4479,1.4515,1.4533,1.4624,1.4552,1.4395,1.4304,1.4298,1.4304,1.4413,1.4564,1.4684,1.4757,1.4654,1.4491,1.4576,1.4739,1.4727,1.4678,1.4757,1.4739,1.4465,1.4319,1.301,1.1697,1.0347,0.8852,0.8546,0.8442,0.8445,0.8411,0.8309,0.8106,0.7802,0.7772,0.765,0.745,0.7256,0.7054,0.6874,0.6759,0.6662,0.6545,0.6437,0.6437,0.6437,0.6437]}]]